<?xml version="1.0" encoding="UTF-8" standalone="no" ?>
<gpx xmlns="http://www.topografix.com/GPX/1/1" xmlns:xsi="http://www.w3.org/2001/XMLSchema-instance" xsi:schemaLocation="http://www.topografix.com/GPX/1/1 http://www.topografix.com/GPX/1/1/gpx.xsd" version="1.1" creator="VisuGPX - https://www.visugpx.com">
  <metadata>
    <name>Course à pied dans l'après-midi</name>
  </metadata>
  <trk>
    <name><![CDATA[Course à pied dans l'après-midi_1]]></name>
    <trkseg>
      <trkpt lat="43.64759" lon="1.37621">
        <ele>155</ele>
        <time>2023-06-13T15:48:23Z</time>
      </trkpt>
      <trkpt lat="43.64761" lon="1.37619">
        <ele>155</ele>
        <time>2023-06-13T15:48:24Z</time>
      </trkpt>
      <trkpt lat="43.64763" lon="1.37618">
        <ele>154</ele>
        <time>2023-06-13T15:48:25Z</time>
      </trkpt>
      <trkpt lat="43.64765" lon="1.37616">
        <ele>154</ele>
        <time>2023-06-13T15:48:26Z</time>
      </trkpt>
      <trkpt lat="43.64767" lon="1.37615">
        <ele>155</ele>
        <time>2023-06-13T15:48:27Z</time>
      </trkpt>
      <trkpt lat="43.64769" lon="1.37614">
        <ele>155</ele>
        <time>2023-06-13T15:48:28Z</time>
      </trkpt>
      <trkpt lat="43.64772" lon="1.37613">
        <ele>155</ele>
        <time>2023-06-13T15:48:29Z</time>
      </trkpt>
      <trkpt lat="43.64774" lon="1.37611">
        <ele>156</ele>
        <time>2023-06-13T15:48:30Z</time>
      </trkpt>
      <trkpt lat="43.64776" lon="1.37611">
        <ele>156</ele>
        <time>2023-06-13T15:48:31Z</time>
      </trkpt>
      <trkpt lat="43.64778" lon="1.3761">
        <ele>156</ele>
        <time>2023-06-13T15:48:32Z</time>
      </trkpt>
      <trkpt lat="43.6478" lon="1.37609">
        <ele>156</ele>
        <time>2023-06-13T15:48:33Z</time>
      </trkpt>
      <trkpt lat="43.64782" lon="1.37608">
        <ele>156</ele>
        <time>2023-06-13T15:48:34Z</time>
      </trkpt>
      <trkpt lat="43.64784" lon="1.37607">
        <ele>156</ele>
        <time>2023-06-13T15:48:35Z</time>
      </trkpt>
      <trkpt lat="43.64786" lon="1.37606">
        <ele>156</ele>
        <time>2023-06-13T15:48:36Z</time>
      </trkpt>
      <trkpt lat="43.64788" lon="1.37605">
        <ele>156</ele>
        <time>2023-06-13T15:48:37Z</time>
      </trkpt>
      <trkpt lat="43.6479" lon="1.37604">
        <ele>156</ele>
        <time>2023-06-13T15:48:38Z</time>
      </trkpt>
      <trkpt lat="43.64792" lon="1.37603">
        <ele>156</ele>
        <time>2023-06-13T15:48:39Z</time>
      </trkpt>
      <trkpt lat="43.64794" lon="1.37602">
        <ele>156</ele>
        <time>2023-06-13T15:48:40Z</time>
      </trkpt>
      <trkpt lat="43.64796" lon="1.37601">
        <ele>156</ele>
        <time>2023-06-13T15:48:41Z</time>
      </trkpt>
      <trkpt lat="43.64799" lon="1.37601">
        <ele>156</ele>
        <time>2023-06-13T15:48:42Z</time>
      </trkpt>
      <trkpt lat="43.64801" lon="1.37601">
        <ele>156</ele>
        <time>2023-06-13T15:48:43Z</time>
      </trkpt>
      <trkpt lat="43.64804" lon="1.376">
        <ele>156</ele>
        <time>2023-06-13T15:48:44Z</time>
      </trkpt>
      <trkpt lat="43.64806" lon="1.37601">
        <ele>156</ele>
        <time>2023-06-13T15:48:45Z</time>
      </trkpt>
      <trkpt lat="43.64808" lon="1.37602">
        <ele>156</ele>
        <time>2023-06-13T15:48:46Z</time>
      </trkpt>
      <trkpt lat="43.6481" lon="1.37603">
        <ele>156</ele>
        <time>2023-06-13T15:48:47Z</time>
      </trkpt>
      <trkpt lat="43.64812" lon="1.37604">
        <ele>156</ele>
        <time>2023-06-13T15:48:48Z</time>
      </trkpt>
      <trkpt lat="43.64814" lon="1.37606">
        <ele>156</ele>
        <time>2023-06-13T15:48:49Z</time>
      </trkpt>
      <trkpt lat="43.64816" lon="1.37607">
        <ele>155</ele>
        <time>2023-06-13T15:48:50Z</time>
      </trkpt>
      <trkpt lat="43.64818" lon="1.37609">
        <ele>155</ele>
        <time>2023-06-13T15:48:51Z</time>
      </trkpt>
      <trkpt lat="43.6482" lon="1.37611">
        <ele>155</ele>
        <time>2023-06-13T15:48:52Z</time>
      </trkpt>
      <trkpt lat="43.64822" lon="1.37613">
        <ele>155</ele>
        <time>2023-06-13T15:48:53Z</time>
      </trkpt>
      <trkpt lat="43.64824" lon="1.37615">
        <ele>155</ele>
        <time>2023-06-13T15:48:54Z</time>
      </trkpt>
      <trkpt lat="43.64826" lon="1.37618">
        <ele>155</ele>
        <time>2023-06-13T15:48:55Z</time>
      </trkpt>
      <trkpt lat="43.64827" lon="1.3762">
        <ele>155</ele>
        <time>2023-06-13T15:48:56Z</time>
      </trkpt>
      <trkpt lat="43.64829" lon="1.37622">
        <ele>155</ele>
        <time>2023-06-13T15:48:57Z</time>
      </trkpt>
      <trkpt lat="43.64831" lon="1.37623">
        <ele>155</ele>
        <time>2023-06-13T15:48:58Z</time>
      </trkpt>
      <trkpt lat="43.64833" lon="1.37625">
        <ele>155</ele>
        <time>2023-06-13T15:48:59Z</time>
      </trkpt>
      <trkpt lat="43.64835" lon="1.37627">
        <ele>155</ele>
        <time>2023-06-13T15:49:00Z</time>
      </trkpt>
      <trkpt lat="43.64838" lon="1.37628">
        <ele>155</ele>
        <time>2023-06-13T15:49:01Z</time>
      </trkpt>
      <trkpt lat="43.6484" lon="1.37629">
        <ele>155</ele>
        <time>2023-06-13T15:49:02Z</time>
      </trkpt>
      <trkpt lat="43.64842" lon="1.3763">
        <ele>155</ele>
        <time>2023-06-13T15:49:03Z</time>
      </trkpt>
      <trkpt lat="43.64844" lon="1.37631">
        <ele>155</ele>
        <time>2023-06-13T15:49:04Z</time>
      </trkpt>
      <trkpt lat="43.64846" lon="1.37633">
        <ele>155</ele>
        <time>2023-06-13T15:49:05Z</time>
      </trkpt>
      <trkpt lat="43.64849" lon="1.37634">
        <ele>155</ele>
        <time>2023-06-13T15:49:06Z</time>
      </trkpt>
      <trkpt lat="43.64851" lon="1.37635">
        <ele>155</ele>
        <time>2023-06-13T15:49:07Z</time>
      </trkpt>
      <trkpt lat="43.64853" lon="1.37637">
        <ele>155</ele>
        <time>2023-06-13T15:49:08Z</time>
      </trkpt>
      <trkpt lat="43.64856" lon="1.37639">
        <ele>155</ele>
        <time>2023-06-13T15:49:09Z</time>
      </trkpt>
      <trkpt lat="43.64858" lon="1.37641">
        <ele>155</ele>
        <time>2023-06-13T15:49:10Z</time>
      </trkpt>
      <trkpt lat="43.64861" lon="1.37643">
        <ele>155</ele>
        <time>2023-06-13T15:49:11Z</time>
      </trkpt>
      <trkpt lat="43.64863" lon="1.37644">
        <ele>156</ele>
        <time>2023-06-13T15:49:12Z</time>
      </trkpt>
      <trkpt lat="43.64866" lon="1.37646">
        <ele>156</ele>
        <time>2023-06-13T15:49:13Z</time>
      </trkpt>
      <trkpt lat="43.64868" lon="1.37647">
        <ele>155</ele>
        <time>2023-06-13T15:49:14Z</time>
      </trkpt>
      <trkpt lat="43.6487" lon="1.37649">
        <ele>155</ele>
        <time>2023-06-13T15:49:15Z</time>
      </trkpt>
      <trkpt lat="43.64872" lon="1.37652">
        <ele>155</ele>
        <time>2023-06-13T15:49:16Z</time>
      </trkpt>
      <trkpt lat="43.64875" lon="1.37654">
        <ele>155</ele>
        <time>2023-06-13T15:49:17Z</time>
      </trkpt>
      <trkpt lat="43.64877" lon="1.37657">
        <ele>155</ele>
        <time>2023-06-13T15:49:18Z</time>
      </trkpt>
      <trkpt lat="43.64879" lon="1.3766">
        <ele>155</ele>
        <time>2023-06-13T15:49:19Z</time>
      </trkpt>
      <trkpt lat="43.6488" lon="1.37663">
        <ele>155</ele>
        <time>2023-06-13T15:49:20Z</time>
      </trkpt>
      <trkpt lat="43.64882" lon="1.37666">
        <ele>155</ele>
        <time>2023-06-13T15:49:21Z</time>
      </trkpt>
      <trkpt lat="43.64883" lon="1.37669">
        <ele>155</ele>
        <time>2023-06-13T15:49:22Z</time>
      </trkpt>
      <trkpt lat="43.64885" lon="1.37673">
        <ele>155</ele>
        <time>2023-06-13T15:49:23Z</time>
      </trkpt>
      <trkpt lat="43.64886" lon="1.37676">
        <ele>155</ele>
        <time>2023-06-13T15:49:24Z</time>
      </trkpt>
      <trkpt lat="43.64887" lon="1.3768">
        <ele>155</ele>
        <time>2023-06-13T15:49:25Z</time>
      </trkpt>
      <trkpt lat="43.64888" lon="1.37684">
        <ele>155</ele>
        <time>2023-06-13T15:49:26Z</time>
      </trkpt>
      <trkpt lat="43.64888" lon="1.37686">
        <ele>155</ele>
        <time>2023-06-13T15:49:27Z</time>
      </trkpt>
      <trkpt lat="43.64888" lon="1.37689">
        <ele>155</ele>
        <time>2023-06-13T15:49:28Z</time>
      </trkpt>
      <trkpt lat="43.64888" lon="1.37692">
        <ele>155</ele>
        <time>2023-06-13T15:49:29Z</time>
      </trkpt>
      <trkpt lat="43.64889" lon="1.37694">
        <ele>155</ele>
        <time>2023-06-13T15:49:30Z</time>
      </trkpt>
      <trkpt lat="43.64889" lon="1.37697">
        <ele>155</ele>
        <time>2023-06-13T15:49:31Z</time>
      </trkpt>
      <trkpt lat="43.64889" lon="1.37699">
        <ele>154</ele>
        <time>2023-06-13T15:49:32Z</time>
      </trkpt>
      <trkpt lat="43.64889" lon="1.37701">
        <ele>154</ele>
        <time>2023-06-13T15:49:33Z</time>
      </trkpt>
      <trkpt lat="43.64889" lon="1.37703">
        <ele>154</ele>
        <time>2023-06-13T15:49:34Z</time>
      </trkpt>
      <trkpt lat="43.64889" lon="1.37706">
        <ele>155</ele>
        <time>2023-06-13T15:49:35Z</time>
      </trkpt>
      <trkpt lat="43.64888" lon="1.37708">
        <ele>155</ele>
        <time>2023-06-13T15:49:36Z</time>
      </trkpt>
      <trkpt lat="43.64888" lon="1.3771">
        <ele>154</ele>
        <time>2023-06-13T15:49:37Z</time>
      </trkpt>
      <trkpt lat="43.64889" lon="1.37713">
        <ele>154</ele>
        <time>2023-06-13T15:49:38Z</time>
      </trkpt>
      <trkpt lat="43.6489" lon="1.37715">
        <ele>154</ele>
        <time>2023-06-13T15:49:39Z</time>
      </trkpt>
      <trkpt lat="43.6489" lon="1.37718">
        <ele>154</ele>
        <time>2023-06-13T15:49:40Z</time>
      </trkpt>
      <trkpt lat="43.64891" lon="1.37721">
        <ele>154</ele>
        <time>2023-06-13T15:49:41Z</time>
      </trkpt>
      <trkpt lat="43.64892" lon="1.37723">
        <ele>154</ele>
        <time>2023-06-13T15:49:42Z</time>
      </trkpt>
      <trkpt lat="43.64893" lon="1.37727">
        <ele>155</ele>
        <time>2023-06-13T15:49:43Z</time>
      </trkpt>
      <trkpt lat="43.64894" lon="1.3773">
        <ele>155</ele>
        <time>2023-06-13T15:49:44Z</time>
      </trkpt>
      <trkpt lat="43.64895" lon="1.37734">
        <ele>155</ele>
        <time>2023-06-13T15:49:45Z</time>
      </trkpt>
      <trkpt lat="43.64897" lon="1.37737">
        <ele>155</ele>
        <time>2023-06-13T15:49:46Z</time>
      </trkpt>
      <trkpt lat="43.64898" lon="1.37742">
        <ele>155</ele>
        <time>2023-06-13T15:49:47Z</time>
      </trkpt>
      <trkpt lat="43.64899" lon="1.37746">
        <ele>154</ele>
        <time>2023-06-13T15:49:48Z</time>
      </trkpt>
      <trkpt lat="43.649" lon="1.3775">
        <ele>154</ele>
        <time>2023-06-13T15:49:49Z</time>
      </trkpt>
      <trkpt lat="43.64901" lon="1.37753">
        <ele>154</ele>
        <time>2023-06-13T15:49:50Z</time>
      </trkpt>
      <trkpt lat="43.64902" lon="1.37756">
        <ele>154</ele>
        <time>2023-06-13T15:49:51Z</time>
      </trkpt>
      <trkpt lat="43.64902" lon="1.37759">
        <ele>154</ele>
        <time>2023-06-13T15:49:52Z</time>
      </trkpt>
      <trkpt lat="43.64903" lon="1.37762">
        <ele>154</ele>
        <time>2023-06-13T15:49:53Z</time>
      </trkpt>
      <trkpt lat="43.64904" lon="1.37765">
        <ele>154</ele>
        <time>2023-06-13T15:49:54Z</time>
      </trkpt>
      <trkpt lat="43.64905" lon="1.37768">
        <ele>154</ele>
        <time>2023-06-13T15:49:55Z</time>
      </trkpt>
      <trkpt lat="43.64905" lon="1.3777">
        <ele>154</ele>
        <time>2023-06-13T15:49:56Z</time>
      </trkpt>
      <trkpt lat="43.64906" lon="1.37773">
        <ele>154</ele>
        <time>2023-06-13T15:49:57Z</time>
      </trkpt>
      <trkpt lat="43.64906" lon="1.37776">
        <ele>154</ele>
        <time>2023-06-13T15:49:58Z</time>
      </trkpt>
      <trkpt lat="43.64907" lon="1.37778">
        <ele>154</ele>
        <time>2023-06-13T15:49:59Z</time>
      </trkpt>
      <trkpt lat="43.64908" lon="1.37779">
        <ele>154</ele>
        <time>2023-06-13T15:50:00Z</time>
      </trkpt>
      <trkpt lat="43.64909" lon="1.37781">
        <ele>154</ele>
        <time>2023-06-13T15:50:01Z</time>
      </trkpt>
      <trkpt lat="43.64909" lon="1.37783">
        <ele>154</ele>
        <time>2023-06-13T15:50:02Z</time>
      </trkpt>
      <trkpt lat="43.64912" lon="1.37793">
        <ele>154</ele>
        <time>2023-06-13T15:50:03Z</time>
      </trkpt>
      <trkpt lat="43.64913" lon="1.37796">
        <ele>154</ele>
        <time>2023-06-13T15:50:04Z</time>
      </trkpt>
      <trkpt lat="43.64913" lon="1.37799">
        <ele>154</ele>
        <time>2023-06-13T15:50:05Z</time>
      </trkpt>
      <trkpt lat="43.64914" lon="1.37801">
        <ele>154</ele>
        <time>2023-06-13T15:50:06Z</time>
      </trkpt>
      <trkpt lat="43.64914" lon="1.37804">
        <ele>154</ele>
        <time>2023-06-13T15:50:07Z</time>
      </trkpt>
      <trkpt lat="43.64915" lon="1.37807">
        <ele>154</ele>
        <time>2023-06-13T15:50:08Z</time>
      </trkpt>
      <trkpt lat="43.64915" lon="1.37811">
        <ele>154</ele>
        <time>2023-06-13T15:50:09Z</time>
      </trkpt>
      <trkpt lat="43.64916" lon="1.37814">
        <ele>154</ele>
        <time>2023-06-13T15:50:10Z</time>
      </trkpt>
      <trkpt lat="43.64916" lon="1.37817">
        <ele>154</ele>
        <time>2023-06-13T15:50:11Z</time>
      </trkpt>
      <trkpt lat="43.64917" lon="1.3782">
        <ele>154</ele>
        <time>2023-06-13T15:50:12Z</time>
      </trkpt>
      <trkpt lat="43.64917" lon="1.37823">
        <ele>154</ele>
        <time>2023-06-13T15:50:13Z</time>
      </trkpt>
      <trkpt lat="43.64917" lon="1.37825">
        <ele>154</ele>
        <time>2023-06-13T15:50:14Z</time>
      </trkpt>
      <trkpt lat="43.64918" lon="1.37828">
        <ele>154</ele>
        <time>2023-06-13T15:50:15Z</time>
      </trkpt>
      <trkpt lat="43.64918" lon="1.37831">
        <ele>154</ele>
        <time>2023-06-13T15:50:16Z</time>
      </trkpt>
      <trkpt lat="43.64918" lon="1.37833">
        <ele>154</ele>
        <time>2023-06-13T15:50:17Z</time>
      </trkpt>
      <trkpt lat="43.64919" lon="1.37836">
        <ele>154</ele>
        <time>2023-06-13T15:50:18Z</time>
      </trkpt>
      <trkpt lat="43.6492" lon="1.37839">
        <ele>154</ele>
        <time>2023-06-13T15:50:19Z</time>
      </trkpt>
      <trkpt lat="43.64921" lon="1.37843">
        <ele>154</ele>
        <time>2023-06-13T15:50:20Z</time>
      </trkpt>
      <trkpt lat="43.64922" lon="1.37846">
        <ele>154</ele>
        <time>2023-06-13T15:50:21Z</time>
      </trkpt>
      <trkpt lat="43.64923" lon="1.3785">
        <ele>154</ele>
        <time>2023-06-13T15:50:22Z</time>
      </trkpt>
      <trkpt lat="43.64925" lon="1.37852">
        <ele>154</ele>
        <time>2023-06-13T15:50:23Z</time>
      </trkpt>
      <trkpt lat="43.64927" lon="1.37854">
        <ele>154</ele>
        <time>2023-06-13T15:50:24Z</time>
      </trkpt>
      <trkpt lat="43.64928" lon="1.37856">
        <ele>154</ele>
        <time>2023-06-13T15:50:25Z</time>
      </trkpt>
      <trkpt lat="43.6493" lon="1.37858">
        <ele>154</ele>
        <time>2023-06-13T15:50:26Z</time>
      </trkpt>
      <trkpt lat="43.64932" lon="1.3786">
        <ele>154</ele>
        <time>2023-06-13T15:50:27Z</time>
      </trkpt>
      <trkpt lat="43.64933" lon="1.37862">
        <ele>154</ele>
        <time>2023-06-13T15:50:28Z</time>
      </trkpt>
      <trkpt lat="43.64935" lon="1.37864">
        <ele>154</ele>
        <time>2023-06-13T15:50:29Z</time>
      </trkpt>
      <trkpt lat="43.64937" lon="1.37866">
        <ele>154</ele>
        <time>2023-06-13T15:50:30Z</time>
      </trkpt>
      <trkpt lat="43.64938" lon="1.37868">
        <ele>154</ele>
        <time>2023-06-13T15:50:31Z</time>
      </trkpt>
      <trkpt lat="43.6494" lon="1.3787">
        <ele>154</ele>
        <time>2023-06-13T15:50:32Z</time>
      </trkpt>
      <trkpt lat="43.64941" lon="1.37872">
        <ele>154</ele>
        <time>2023-06-13T15:50:33Z</time>
      </trkpt>
      <trkpt lat="43.64943" lon="1.37874">
        <ele>154</ele>
        <time>2023-06-13T15:50:34Z</time>
      </trkpt>
      <trkpt lat="43.64945" lon="1.37876">
        <ele>154</ele>
        <time>2023-06-13T15:50:35Z</time>
      </trkpt>
      <trkpt lat="43.64947" lon="1.37879">
        <ele>154</ele>
        <time>2023-06-13T15:50:36Z</time>
      </trkpt>
      <trkpt lat="43.64948" lon="1.37883">
        <ele>154</ele>
        <time>2023-06-13T15:50:37Z</time>
      </trkpt>
      <trkpt lat="43.64949" lon="1.37886">
        <ele>154</ele>
        <time>2023-06-13T15:50:38Z</time>
      </trkpt>
      <trkpt lat="43.64951" lon="1.3789">
        <ele>154</ele>
        <time>2023-06-13T15:50:39Z</time>
      </trkpt>
      <trkpt lat="43.64951" lon="1.37892">
        <ele>154</ele>
        <time>2023-06-13T15:50:40Z</time>
      </trkpt>
      <trkpt lat="43.64951" lon="1.37894">
        <ele>154</ele>
        <time>2023-06-13T15:50:41Z</time>
      </trkpt>
      <trkpt lat="43.64952" lon="1.37895">
        <ele>154</ele>
        <time>2023-06-13T15:50:42Z</time>
      </trkpt>
      <trkpt lat="43.64952" lon="1.37897">
        <ele>154</ele>
        <time>2023-06-13T15:50:43Z</time>
      </trkpt>
      <trkpt lat="43.64955" lon="1.37907">
        <ele>154</ele>
        <time>2023-06-13T15:50:44Z</time>
      </trkpt>
      <trkpt lat="43.64955" lon="1.3791">
        <ele>154</ele>
        <time>2023-06-13T15:50:45Z</time>
      </trkpt>
      <trkpt lat="43.64956" lon="1.37913">
        <ele>154</ele>
        <time>2023-06-13T15:50:46Z</time>
      </trkpt>
      <trkpt lat="43.64957" lon="1.37916">
        <ele>154</ele>
        <time>2023-06-13T15:50:47Z</time>
      </trkpt>
      <trkpt lat="43.64958" lon="1.37919">
        <ele>154</ele>
        <time>2023-06-13T15:50:48Z</time>
      </trkpt>
      <trkpt lat="43.64959" lon="1.37921">
        <ele>154</ele>
        <time>2023-06-13T15:50:49Z</time>
      </trkpt>
      <trkpt lat="43.6496" lon="1.37924">
        <ele>154</ele>
        <time>2023-06-13T15:50:50Z</time>
      </trkpt>
      <trkpt lat="43.64961" lon="1.37926">
        <ele>154</ele>
        <time>2023-06-13T15:50:51Z</time>
      </trkpt>
      <trkpt lat="43.64962" lon="1.37929">
        <ele>154</ele>
        <time>2023-06-13T15:50:52Z</time>
      </trkpt>
      <trkpt lat="43.64963" lon="1.37931">
        <ele>154</ele>
        <time>2023-06-13T15:50:53Z</time>
      </trkpt>
      <trkpt lat="43.64965" lon="1.37934">
        <ele>154</ele>
        <time>2023-06-13T15:50:54Z</time>
      </trkpt>
      <trkpt lat="43.64967" lon="1.37936">
        <ele>154</ele>
        <time>2023-06-13T15:50:55Z</time>
      </trkpt>
      <trkpt lat="43.64969" lon="1.37939">
        <ele>154</ele>
        <time>2023-06-13T15:50:56Z</time>
      </trkpt>
      <trkpt lat="43.6497" lon="1.37941">
        <ele>154</ele>
        <time>2023-06-13T15:50:57Z</time>
      </trkpt>
      <trkpt lat="43.64972" lon="1.37944">
        <ele>153</ele>
        <time>2023-06-13T15:50:58Z</time>
      </trkpt>
      <trkpt lat="43.64973" lon="1.37946">
        <ele>153</ele>
        <time>2023-06-13T15:50:59Z</time>
      </trkpt>
      <trkpt lat="43.64974" lon="1.37949">
        <ele>153</ele>
        <time>2023-06-13T15:51:00Z</time>
      </trkpt>
      <trkpt lat="43.64976" lon="1.37951">
        <ele>153</ele>
        <time>2023-06-13T15:51:01Z</time>
      </trkpt>
      <trkpt lat="43.64977" lon="1.37954">
        <ele>153</ele>
        <time>2023-06-13T15:51:02Z</time>
      </trkpt>
      <trkpt lat="43.64979" lon="1.37957">
        <ele>153</ele>
        <time>2023-06-13T15:51:03Z</time>
      </trkpt>
      <trkpt lat="43.64981" lon="1.3796">
        <ele>153</ele>
        <time>2023-06-13T15:51:04Z</time>
      </trkpt>
      <trkpt lat="43.64982" lon="1.37963">
        <ele>153</ele>
        <time>2023-06-13T15:51:05Z</time>
      </trkpt>
      <trkpt lat="43.64984" lon="1.37966">
        <ele>153</ele>
        <time>2023-06-13T15:51:06Z</time>
      </trkpt>
      <trkpt lat="43.64986" lon="1.37968">
        <ele>153</ele>
        <time>2023-06-13T15:51:07Z</time>
      </trkpt>
      <trkpt lat="43.64988" lon="1.37971">
        <ele>153</ele>
        <time>2023-06-13T15:51:08Z</time>
      </trkpt>
      <trkpt lat="43.64989" lon="1.37974">
        <ele>153</ele>
        <time>2023-06-13T15:51:09Z</time>
      </trkpt>
      <trkpt lat="43.64991" lon="1.37976">
        <ele>153</ele>
        <time>2023-06-13T15:51:10Z</time>
      </trkpt>
      <trkpt lat="43.64992" lon="1.37978">
        <ele>153</ele>
        <time>2023-06-13T15:51:11Z</time>
      </trkpt>
      <trkpt lat="43.64993" lon="1.3798">
        <ele>153</ele>
        <time>2023-06-13T15:51:12Z</time>
      </trkpt>
      <trkpt lat="43.64994" lon="1.37982">
        <ele>153</ele>
        <time>2023-06-13T15:51:13Z</time>
      </trkpt>
      <trkpt lat="43.64996" lon="1.37984">
        <ele>153</ele>
        <time>2023-06-13T15:51:14Z</time>
      </trkpt>
      <trkpt lat="43.64998" lon="1.37987">
        <ele>153</ele>
        <time>2023-06-13T15:51:15Z</time>
      </trkpt>
      <trkpt lat="43.65" lon="1.37989">
        <ele>153</ele>
        <time>2023-06-13T15:51:16Z</time>
      </trkpt>
      <trkpt lat="43.65003" lon="1.37992">
        <ele>153</ele>
        <time>2023-06-13T15:51:17Z</time>
      </trkpt>
      <trkpt lat="43.65004" lon="1.37995">
        <ele>153</ele>
        <time>2023-06-13T15:51:18Z</time>
      </trkpt>
      <trkpt lat="43.65006" lon="1.37997">
        <ele>153</ele>
        <time>2023-06-13T15:51:19Z</time>
      </trkpt>
      <trkpt lat="43.65008" lon="1.38">
        <ele>153</ele>
        <time>2023-06-13T15:51:20Z</time>
      </trkpt>
      <trkpt lat="43.65009" lon="1.38003">
        <ele>153</ele>
        <time>2023-06-13T15:51:21Z</time>
      </trkpt>
      <trkpt lat="43.65011" lon="1.38005">
        <ele>153</ele>
        <time>2023-06-13T15:51:22Z</time>
      </trkpt>
      <trkpt lat="43.65012" lon="1.38007">
        <ele>153</ele>
        <time>2023-06-13T15:51:23Z</time>
      </trkpt>
      <trkpt lat="43.65013" lon="1.38009">
        <ele>153</ele>
        <time>2023-06-13T15:51:24Z</time>
      </trkpt>
      <trkpt lat="43.65014" lon="1.38011">
        <ele>153</ele>
        <time>2023-06-13T15:51:25Z</time>
      </trkpt>
      <trkpt lat="43.65016" lon="1.38013">
        <ele>153</ele>
        <time>2023-06-13T15:51:26Z</time>
      </trkpt>
      <trkpt lat="43.65016" lon="1.38015">
        <ele>153</ele>
        <time>2023-06-13T15:51:27Z</time>
      </trkpt>
      <trkpt lat="43.65017" lon="1.38016">
        <ele>153</ele>
        <time>2023-06-13T15:51:28Z</time>
      </trkpt>
      <trkpt lat="43.65018" lon="1.38018">
        <ele>153</ele>
        <time>2023-06-13T15:51:29Z</time>
      </trkpt>
      <trkpt lat="43.65019" lon="1.38019">
        <ele>153</ele>
        <time>2023-06-13T15:51:30Z</time>
      </trkpt>
      <trkpt lat="43.65024" lon="1.38028">
        <ele>153</ele>
        <time>2023-06-13T15:51:31Z</time>
      </trkpt>
      <trkpt lat="43.65025" lon="1.3803">
        <ele>153</ele>
        <time>2023-06-13T15:51:32Z</time>
      </trkpt>
      <trkpt lat="43.65027" lon="1.38033">
        <ele>153</ele>
        <time>2023-06-13T15:51:33Z</time>
      </trkpt>
      <trkpt lat="43.65028" lon="1.38035">
        <ele>153</ele>
        <time>2023-06-13T15:51:34Z</time>
      </trkpt>
      <trkpt lat="43.65029" lon="1.38038">
        <ele>153</ele>
        <time>2023-06-13T15:51:35Z</time>
      </trkpt>
      <trkpt lat="43.6503" lon="1.3804">
        <ele>153</ele>
        <time>2023-06-13T15:51:36Z</time>
      </trkpt>
      <trkpt lat="43.65031" lon="1.38043">
        <ele>153</ele>
        <time>2023-06-13T15:51:37Z</time>
      </trkpt>
      <trkpt lat="43.65033" lon="1.38045">
        <ele>153</ele>
        <time>2023-06-13T15:51:38Z</time>
      </trkpt>
      <trkpt lat="43.65034" lon="1.38048">
        <ele>153</ele>
        <time>2023-06-13T15:51:39Z</time>
      </trkpt>
      <trkpt lat="43.65035" lon="1.38051">
        <ele>153</ele>
        <time>2023-06-13T15:51:40Z</time>
      </trkpt>
      <trkpt lat="43.65037" lon="1.38053">
        <ele>153</ele>
        <time>2023-06-13T15:51:41Z</time>
      </trkpt>
      <trkpt lat="43.65038" lon="1.38056">
        <ele>153</ele>
        <time>2023-06-13T15:51:42Z</time>
      </trkpt>
      <trkpt lat="43.65039" lon="1.38059">
        <ele>153</ele>
        <time>2023-06-13T15:51:43Z</time>
      </trkpt>
      <trkpt lat="43.65041" lon="1.38063">
        <ele>153</ele>
        <time>2023-06-13T15:51:44Z</time>
      </trkpt>
      <trkpt lat="43.65043" lon="1.38066">
        <ele>153</ele>
        <time>2023-06-13T15:51:45Z</time>
      </trkpt>
      <trkpt lat="43.65044" lon="1.3807">
        <ele>153</ele>
        <time>2023-06-13T15:51:46Z</time>
      </trkpt>
      <trkpt lat="43.65045" lon="1.38072">
        <ele>153</ele>
        <time>2023-06-13T15:51:47Z</time>
      </trkpt>
      <trkpt lat="43.65046" lon="1.38074">
        <ele>153</ele>
        <time>2023-06-13T15:51:48Z</time>
      </trkpt>
      <trkpt lat="43.65047" lon="1.38076">
        <ele>153</ele>
        <time>2023-06-13T15:51:49Z</time>
      </trkpt>
      <trkpt lat="43.65048" lon="1.38077">
        <ele>153</ele>
        <time>2023-06-13T15:51:50Z</time>
      </trkpt>
      <trkpt lat="43.65049" lon="1.38079">
        <ele>152</ele>
        <time>2023-06-13T15:51:51Z</time>
      </trkpt>
      <trkpt lat="43.6505" lon="1.38081">
        <ele>152</ele>
        <time>2023-06-13T15:51:52Z</time>
      </trkpt>
      <trkpt lat="43.65051" lon="1.38083">
        <ele>152</ele>
        <time>2023-06-13T15:51:53Z</time>
      </trkpt>
      <trkpt lat="43.65052" lon="1.38086">
        <ele>152</ele>
        <time>2023-06-13T15:51:54Z</time>
      </trkpt>
      <trkpt lat="43.65054" lon="1.38088">
        <ele>152</ele>
        <time>2023-06-13T15:51:55Z</time>
      </trkpt>
      <trkpt lat="43.65055" lon="1.38091">
        <ele>153</ele>
        <time>2023-06-13T15:51:56Z</time>
      </trkpt>
      <trkpt lat="43.65056" lon="1.38093">
        <ele>153</ele>
        <time>2023-06-13T15:51:57Z</time>
      </trkpt>
      <trkpt lat="43.65057" lon="1.38095">
        <ele>153</ele>
        <time>2023-06-13T15:51:58Z</time>
      </trkpt>
      <trkpt lat="43.65057" lon="1.38097">
        <ele>153</ele>
        <time>2023-06-13T15:51:59Z</time>
      </trkpt>
      <trkpt lat="43.65058" lon="1.38098">
        <ele>154</ele>
        <time>2023-06-13T15:52:00Z</time>
      </trkpt>
      <trkpt lat="43.65059" lon="1.381">
        <ele>154</ele>
        <time>2023-06-13T15:52:01Z</time>
      </trkpt>
      <trkpt lat="43.65062" lon="1.38111">
        <ele>154</ele>
        <time>2023-06-13T15:52:02Z</time>
      </trkpt>
      <trkpt lat="43.65064" lon="1.38114">
        <ele>154</ele>
        <time>2023-06-13T15:52:03Z</time>
      </trkpt>
      <trkpt lat="43.65066" lon="1.38118">
        <ele>154</ele>
        <time>2023-06-13T15:52:04Z</time>
      </trkpt>
      <trkpt lat="43.65066" lon="1.38119">
        <ele>154</ele>
        <time>2023-06-13T15:52:05Z</time>
      </trkpt>
      <trkpt lat="43.65067" lon="1.3812">
        <ele>154</ele>
        <time>2023-06-13T15:52:06Z</time>
      </trkpt>
      <trkpt lat="43.65067" lon="1.38121">
        <ele>154</ele>
        <time>2023-06-13T15:52:07Z</time>
      </trkpt>
      <trkpt lat="43.65068" lon="1.38122">
        <ele>154</ele>
        <time>2023-06-13T15:52:08Z</time>
      </trkpt>
      <trkpt lat="43.65068" lon="1.38123">
        <ele>154</ele>
        <time>2023-06-13T15:52:09Z</time>
      </trkpt>
      <trkpt lat="43.65069" lon="1.38124">
        <ele>154</ele>
        <time>2023-06-13T15:52:10Z</time>
      </trkpt>
      <trkpt lat="43.65073" lon="1.3813">
        <ele>154</ele>
        <time>2023-06-13T15:52:11Z</time>
      </trkpt>
      <trkpt lat="43.65074" lon="1.3813">
        <ele>154</ele>
        <time>2023-06-13T15:52:12Z</time>
      </trkpt>
      <trkpt lat="43.65075" lon="1.3813">
        <ele>154</ele>
        <time>2023-06-13T15:52:13Z</time>
      </trkpt>
      <trkpt lat="43.65076" lon="1.3813">
        <ele>154</ele>
        <time>2023-06-13T15:52:14Z</time>
      </trkpt>
      <trkpt lat="43.65077" lon="1.3813">
        <ele>154</ele>
        <time>2023-06-13T15:52:15Z</time>
      </trkpt>
      <trkpt lat="43.65084" lon="1.38127">
        <ele>154</ele>
        <time>2023-06-13T15:52:16Z</time>
      </trkpt>
      <trkpt lat="43.65086" lon="1.38125">
        <ele>155</ele>
        <time>2023-06-13T15:52:17Z</time>
      </trkpt>
      <trkpt lat="43.65088" lon="1.38123">
        <ele>155</ele>
        <time>2023-06-13T15:52:18Z</time>
      </trkpt>
      <trkpt lat="43.6509" lon="1.3812">
        <ele>155</ele>
        <time>2023-06-13T15:52:19Z</time>
      </trkpt>
      <trkpt lat="43.65092" lon="1.38118">
        <ele>155</ele>
        <time>2023-06-13T15:52:20Z</time>
      </trkpt>
      <trkpt lat="43.65094" lon="1.38116">
        <ele>155</ele>
        <time>2023-06-13T15:52:21Z</time>
      </trkpt>
      <trkpt lat="43.65097" lon="1.38114">
        <ele>154</ele>
        <time>2023-06-13T15:52:22Z</time>
      </trkpt>
      <trkpt lat="43.65099" lon="1.38112">
        <ele>154</ele>
        <time>2023-06-13T15:52:23Z</time>
      </trkpt>
      <trkpt lat="43.65101" lon="1.38111">
        <ele>154</ele>
        <time>2023-06-13T15:52:24Z</time>
      </trkpt>
      <trkpt lat="43.65103" lon="1.3811">
        <ele>154</ele>
        <time>2023-06-13T15:52:25Z</time>
      </trkpt>
      <trkpt lat="43.65106" lon="1.38109">
        <ele>154</ele>
        <time>2023-06-13T15:52:26Z</time>
      </trkpt>
      <trkpt lat="43.65108" lon="1.38107">
        <ele>155</ele>
        <time>2023-06-13T15:52:27Z</time>
      </trkpt>
      <trkpt lat="43.6511" lon="1.38106">
        <ele>155</ele>
        <time>2023-06-13T15:52:28Z</time>
      </trkpt>
      <trkpt lat="43.65112" lon="1.38104">
        <ele>155</ele>
        <time>2023-06-13T15:52:29Z</time>
      </trkpt>
      <trkpt lat="43.65115" lon="1.38103">
        <ele>155</ele>
        <time>2023-06-13T15:52:30Z</time>
      </trkpt>
      <trkpt lat="43.65117" lon="1.38101">
        <ele>155</ele>
        <time>2023-06-13T15:52:31Z</time>
      </trkpt>
      <trkpt lat="43.65119" lon="1.381">
        <ele>154</ele>
        <time>2023-06-13T15:52:32Z</time>
      </trkpt>
      <trkpt lat="43.65121" lon="1.38098">
        <ele>154</ele>
        <time>2023-06-13T15:52:33Z</time>
      </trkpt>
      <trkpt lat="43.65124" lon="1.38096">
        <ele>154</ele>
        <time>2023-06-13T15:52:34Z</time>
      </trkpt>
      <trkpt lat="43.65126" lon="1.38095">
        <ele>155</ele>
        <time>2023-06-13T15:52:35Z</time>
      </trkpt>
      <trkpt lat="43.65127" lon="1.38094">
        <ele>155</ele>
        <time>2023-06-13T15:52:36Z</time>
      </trkpt>
      <trkpt lat="43.65129" lon="1.38094">
        <ele>155</ele>
        <time>2023-06-13T15:52:37Z</time>
      </trkpt>
      <trkpt lat="43.6513" lon="1.38094">
        <ele>155</ele>
        <time>2023-06-13T15:52:38Z</time>
      </trkpt>
      <trkpt lat="43.65131" lon="1.38093">
        <ele>156</ele>
        <time>2023-06-13T15:52:39Z</time>
      </trkpt>
      <trkpt lat="43.65139" lon="1.3809">
        <ele>156</ele>
        <time>2023-06-13T15:52:40Z</time>
      </trkpt>
      <trkpt lat="43.65141" lon="1.38088">
        <ele>156</ele>
        <time>2023-06-13T15:52:41Z</time>
      </trkpt>
      <trkpt lat="43.65143" lon="1.38087">
        <ele>156</ele>
        <time>2023-06-13T15:52:42Z</time>
      </trkpt>
      <trkpt lat="43.65146" lon="1.38085">
        <ele>156</ele>
        <time>2023-06-13T15:52:43Z</time>
      </trkpt>
      <trkpt lat="43.65148" lon="1.38083">
        <ele>155</ele>
        <time>2023-06-13T15:52:44Z</time>
      </trkpt>
      <trkpt lat="43.6515" lon="1.38082">
        <ele>155</ele>
        <time>2023-06-13T15:52:45Z</time>
      </trkpt>
      <trkpt lat="43.65152" lon="1.3808">
        <ele>155</ele>
        <time>2023-06-13T15:52:46Z</time>
      </trkpt>
      <trkpt lat="43.65154" lon="1.38079">
        <ele>155</ele>
        <time>2023-06-13T15:52:47Z</time>
      </trkpt>
      <trkpt lat="43.65156" lon="1.38078">
        <ele>155</ele>
        <time>2023-06-13T15:52:48Z</time>
      </trkpt>
      <trkpt lat="43.65158" lon="1.38076">
        <ele>155</ele>
        <time>2023-06-13T15:52:49Z</time>
      </trkpt>
      <trkpt lat="43.65161" lon="1.38075">
        <ele>155</ele>
        <time>2023-06-13T15:52:50Z</time>
      </trkpt>
      <trkpt lat="43.65163" lon="1.38074">
        <ele>155</ele>
        <time>2023-06-13T15:52:51Z</time>
      </trkpt>
      <trkpt lat="43.65165" lon="1.38072">
        <ele>155</ele>
        <time>2023-06-13T15:52:52Z</time>
      </trkpt>
      <trkpt lat="43.65167" lon="1.38071">
        <ele>155</ele>
        <time>2023-06-13T15:52:53Z</time>
      </trkpt>
      <trkpt lat="43.65169" lon="1.38069">
        <ele>155</ele>
        <time>2023-06-13T15:52:54Z</time>
      </trkpt>
      <trkpt lat="43.65171" lon="1.38068">
        <ele>155</ele>
        <time>2023-06-13T15:52:55Z</time>
      </trkpt>
      <trkpt lat="43.65173" lon="1.38066">
        <ele>154</ele>
        <time>2023-06-13T15:52:56Z</time>
      </trkpt>
      <trkpt lat="43.65175" lon="1.38064">
        <ele>155</ele>
        <time>2023-06-13T15:52:57Z</time>
      </trkpt>
      <trkpt lat="43.65178" lon="1.38062">
        <ele>155</ele>
        <time>2023-06-13T15:52:58Z</time>
      </trkpt>
      <trkpt lat="43.6518" lon="1.3806">
        <ele>155</ele>
        <time>2023-06-13T15:52:59Z</time>
      </trkpt>
      <trkpt lat="43.65182" lon="1.38059">
        <ele>155</ele>
        <time>2023-06-13T15:53:00Z</time>
      </trkpt>
      <trkpt lat="43.65185" lon="1.38058">
        <ele>155</ele>
        <time>2023-06-13T15:53:01Z</time>
      </trkpt>
      <trkpt lat="43.65187" lon="1.38057">
        <ele>155</ele>
        <time>2023-06-13T15:53:02Z</time>
      </trkpt>
      <trkpt lat="43.65189" lon="1.38055">
        <ele>155</ele>
        <time>2023-06-13T15:53:03Z</time>
      </trkpt>
      <trkpt lat="43.65192" lon="1.38054">
        <ele>156</ele>
        <time>2023-06-13T15:53:04Z</time>
      </trkpt>
      <trkpt lat="43.65194" lon="1.38053">
        <ele>156</ele>
        <time>2023-06-13T15:53:05Z</time>
      </trkpt>
      <trkpt lat="43.65196" lon="1.38052">
        <ele>156</ele>
        <time>2023-06-13T15:53:06Z</time>
      </trkpt>
      <trkpt lat="43.65198" lon="1.3805">
        <ele>155</ele>
        <time>2023-06-13T15:53:07Z</time>
      </trkpt>
      <trkpt lat="43.652" lon="1.38048">
        <ele>155</ele>
        <time>2023-06-13T15:53:08Z</time>
      </trkpt>
      <trkpt lat="43.65202" lon="1.38046">
        <ele>155</ele>
        <time>2023-06-13T15:53:09Z</time>
      </trkpt>
      <trkpt lat="43.65204" lon="1.38044">
        <ele>155</ele>
        <time>2023-06-13T15:53:10Z</time>
      </trkpt>
      <trkpt lat="43.65206" lon="1.38042">
        <ele>155</ele>
        <time>2023-06-13T15:53:11Z</time>
      </trkpt>
      <trkpt lat="43.65208" lon="1.3804">
        <ele>154</ele>
        <time>2023-06-13T15:53:12Z</time>
      </trkpt>
      <trkpt lat="43.6521" lon="1.38039">
        <ele>154</ele>
        <time>2023-06-13T15:53:13Z</time>
      </trkpt>
      <trkpt lat="43.65212" lon="1.38037">
        <ele>154</ele>
        <time>2023-06-13T15:53:14Z</time>
      </trkpt>
      <trkpt lat="43.65214" lon="1.38036">
        <ele>155</ele>
        <time>2023-06-13T15:53:15Z</time>
      </trkpt>
      <trkpt lat="43.65216" lon="1.38037">
        <ele>155</ele>
        <time>2023-06-13T15:53:16Z</time>
      </trkpt>
      <trkpt lat="43.65218" lon="1.38038">
        <ele>155</ele>
        <time>2023-06-13T15:53:17Z</time>
      </trkpt>
      <trkpt lat="43.65219" lon="1.38039">
        <ele>155</ele>
        <time>2023-06-13T15:53:18Z</time>
      </trkpt>
      <trkpt lat="43.65221" lon="1.3804">
        <ele>155</ele>
        <time>2023-06-13T15:53:19Z</time>
      </trkpt>
      <trkpt lat="43.65223" lon="1.38041">
        <ele>155</ele>
        <time>2023-06-13T15:53:20Z</time>
      </trkpt>
      <trkpt lat="43.65224" lon="1.38042">
        <ele>155</ele>
        <time>2023-06-13T15:53:21Z</time>
      </trkpt>
      <trkpt lat="43.65226" lon="1.38045">
        <ele>155</ele>
        <time>2023-06-13T15:53:22Z</time>
      </trkpt>
      <trkpt lat="43.65227" lon="1.38048">
        <ele>155</ele>
        <time>2023-06-13T15:53:23Z</time>
      </trkpt>
      <trkpt lat="43.65228" lon="1.38052">
        <ele>155</ele>
        <time>2023-06-13T15:53:24Z</time>
      </trkpt>
      <trkpt lat="43.65229" lon="1.38055">
        <ele>155</ele>
        <time>2023-06-13T15:53:25Z</time>
      </trkpt>
      <trkpt lat="43.6523" lon="1.38058">
        <ele>155</ele>
        <time>2023-06-13T15:53:26Z</time>
      </trkpt>
      <trkpt lat="43.65231" lon="1.38062">
        <ele>155</ele>
        <time>2023-06-13T15:53:27Z</time>
      </trkpt>
      <trkpt lat="43.65232" lon="1.38065">
        <ele>155</ele>
        <time>2023-06-13T15:53:28Z</time>
      </trkpt>
      <trkpt lat="43.65233" lon="1.38069">
        <ele>155</ele>
        <time>2023-06-13T15:53:29Z</time>
      </trkpt>
      <trkpt lat="43.65234" lon="1.38072">
        <ele>155</ele>
        <time>2023-06-13T15:53:30Z</time>
      </trkpt>
      <trkpt lat="43.65236" lon="1.38076">
        <ele>155</ele>
        <time>2023-06-13T15:53:31Z</time>
      </trkpt>
      <trkpt lat="43.65237" lon="1.3808">
        <ele>155</ele>
        <time>2023-06-13T15:53:32Z</time>
      </trkpt>
      <trkpt lat="43.65238" lon="1.38084">
        <ele>155</ele>
        <time>2023-06-13T15:53:33Z</time>
      </trkpt>
      <trkpt lat="43.65239" lon="1.38088">
        <ele>155</ele>
        <time>2023-06-13T15:53:34Z</time>
      </trkpt>
      <trkpt lat="43.65239" lon="1.38092">
        <ele>154</ele>
        <time>2023-06-13T15:53:35Z</time>
      </trkpt>
      <trkpt lat="43.6524" lon="1.38096">
        <ele>154</ele>
        <time>2023-06-13T15:53:36Z</time>
      </trkpt>
      <trkpt lat="43.65242" lon="1.38099">
        <ele>154</ele>
        <time>2023-06-13T15:53:37Z</time>
      </trkpt>
      <trkpt lat="43.65244" lon="1.38103">
        <ele>154</ele>
        <time>2023-06-13T15:53:38Z</time>
      </trkpt>
      <trkpt lat="43.65246" lon="1.38106">
        <ele>154</ele>
        <time>2023-06-13T15:53:39Z</time>
      </trkpt>
      <trkpt lat="43.65247" lon="1.3811">
        <ele>154</ele>
        <time>2023-06-13T15:53:40Z</time>
      </trkpt>
      <trkpt lat="43.65248" lon="1.38114">
        <ele>154</ele>
        <time>2023-06-13T15:53:41Z</time>
      </trkpt>
      <trkpt lat="43.65249" lon="1.38117">
        <ele>154</ele>
        <time>2023-06-13T15:53:42Z</time>
      </trkpt>
      <trkpt lat="43.65249" lon="1.38121">
        <ele>154</ele>
        <time>2023-06-13T15:53:43Z</time>
      </trkpt>
      <trkpt lat="43.6525" lon="1.38125">
        <ele>154</ele>
        <time>2023-06-13T15:53:44Z</time>
      </trkpt>
      <trkpt lat="43.65249" lon="1.38133">
        <ele>154</ele>
        <time>2023-06-13T15:53:46Z</time>
      </trkpt>
      <trkpt lat="43.65249" lon="1.38133">
        <ele>154</ele>
        <time>2023-06-13T15:53:47Z</time>
      </trkpt>
      <trkpt lat="43.65247" lon="1.38137">
        <ele>154</ele>
        <time>2023-06-13T15:53:48Z</time>
      </trkpt>
      <trkpt lat="43.65246" lon="1.38141">
        <ele>154</ele>
        <time>2023-06-13T15:53:49Z</time>
      </trkpt>
      <trkpt lat="43.65244" lon="1.38145">
        <ele>154</ele>
        <time>2023-06-13T15:53:50Z</time>
      </trkpt>
      <trkpt lat="43.65241" lon="1.38145">
        <ele>155</ele>
        <time>2023-06-13T15:53:51Z</time>
      </trkpt>
      <trkpt lat="43.65237" lon="1.38145">
        <ele>155</ele>
        <time>2023-06-13T15:53:52Z</time>
      </trkpt>
      <trkpt lat="43.65234" lon="1.38145">
        <ele>155</ele>
        <time>2023-06-13T15:53:53Z</time>
      </trkpt>
      <trkpt lat="43.65232" lon="1.38146">
        <ele>155</ele>
        <time>2023-06-13T15:53:54Z</time>
      </trkpt>
      <trkpt lat="43.65229" lon="1.38147">
        <ele>154</ele>
        <time>2023-06-13T15:53:55Z</time>
      </trkpt>
      <trkpt lat="43.65226" lon="1.38148">
        <ele>154</ele>
        <time>2023-06-13T15:53:56Z</time>
      </trkpt>
      <trkpt lat="43.65223" lon="1.38149">
        <ele>154</ele>
        <time>2023-06-13T15:53:57Z</time>
      </trkpt>
      <trkpt lat="43.65222" lon="1.3815">
        <ele>154</ele>
        <time>2023-06-13T15:53:58Z</time>
      </trkpt>
      <trkpt lat="43.65221" lon="1.38151">
        <ele>154</ele>
        <time>2023-06-13T15:53:59Z</time>
      </trkpt>
      <trkpt lat="43.65219" lon="1.38152">
        <ele>154</ele>
        <time>2023-06-13T15:54:00Z</time>
      </trkpt>
      <trkpt lat="43.65218" lon="1.38152">
        <ele>154</ele>
        <time>2023-06-13T15:54:01Z</time>
      </trkpt>
      <trkpt lat="43.65211" lon="1.38157">
        <ele>154</ele>
        <time>2023-06-13T15:54:02Z</time>
      </trkpt>
      <trkpt lat="43.65209" lon="1.38159">
        <ele>154</ele>
        <time>2023-06-13T15:54:03Z</time>
      </trkpt>
      <trkpt lat="43.65207" lon="1.3816">
        <ele>154</ele>
        <time>2023-06-13T15:54:04Z</time>
      </trkpt>
      <trkpt lat="43.65205" lon="1.38162">
        <ele>154</ele>
        <time>2023-06-13T15:54:05Z</time>
      </trkpt>
      <trkpt lat="43.65204" lon="1.38163">
        <ele>154</ele>
        <time>2023-06-13T15:54:06Z</time>
      </trkpt>
      <trkpt lat="43.65202" lon="1.38164">
        <ele>154</ele>
        <time>2023-06-13T15:54:07Z</time>
      </trkpt>
      <trkpt lat="43.65201" lon="1.38165">
        <ele>154</ele>
        <time>2023-06-13T15:54:08Z</time>
      </trkpt>
      <trkpt lat="43.652" lon="1.38166">
        <ele>154</ele>
        <time>2023-06-13T15:54:09Z</time>
      </trkpt>
      <trkpt lat="43.65194" lon="1.38172">
        <ele>154</ele>
        <time>2023-06-13T15:54:10Z</time>
      </trkpt>
      <trkpt lat="43.65192" lon="1.38175">
        <ele>154</ele>
        <time>2023-06-13T15:54:11Z</time>
      </trkpt>
      <trkpt lat="43.6519" lon="1.38177">
        <ele>154</ele>
        <time>2023-06-13T15:54:12Z</time>
      </trkpt>
      <trkpt lat="43.65188" lon="1.38179">
        <ele>154</ele>
        <time>2023-06-13T15:54:13Z</time>
      </trkpt>
      <trkpt lat="43.65186" lon="1.38181">
        <ele>154</ele>
        <time>2023-06-13T15:54:14Z</time>
      </trkpt>
      <trkpt lat="43.65184" lon="1.38183">
        <ele>154</ele>
        <time>2023-06-13T15:54:15Z</time>
      </trkpt>
      <trkpt lat="43.65182" lon="1.38186">
        <ele>154</ele>
        <time>2023-06-13T15:54:16Z</time>
      </trkpt>
      <trkpt lat="43.6518" lon="1.38188">
        <ele>154</ele>
        <time>2023-06-13T15:54:17Z</time>
      </trkpt>
      <trkpt lat="43.65178" lon="1.3819">
        <ele>154</ele>
        <time>2023-06-13T15:54:18Z</time>
      </trkpt>
      <trkpt lat="43.65176" lon="1.38192">
        <ele>154</ele>
        <time>2023-06-13T15:54:19Z</time>
      </trkpt>
      <trkpt lat="43.65174" lon="1.38194">
        <ele>154</ele>
        <time>2023-06-13T15:54:20Z</time>
      </trkpt>
      <trkpt lat="43.65172" lon="1.38195">
        <ele>154</ele>
        <time>2023-06-13T15:54:21Z</time>
      </trkpt>
      <trkpt lat="43.65171" lon="1.38199">
        <ele>154</ele>
        <time>2023-06-13T15:54:22Z</time>
      </trkpt>
      <trkpt lat="43.6517" lon="1.38202">
        <ele>154</ele>
        <time>2023-06-13T15:54:23Z</time>
      </trkpt>
      <trkpt lat="43.65169" lon="1.38206">
        <ele>154</ele>
        <time>2023-06-13T15:54:24Z</time>
      </trkpt>
      <trkpt lat="43.65169" lon="1.38209">
        <ele>154</ele>
        <time>2023-06-13T15:54:25Z</time>
      </trkpt>
      <trkpt lat="43.65168" lon="1.38212">
        <ele>153</ele>
        <time>2023-06-13T15:54:26Z</time>
      </trkpt>
      <trkpt lat="43.65168" lon="1.38216">
        <ele>153</ele>
        <time>2023-06-13T15:54:27Z</time>
      </trkpt>
      <trkpt lat="43.65168" lon="1.38219">
        <ele>153</ele>
        <time>2023-06-13T15:54:28Z</time>
      </trkpt>
      <trkpt lat="43.65168" lon="1.38223">
        <ele>153</ele>
        <time>2023-06-13T15:54:29Z</time>
      </trkpt>
      <trkpt lat="43.65169" lon="1.38226">
        <ele>153</ele>
        <time>2023-06-13T15:54:30Z</time>
      </trkpt>
      <trkpt lat="43.65169" lon="1.3823">
        <ele>153</ele>
        <time>2023-06-13T15:54:31Z</time>
      </trkpt>
      <trkpt lat="43.6517" lon="1.38234">
        <ele>153</ele>
        <time>2023-06-13T15:54:32Z</time>
      </trkpt>
      <trkpt lat="43.6517" lon="1.38237">
        <ele>153</ele>
        <time>2023-06-13T15:54:33Z</time>
      </trkpt>
      <trkpt lat="43.6517" lon="1.38241">
        <ele>153</ele>
        <time>2023-06-13T15:54:34Z</time>
      </trkpt>
      <trkpt lat="43.65171" lon="1.38244">
        <ele>153</ele>
        <time>2023-06-13T15:54:35Z</time>
      </trkpt>
      <trkpt lat="43.65171" lon="1.38247">
        <ele>153</ele>
        <time>2023-06-13T15:54:36Z</time>
      </trkpt>
      <trkpt lat="43.65171" lon="1.3825">
        <ele>153</ele>
        <time>2023-06-13T15:54:37Z</time>
      </trkpt>
      <trkpt lat="43.65172" lon="1.38253">
        <ele>153</ele>
        <time>2023-06-13T15:54:38Z</time>
      </trkpt>
      <trkpt lat="43.65173" lon="1.38257">
        <ele>153</ele>
        <time>2023-06-13T15:54:39Z</time>
      </trkpt>
      <trkpt lat="43.65173" lon="1.3826">
        <ele>153</ele>
        <time>2023-06-13T15:54:40Z</time>
      </trkpt>
      <trkpt lat="43.65174" lon="1.38263">
        <ele>153</ele>
        <time>2023-06-13T15:54:41Z</time>
      </trkpt>
      <trkpt lat="43.65174" lon="1.38267">
        <ele>153</ele>
        <time>2023-06-13T15:54:42Z</time>
      </trkpt>
      <trkpt lat="43.65175" lon="1.3827">
        <ele>153</ele>
        <time>2023-06-13T15:54:43Z</time>
      </trkpt>
      <trkpt lat="43.65176" lon="1.38273">
        <ele>152</ele>
        <time>2023-06-13T15:54:44Z</time>
      </trkpt>
      <trkpt lat="43.65176" lon="1.38277">
        <ele>152</ele>
        <time>2023-06-13T15:54:45Z</time>
      </trkpt>
      <trkpt lat="43.65177" lon="1.3828">
        <ele>152</ele>
        <time>2023-06-13T15:54:46Z</time>
      </trkpt>
      <trkpt lat="43.65178" lon="1.38283">
        <ele>152</ele>
        <time>2023-06-13T15:54:47Z</time>
      </trkpt>
      <trkpt lat="43.65179" lon="1.38286">
        <ele>152</ele>
        <time>2023-06-13T15:54:48Z</time>
      </trkpt>
      <trkpt lat="43.65179" lon="1.38289">
        <ele>152</ele>
        <time>2023-06-13T15:54:49Z</time>
      </trkpt>
      <trkpt lat="43.6518" lon="1.38292">
        <ele>152</ele>
        <time>2023-06-13T15:54:50Z</time>
      </trkpt>
      <trkpt lat="43.65181" lon="1.38296">
        <ele>152</ele>
        <time>2023-06-13T15:54:51Z</time>
      </trkpt>
      <trkpt lat="43.65181" lon="1.38299">
        <ele>152</ele>
        <time>2023-06-13T15:54:52Z</time>
      </trkpt>
      <trkpt lat="43.65182" lon="1.38303">
        <ele>152</ele>
        <time>2023-06-13T15:54:53Z</time>
      </trkpt>
      <trkpt lat="43.65183" lon="1.38306">
        <ele>152</ele>
        <time>2023-06-13T15:54:54Z</time>
      </trkpt>
      <trkpt lat="43.65184" lon="1.3831">
        <ele>152</ele>
        <time>2023-06-13T15:54:55Z</time>
      </trkpt>
      <trkpt lat="43.65184" lon="1.38313">
        <ele>152</ele>
        <time>2023-06-13T15:54:56Z</time>
      </trkpt>
      <trkpt lat="43.65185" lon="1.38317">
        <ele>152</ele>
        <time>2023-06-13T15:54:57Z</time>
      </trkpt>
      <trkpt lat="43.65185" lon="1.3832">
        <ele>152</ele>
        <time>2023-06-13T15:54:58Z</time>
      </trkpt>
      <trkpt lat="43.65186" lon="1.38324">
        <ele>152</ele>
        <time>2023-06-13T15:54:59Z</time>
      </trkpt>
      <trkpt lat="43.65187" lon="1.38329">
        <ele>152</ele>
        <time>2023-06-13T15:55:00Z</time>
      </trkpt>
      <trkpt lat="43.65187" lon="1.38333">
        <ele>152</ele>
        <time>2023-06-13T15:55:01Z</time>
      </trkpt>
      <trkpt lat="43.65188" lon="1.38337">
        <ele>152</ele>
        <time>2023-06-13T15:55:02Z</time>
      </trkpt>
      <trkpt lat="43.65189" lon="1.3834">
        <ele>152</ele>
        <time>2023-06-13T15:55:03Z</time>
      </trkpt>
      <trkpt lat="43.65189" lon="1.38344">
        <ele>152</ele>
        <time>2023-06-13T15:55:04Z</time>
      </trkpt>
      <trkpt lat="43.65189" lon="1.38347">
        <ele>152</ele>
        <time>2023-06-13T15:55:05Z</time>
      </trkpt>
      <trkpt lat="43.65189" lon="1.38351">
        <ele>152</ele>
        <time>2023-06-13T15:55:06Z</time>
      </trkpt>
      <trkpt lat="43.6519" lon="1.38354">
        <ele>152</ele>
        <time>2023-06-13T15:55:07Z</time>
      </trkpt>
      <trkpt lat="43.65191" lon="1.38358">
        <ele>152</ele>
        <time>2023-06-13T15:55:08Z</time>
      </trkpt>
      <trkpt lat="43.65191" lon="1.38361">
        <ele>153</ele>
        <time>2023-06-13T15:55:09Z</time>
      </trkpt>
      <trkpt lat="43.65192" lon="1.38365">
        <ele>153</ele>
        <time>2023-06-13T15:55:10Z</time>
      </trkpt>
      <trkpt lat="43.65192" lon="1.38368">
        <ele>154</ele>
        <time>2023-06-13T15:55:11Z</time>
      </trkpt>
      <trkpt lat="43.65193" lon="1.38372">
        <ele>154</ele>
        <time>2023-06-13T15:55:12Z</time>
      </trkpt>
      <trkpt lat="43.65193" lon="1.38375">
        <ele>154</ele>
        <time>2023-06-13T15:55:13Z</time>
      </trkpt>
      <trkpt lat="43.65193" lon="1.38379">
        <ele>154</ele>
        <time>2023-06-13T15:55:14Z</time>
      </trkpt>
      <trkpt lat="43.65194" lon="1.38382">
        <ele>154</ele>
        <time>2023-06-13T15:55:15Z</time>
      </trkpt>
      <trkpt lat="43.65195" lon="1.38385">
        <ele>154</ele>
        <time>2023-06-13T15:55:16Z</time>
      </trkpt>
      <trkpt lat="43.65195" lon="1.38389">
        <ele>153</ele>
        <time>2023-06-13T15:55:17Z</time>
      </trkpt>
      <trkpt lat="43.65196" lon="1.38392">
        <ele>153</ele>
        <time>2023-06-13T15:55:18Z</time>
      </trkpt>
      <trkpt lat="43.65197" lon="1.38394">
        <ele>153</ele>
        <time>2023-06-13T15:55:19Z</time>
      </trkpt>
      <trkpt lat="43.65197" lon="1.38395">
        <ele>152</ele>
        <time>2023-06-13T15:55:20Z</time>
      </trkpt>
      <trkpt lat="43.65198" lon="1.38396">
        <ele>152</ele>
        <time>2023-06-13T15:55:21Z</time>
      </trkpt>
      <trkpt lat="43.65199" lon="1.38397">
        <ele>152</ele>
        <time>2023-06-13T15:55:22Z</time>
      </trkpt>
      <trkpt lat="43.652" lon="1.38398">
        <ele>152</ele>
        <time>2023-06-13T15:55:23Z</time>
      </trkpt>
      <trkpt lat="43.65205" lon="1.38407">
        <ele>152</ele>
        <time>2023-06-13T15:55:24Z</time>
      </trkpt>
      <trkpt lat="43.65207" lon="1.3841">
        <ele>152</ele>
        <time>2023-06-13T15:55:25Z</time>
      </trkpt>
      <trkpt lat="43.65208" lon="1.38412">
        <ele>152</ele>
        <time>2023-06-13T15:55:26Z</time>
      </trkpt>
      <trkpt lat="43.6521" lon="1.38415">
        <ele>151</ele>
        <time>2023-06-13T15:55:27Z</time>
      </trkpt>
      <trkpt lat="43.65211" lon="1.38417">
        <ele>151</ele>
        <time>2023-06-13T15:55:28Z</time>
      </trkpt>
      <trkpt lat="43.65213" lon="1.3842">
        <ele>151</ele>
        <time>2023-06-13T15:55:29Z</time>
      </trkpt>
      <trkpt lat="43.65214" lon="1.38422">
        <ele>151</ele>
        <time>2023-06-13T15:55:30Z</time>
      </trkpt>
      <trkpt lat="43.65215" lon="1.38425">
        <ele>151</ele>
        <time>2023-06-13T15:55:31Z</time>
      </trkpt>
      <trkpt lat="43.65216" lon="1.38427">
        <ele>151</ele>
        <time>2023-06-13T15:55:32Z</time>
      </trkpt>
      <trkpt lat="43.65217" lon="1.3843">
        <ele>151</ele>
        <time>2023-06-13T15:55:33Z</time>
      </trkpt>
      <trkpt lat="43.65218" lon="1.38433">
        <ele>151</ele>
        <time>2023-06-13T15:55:34Z</time>
      </trkpt>
      <trkpt lat="43.65219" lon="1.38435">
        <ele>151</ele>
        <time>2023-06-13T15:55:35Z</time>
      </trkpt>
      <trkpt lat="43.65219" lon="1.38438">
        <ele>151</ele>
        <time>2023-06-13T15:55:36Z</time>
      </trkpt>
      <trkpt lat="43.6522" lon="1.38441">
        <ele>151</ele>
        <time>2023-06-13T15:55:37Z</time>
      </trkpt>
      <trkpt lat="43.65221" lon="1.38444">
        <ele>150</ele>
        <time>2023-06-13T15:55:38Z</time>
      </trkpt>
      <trkpt lat="43.65222" lon="1.38446">
        <ele>150</ele>
        <time>2023-06-13T15:55:39Z</time>
      </trkpt>
      <trkpt lat="43.65223" lon="1.38449">
        <ele>150</ele>
        <time>2023-06-13T15:55:40Z</time>
      </trkpt>
      <trkpt lat="43.65224" lon="1.38452">
        <ele>150</ele>
        <time>2023-06-13T15:55:41Z</time>
      </trkpt>
      <trkpt lat="43.65226" lon="1.38455">
        <ele>150</ele>
        <time>2023-06-13T15:55:42Z</time>
      </trkpt>
      <trkpt lat="43.65227" lon="1.38458">
        <ele>150</ele>
        <time>2023-06-13T15:55:43Z</time>
      </trkpt>
      <trkpt lat="43.65228" lon="1.38461">
        <ele>150</ele>
        <time>2023-06-13T15:55:44Z</time>
      </trkpt>
      <trkpt lat="43.65229" lon="1.38465">
        <ele>150</ele>
        <time>2023-06-13T15:55:45Z</time>
      </trkpt>
      <trkpt lat="43.6523" lon="1.38468">
        <ele>150</ele>
        <time>2023-06-13T15:55:46Z</time>
      </trkpt>
      <trkpt lat="43.6523" lon="1.38472">
        <ele>149</ele>
        <time>2023-06-13T15:55:47Z</time>
      </trkpt>
      <trkpt lat="43.65231" lon="1.38475">
        <ele>150</ele>
        <time>2023-06-13T15:55:48Z</time>
      </trkpt>
      <trkpt lat="43.65232" lon="1.38479">
        <ele>150</ele>
        <time>2023-06-13T15:55:49Z</time>
      </trkpt>
      <trkpt lat="43.65233" lon="1.38482">
        <ele>150</ele>
        <time>2023-06-13T15:55:50Z</time>
      </trkpt>
      <trkpt lat="43.65234" lon="1.38486">
        <ele>150</ele>
        <time>2023-06-13T15:55:51Z</time>
      </trkpt>
      <trkpt lat="43.65234" lon="1.38489">
        <ele>150</ele>
        <time>2023-06-13T15:55:52Z</time>
      </trkpt>
      <trkpt lat="43.65235" lon="1.38492">
        <ele>150</ele>
        <time>2023-06-13T15:55:53Z</time>
      </trkpt>
      <trkpt lat="43.65236" lon="1.38495">
        <ele>150</ele>
        <time>2023-06-13T15:55:54Z</time>
      </trkpt>
      <trkpt lat="43.65237" lon="1.38497">
        <ele>150</ele>
        <time>2023-06-13T15:55:55Z</time>
      </trkpt>
      <trkpt lat="43.65238" lon="1.385">
        <ele>150</ele>
        <time>2023-06-13T15:55:56Z</time>
      </trkpt>
      <trkpt lat="43.65239" lon="1.38503">
        <ele>150</ele>
        <time>2023-06-13T15:55:57Z</time>
      </trkpt>
      <trkpt lat="43.65239" lon="1.38505">
        <ele>150</ele>
        <time>2023-06-13T15:55:58Z</time>
      </trkpt>
      <trkpt lat="43.65239" lon="1.38507">
        <ele>150</ele>
        <time>2023-06-13T15:55:59Z</time>
      </trkpt>
      <trkpt lat="43.6524" lon="1.38509">
        <ele>150</ele>
        <time>2023-06-13T15:56:00Z</time>
      </trkpt>
      <trkpt lat="43.6524" lon="1.38511">
        <ele>150</ele>
        <time>2023-06-13T15:56:01Z</time>
      </trkpt>
      <trkpt lat="43.65242" lon="1.38522">
        <ele>150</ele>
        <time>2023-06-13T15:56:02Z</time>
      </trkpt>
      <trkpt lat="43.65242" lon="1.38525">
        <ele>150</ele>
        <time>2023-06-13T15:56:03Z</time>
      </trkpt>
      <trkpt lat="43.65243" lon="1.38528">
        <ele>149</ele>
        <time>2023-06-13T15:56:04Z</time>
      </trkpt>
      <trkpt lat="43.65243" lon="1.38532">
        <ele>149</ele>
        <time>2023-06-13T15:56:05Z</time>
      </trkpt>
      <trkpt lat="43.65245" lon="1.38535">
        <ele>149</ele>
        <time>2023-06-13T15:56:06Z</time>
      </trkpt>
      <trkpt lat="43.65246" lon="1.38538">
        <ele>149</ele>
        <time>2023-06-13T15:56:07Z</time>
      </trkpt>
      <trkpt lat="43.65247" lon="1.38541">
        <ele>149</ele>
        <time>2023-06-13T15:56:08Z</time>
      </trkpt>
      <trkpt lat="43.65248" lon="1.38544">
        <ele>150</ele>
        <time>2023-06-13T15:56:09Z</time>
      </trkpt>
      <trkpt lat="43.65249" lon="1.38547">
        <ele>150</ele>
        <time>2023-06-13T15:56:10Z</time>
      </trkpt>
      <trkpt lat="43.6525" lon="1.38551">
        <ele>150</ele>
        <time>2023-06-13T15:56:11Z</time>
      </trkpt>
      <trkpt lat="43.65251" lon="1.38554">
        <ele>150</ele>
        <time>2023-06-13T15:56:12Z</time>
      </trkpt>
      <trkpt lat="43.65252" lon="1.38557">
        <ele>150</ele>
        <time>2023-06-13T15:56:13Z</time>
      </trkpt>
      <trkpt lat="43.65252" lon="1.3856">
        <ele>149</ele>
        <time>2023-06-13T15:56:14Z</time>
      </trkpt>
      <trkpt lat="43.65253" lon="1.38564">
        <ele>149</ele>
        <time>2023-06-13T15:56:15Z</time>
      </trkpt>
      <trkpt lat="43.65254" lon="1.38567">
        <ele>149</ele>
        <time>2023-06-13T15:56:16Z</time>
      </trkpt>
      <trkpt lat="43.65254" lon="1.38571">
        <ele>149</ele>
        <time>2023-06-13T15:56:17Z</time>
      </trkpt>
      <trkpt lat="43.65255" lon="1.38574">
        <ele>149</ele>
        <time>2023-06-13T15:56:18Z</time>
      </trkpt>
      <trkpt lat="43.65256" lon="1.38576">
        <ele>149</ele>
        <time>2023-06-13T15:56:19Z</time>
      </trkpt>
      <trkpt lat="43.65257" lon="1.38579">
        <ele>149</ele>
        <time>2023-06-13T15:56:20Z</time>
      </trkpt>
      <trkpt lat="43.65258" lon="1.38582">
        <ele>149</ele>
        <time>2023-06-13T15:56:21Z</time>
      </trkpt>
      <trkpt lat="43.65259" lon="1.38585">
        <ele>150</ele>
        <time>2023-06-13T15:56:22Z</time>
      </trkpt>
      <trkpt lat="43.6526" lon="1.38588">
        <ele>150</ele>
        <time>2023-06-13T15:56:23Z</time>
      </trkpt>
      <trkpt lat="43.65261" lon="1.38592">
        <ele>149</ele>
        <time>2023-06-13T15:56:24Z</time>
      </trkpt>
      <trkpt lat="43.65263" lon="1.38595">
        <ele>149</ele>
        <time>2023-06-13T15:56:25Z</time>
      </trkpt>
      <trkpt lat="43.65264" lon="1.38598">
        <ele>149</ele>
        <time>2023-06-13T15:56:26Z</time>
      </trkpt>
      <trkpt lat="43.65265" lon="1.38601">
        <ele>149</ele>
        <time>2023-06-13T15:56:27Z</time>
      </trkpt>
      <trkpt lat="43.65266" lon="1.38603">
        <ele>150</ele>
        <time>2023-06-13T15:56:28Z</time>
      </trkpt>
      <trkpt lat="43.65267" lon="1.38605">
        <ele>150</ele>
        <time>2023-06-13T15:56:29Z</time>
      </trkpt>
      <trkpt lat="43.65268" lon="1.38607">
        <ele>150</ele>
        <time>2023-06-13T15:56:30Z</time>
      </trkpt>
      <trkpt lat="43.65269" lon="1.38609">
        <ele>150</ele>
        <time>2023-06-13T15:56:31Z</time>
      </trkpt>
      <trkpt lat="43.65271" lon="1.38612">
        <ele>150</ele>
        <time>2023-06-13T15:56:32Z</time>
      </trkpt>
      <trkpt lat="43.65272" lon="1.38614">
        <ele>150</ele>
        <time>2023-06-13T15:56:33Z</time>
      </trkpt>
      <trkpt lat="43.65274" lon="1.38617">
        <ele>150</ele>
        <time>2023-06-13T15:56:34Z</time>
      </trkpt>
      <trkpt lat="43.65275" lon="1.38619">
        <ele>150</ele>
        <time>2023-06-13T15:56:35Z</time>
      </trkpt>
      <trkpt lat="43.65277" lon="1.38622">
        <ele>150</ele>
        <time>2023-06-13T15:56:36Z</time>
      </trkpt>
      <trkpt lat="43.65278" lon="1.38625">
        <ele>150</ele>
        <time>2023-06-13T15:56:37Z</time>
      </trkpt>
      <trkpt lat="43.6528" lon="1.38629">
        <ele>150</ele>
        <time>2023-06-13T15:56:38Z</time>
      </trkpt>
      <trkpt lat="43.65282" lon="1.38633">
        <ele>150</ele>
        <time>2023-06-13T15:56:39Z</time>
      </trkpt>
      <trkpt lat="43.65284" lon="1.38637">
        <ele>150</ele>
        <time>2023-06-13T15:56:40Z</time>
      </trkpt>
      <trkpt lat="43.65285" lon="1.38641">
        <ele>150</ele>
        <time>2023-06-13T15:56:41Z</time>
      </trkpt>
      <trkpt lat="43.65287" lon="1.38644">
        <ele>150</ele>
        <time>2023-06-13T15:56:42Z</time>
      </trkpt>
      <trkpt lat="43.65288" lon="1.38649">
        <ele>150</ele>
        <time>2023-06-13T15:56:43Z</time>
      </trkpt>
      <trkpt lat="43.65289" lon="1.38653">
        <ele>150</ele>
        <time>2023-06-13T15:56:44Z</time>
      </trkpt>
      <trkpt lat="43.65291" lon="1.38658">
        <ele>150</ele>
        <time>2023-06-13T15:56:45Z</time>
      </trkpt>
      <trkpt lat="43.65291" lon="1.3866">
        <ele>150</ele>
        <time>2023-06-13T15:56:46Z</time>
      </trkpt>
      <trkpt lat="43.65292" lon="1.38661">
        <ele>150</ele>
        <time>2023-06-13T15:56:47Z</time>
      </trkpt>
      <trkpt lat="43.65293" lon="1.38663">
        <ele>150</ele>
        <time>2023-06-13T15:56:48Z</time>
      </trkpt>
      <trkpt lat="43.65293" lon="1.38665">
        <ele>150</ele>
        <time>2023-06-13T15:56:49Z</time>
      </trkpt>
      <trkpt lat="43.65297" lon="1.38675">
        <ele>150</ele>
        <time>2023-06-13T15:56:50Z</time>
      </trkpt>
      <trkpt lat="43.65299" lon="1.38678">
        <ele>149</ele>
        <time>2023-06-13T15:56:51Z</time>
      </trkpt>
      <trkpt lat="43.653" lon="1.38681">
        <ele>149</ele>
        <time>2023-06-13T15:56:52Z</time>
      </trkpt>
      <trkpt lat="43.65301" lon="1.38684">
        <ele>149</ele>
        <time>2023-06-13T15:56:53Z</time>
      </trkpt>
      <trkpt lat="43.65302" lon="1.38688">
        <ele>149</ele>
        <time>2023-06-13T15:56:54Z</time>
      </trkpt>
      <trkpt lat="43.65303" lon="1.38691">
        <ele>149</ele>
        <time>2023-06-13T15:56:55Z</time>
      </trkpt>
      <trkpt lat="43.65304" lon="1.38694">
        <ele>149</ele>
        <time>2023-06-13T15:56:56Z</time>
      </trkpt>
      <trkpt lat="43.65305" lon="1.38698">
        <ele>149</ele>
        <time>2023-06-13T15:56:57Z</time>
      </trkpt>
      <trkpt lat="43.65306" lon="1.387">
        <ele>150</ele>
        <time>2023-06-13T15:56:58Z</time>
      </trkpt>
      <trkpt lat="43.65306" lon="1.38701">
        <ele>149</ele>
        <time>2023-06-13T15:56:59Z</time>
      </trkpt>
      <trkpt lat="43.65307" lon="1.38703">
        <ele>150</ele>
        <time>2023-06-13T15:57:00Z</time>
      </trkpt>
      <trkpt lat="43.65307" lon="1.38705">
        <ele>150</ele>
        <time>2023-06-13T15:57:01Z</time>
      </trkpt>
      <trkpt lat="43.65311" lon="1.38715">
        <ele>150</ele>
        <time>2023-06-13T15:57:02Z</time>
      </trkpt>
      <trkpt lat="43.65312" lon="1.38718">
        <ele>150</ele>
        <time>2023-06-13T15:57:03Z</time>
      </trkpt>
      <trkpt lat="43.65313" lon="1.38722">
        <ele>150</ele>
        <time>2023-06-13T15:57:04Z</time>
      </trkpt>
      <trkpt lat="43.65314" lon="1.38726">
        <ele>150</ele>
        <time>2023-06-13T15:57:05Z</time>
      </trkpt>
      <trkpt lat="43.65314" lon="1.38729">
        <ele>150</ele>
        <time>2023-06-13T15:57:06Z</time>
      </trkpt>
      <trkpt lat="43.65315" lon="1.38732">
        <ele>151</ele>
        <time>2023-06-13T15:57:07Z</time>
      </trkpt>
      <trkpt lat="43.65315" lon="1.38735">
        <ele>151</ele>
        <time>2023-06-13T15:57:08Z</time>
      </trkpt>
      <trkpt lat="43.65316" lon="1.38738">
        <ele>151</ele>
        <time>2023-06-13T15:57:09Z</time>
      </trkpt>
      <trkpt lat="43.65316" lon="1.38741">
        <ele>151</ele>
        <time>2023-06-13T15:57:10Z</time>
      </trkpt>
      <trkpt lat="43.65317" lon="1.38744">
        <ele>151</ele>
        <time>2023-06-13T15:57:11Z</time>
      </trkpt>
      <trkpt lat="43.65317" lon="1.38747">
        <ele>151</ele>
        <time>2023-06-13T15:57:12Z</time>
      </trkpt>
      <trkpt lat="43.65318" lon="1.38751">
        <ele>151</ele>
        <time>2023-06-13T15:57:13Z</time>
      </trkpt>
      <trkpt lat="43.65319" lon="1.38755">
        <ele>151</ele>
        <time>2023-06-13T15:57:14Z</time>
      </trkpt>
      <trkpt lat="43.6532" lon="1.38759">
        <ele>151</ele>
        <time>2023-06-13T15:57:15Z</time>
      </trkpt>
      <trkpt lat="43.6532" lon="1.38763">
        <ele>151</ele>
        <time>2023-06-13T15:57:16Z</time>
      </trkpt>
      <trkpt lat="43.65321" lon="1.38767">
        <ele>151</ele>
        <time>2023-06-13T15:57:17Z</time>
      </trkpt>
      <trkpt lat="43.65322" lon="1.3877">
        <ele>151</ele>
        <time>2023-06-13T15:57:18Z</time>
      </trkpt>
      <trkpt lat="43.65323" lon="1.38774">
        <ele>152</ele>
        <time>2023-06-13T15:57:19Z</time>
      </trkpt>
      <trkpt lat="43.65323" lon="1.38777">
        <ele>152</ele>
        <time>2023-06-13T15:57:20Z</time>
      </trkpt>
      <trkpt lat="43.65324" lon="1.38779">
        <ele>152</ele>
        <time>2023-06-13T15:57:21Z</time>
      </trkpt>
      <trkpt lat="43.65325" lon="1.38781">
        <ele>152</ele>
        <time>2023-06-13T15:57:22Z</time>
      </trkpt>
      <trkpt lat="43.65325" lon="1.38782">
        <ele>152</ele>
        <time>2023-06-13T15:57:23Z</time>
      </trkpt>
      <trkpt lat="43.65326" lon="1.38784">
        <ele>152</ele>
        <time>2023-06-13T15:57:24Z</time>
      </trkpt>
      <trkpt lat="43.6533" lon="1.38794">
        <ele>152</ele>
        <time>2023-06-13T15:57:25Z</time>
      </trkpt>
      <trkpt lat="43.65331" lon="1.38797">
        <ele>152</ele>
        <time>2023-06-13T15:57:26Z</time>
      </trkpt>
      <trkpt lat="43.65332" lon="1.388">
        <ele>152</ele>
        <time>2023-06-13T15:57:27Z</time>
      </trkpt>
      <trkpt lat="43.65334" lon="1.38803">
        <ele>152</ele>
        <time>2023-06-13T15:57:28Z</time>
      </trkpt>
      <trkpt lat="43.65336" lon="1.38805">
        <ele>152</ele>
        <time>2023-06-13T15:57:29Z</time>
      </trkpt>
      <trkpt lat="43.65337" lon="1.38808">
        <ele>152</ele>
        <time>2023-06-13T15:57:30Z</time>
      </trkpt>
      <trkpt lat="43.65339" lon="1.38811">
        <ele>152</ele>
        <time>2023-06-13T15:57:31Z</time>
      </trkpt>
      <trkpt lat="43.65341" lon="1.38813">
        <ele>152</ele>
        <time>2023-06-13T15:57:32Z</time>
      </trkpt>
      <trkpt lat="43.65342" lon="1.38815">
        <ele>152</ele>
        <time>2023-06-13T15:57:33Z</time>
      </trkpt>
      <trkpt lat="43.65343" lon="1.38816">
        <ele>152</ele>
        <time>2023-06-13T15:57:34Z</time>
      </trkpt>
      <trkpt lat="43.65344" lon="1.38818">
        <ele>152</ele>
        <time>2023-06-13T15:57:35Z</time>
      </trkpt>
      <trkpt lat="43.65344" lon="1.38819">
        <ele>152</ele>
        <time>2023-06-13T15:57:36Z</time>
      </trkpt>
      <trkpt lat="43.65349" lon="1.38826">
        <ele>152</ele>
        <time>2023-06-13T15:57:37Z</time>
      </trkpt>
      <trkpt lat="43.6535" lon="1.38827">
        <ele>152</ele>
        <time>2023-06-13T15:57:38Z</time>
      </trkpt>
      <trkpt lat="43.65351" lon="1.38829">
        <ele>151</ele>
        <time>2023-06-13T15:57:39Z</time>
      </trkpt>
      <trkpt lat="43.65352" lon="1.3883">
        <ele>151</ele>
        <time>2023-06-13T15:57:40Z</time>
      </trkpt>
      <trkpt lat="43.6536" lon="1.38835">
        <ele>151</ele>
        <time>2023-06-13T15:57:41Z</time>
      </trkpt>
      <trkpt lat="43.65362" lon="1.38837">
        <ele>151</ele>
        <time>2023-06-13T15:57:42Z</time>
      </trkpt>
      <trkpt lat="43.65365" lon="1.38839">
        <ele>151</ele>
        <time>2023-06-13T15:57:43Z</time>
      </trkpt>
      <trkpt lat="43.65368" lon="1.38841">
        <ele>151</ele>
        <time>2023-06-13T15:57:44Z</time>
      </trkpt>
      <trkpt lat="43.6537" lon="1.38843">
        <ele>151</ele>
        <time>2023-06-13T15:57:45Z</time>
      </trkpt>
      <trkpt lat="43.65372" lon="1.38844">
        <ele>151</ele>
        <time>2023-06-13T15:57:46Z</time>
      </trkpt>
      <trkpt lat="43.65375" lon="1.38846">
        <ele>150</ele>
        <time>2023-06-13T15:57:47Z</time>
      </trkpt>
      <trkpt lat="43.65377" lon="1.38848">
        <ele>150</ele>
        <time>2023-06-13T15:57:48Z</time>
      </trkpt>
      <trkpt lat="43.65379" lon="1.38849">
        <ele>150</ele>
        <time>2023-06-13T15:57:49Z</time>
      </trkpt>
      <trkpt lat="43.6538" lon="1.38849">
        <ele>149</ele>
        <time>2023-06-13T15:57:50Z</time>
      </trkpt>
      <trkpt lat="43.65382" lon="1.38849">
        <ele>149</ele>
        <time>2023-06-13T15:57:51Z</time>
      </trkpt>
      <trkpt lat="43.65384" lon="1.3885">
        <ele>149</ele>
        <time>2023-06-13T15:57:52Z</time>
      </trkpt>
      <trkpt lat="43.65385" lon="1.3885">
        <ele>149</ele>
        <time>2023-06-13T15:57:53Z</time>
      </trkpt>
      <trkpt lat="43.65387" lon="1.38851">
        <ele>150</ele>
        <time>2023-06-13T15:57:54Z</time>
      </trkpt>
      <trkpt lat="43.6539" lon="1.3885">
        <ele>150</ele>
        <time>2023-06-13T15:57:55Z</time>
      </trkpt>
      <trkpt lat="43.65392" lon="1.38849">
        <ele>150</ele>
        <time>2023-06-13T15:57:56Z</time>
      </trkpt>
      <trkpt lat="43.65394" lon="1.38849">
        <ele>150</ele>
        <time>2023-06-13T15:57:57Z</time>
      </trkpt>
      <trkpt lat="43.65397" lon="1.38848">
        <ele>150</ele>
        <time>2023-06-13T15:57:58Z</time>
      </trkpt>
      <trkpt lat="43.65398" lon="1.38848">
        <ele>151</ele>
        <time>2023-06-13T15:57:59Z</time>
      </trkpt>
      <trkpt lat="43.65399" lon="1.38849">
        <ele>151</ele>
        <time>2023-06-13T15:58:00Z</time>
      </trkpt>
      <trkpt lat="43.65401" lon="1.3885">
        <ele>150</ele>
        <time>2023-06-13T15:58:01Z</time>
      </trkpt>
      <trkpt lat="43.65402" lon="1.3885">
        <ele>149</ele>
        <time>2023-06-13T15:58:02Z</time>
      </trkpt>
      <trkpt lat="43.65409" lon="1.38856">
        <ele>149</ele>
        <time>2023-06-13T15:58:03Z</time>
      </trkpt>
      <trkpt lat="43.65411" lon="1.38859">
        <ele>149</ele>
        <time>2023-06-13T15:58:04Z</time>
      </trkpt>
      <trkpt lat="43.65413" lon="1.38863">
        <ele>148</ele>
        <time>2023-06-13T15:58:05Z</time>
      </trkpt>
      <trkpt lat="43.65415" lon="1.38867">
        <ele>148</ele>
        <time>2023-06-13T15:58:06Z</time>
      </trkpt>
      <trkpt lat="43.65417" lon="1.38871">
        <ele>148</ele>
        <time>2023-06-13T15:58:07Z</time>
      </trkpt>
      <trkpt lat="43.65419" lon="1.38875">
        <ele>148</ele>
        <time>2023-06-13T15:58:08Z</time>
      </trkpt>
      <trkpt lat="43.65419" lon="1.38875">
        <ele>148</ele>
        <time>2023-06-13T15:58:09Z</time>
      </trkpt>
      <trkpt lat="43.65422" lon="1.38887">
        <ele>148</ele>
        <time>2023-06-13T15:58:10Z</time>
      </trkpt>
      <trkpt lat="43.65422" lon="1.38887">
        <ele>148</ele>
        <time>2023-06-13T15:58:12Z</time>
      </trkpt>
      <trkpt lat="43.65424" lon="1.38892">
        <ele>147</ele>
        <time>2023-06-13T15:58:13Z</time>
      </trkpt>
      <trkpt lat="43.65426" lon="1.38897">
        <ele>147</ele>
        <time>2023-06-13T15:58:14Z</time>
      </trkpt>
      <trkpt lat="43.65428" lon="1.38901">
        <ele>147</ele>
        <time>2023-06-13T15:58:15Z</time>
      </trkpt>
      <trkpt lat="43.6543" lon="1.38904">
        <ele>147</ele>
        <time>2023-06-13T15:58:16Z</time>
      </trkpt>
      <trkpt lat="43.65432" lon="1.38907">
        <ele>147</ele>
        <time>2023-06-13T15:58:17Z</time>
      </trkpt>
      <trkpt lat="43.65434" lon="1.38911">
        <ele>147</ele>
        <time>2023-06-13T15:58:18Z</time>
      </trkpt>
      <trkpt lat="43.65435" lon="1.38912">
        <ele>147</ele>
        <time>2023-06-13T15:58:19Z</time>
      </trkpt>
      <trkpt lat="43.65436" lon="1.38914">
        <ele>146</ele>
        <time>2023-06-13T15:58:20Z</time>
      </trkpt>
      <trkpt lat="43.65437" lon="1.38916">
        <ele>145</ele>
        <time>2023-06-13T15:58:21Z</time>
      </trkpt>
      <trkpt lat="43.65438" lon="1.38917">
        <ele>144</ele>
        <time>2023-06-13T15:58:22Z</time>
      </trkpt>
      <trkpt lat="43.6544" lon="1.38919">
        <ele>144</ele>
        <time>2023-06-13T15:58:23Z</time>
      </trkpt>
      <trkpt lat="43.65441" lon="1.38921">
        <ele>144</ele>
        <time>2023-06-13T15:58:24Z</time>
      </trkpt>
      <trkpt lat="43.65442" lon="1.38923">
        <ele>142</ele>
        <time>2023-06-13T15:58:25Z</time>
      </trkpt>
      <trkpt lat="43.65444" lon="1.38926">
        <ele>141</ele>
        <time>2023-06-13T15:58:26Z</time>
      </trkpt>
      <trkpt lat="43.65445" lon="1.38928">
        <ele>141</ele>
        <time>2023-06-13T15:58:27Z</time>
      </trkpt>
      <trkpt lat="43.65447" lon="1.38931">
        <ele>141</ele>
        <time>2023-06-13T15:58:28Z</time>
      </trkpt>
      <trkpt lat="43.65448" lon="1.38933">
        <ele>141</ele>
        <time>2023-06-13T15:58:29Z</time>
      </trkpt>
      <trkpt lat="43.65449" lon="1.38936">
        <ele>141</ele>
        <time>2023-06-13T15:58:30Z</time>
      </trkpt>
      <trkpt lat="43.6545" lon="1.38939">
        <ele>140</ele>
        <time>2023-06-13T15:58:31Z</time>
      </trkpt>
      <trkpt lat="43.65451" lon="1.38942">
        <ele>140</ele>
        <time>2023-06-13T15:58:32Z</time>
      </trkpt>
      <trkpt lat="43.65451" lon="1.38945">
        <ele>140</ele>
        <time>2023-06-13T15:58:33Z</time>
      </trkpt>
      <trkpt lat="43.65452" lon="1.38949">
        <ele>139</ele>
        <time>2023-06-13T15:58:34Z</time>
      </trkpt>
      <trkpt lat="43.65453" lon="1.38952">
        <ele>139</ele>
        <time>2023-06-13T15:58:35Z</time>
      </trkpt>
      <trkpt lat="43.65453" lon="1.38955">
        <ele>138</ele>
        <time>2023-06-13T15:58:36Z</time>
      </trkpt>
      <trkpt lat="43.65454" lon="1.38957">
        <ele>138</ele>
        <time>2023-06-13T15:58:37Z</time>
      </trkpt>
      <trkpt lat="43.65454" lon="1.38959">
        <ele>138</ele>
        <time>2023-06-13T15:58:38Z</time>
      </trkpt>
      <trkpt lat="43.65455" lon="1.38961">
        <ele>138</ele>
        <time>2023-06-13T15:58:39Z</time>
      </trkpt>
      <trkpt lat="43.65456" lon="1.38962">
        <ele>138</ele>
        <time>2023-06-13T15:58:40Z</time>
      </trkpt>
      <trkpt lat="43.65459" lon="1.38971">
        <ele>138</ele>
        <time>2023-06-13T15:58:41Z</time>
      </trkpt>
      <trkpt lat="43.6546" lon="1.38973">
        <ele>138</ele>
        <time>2023-06-13T15:58:42Z</time>
      </trkpt>
      <trkpt lat="43.65461" lon="1.38974">
        <ele>138</ele>
        <time>2023-06-13T15:58:43Z</time>
      </trkpt>
      <trkpt lat="43.65462" lon="1.38976">
        <ele>138</ele>
        <time>2023-06-13T15:58:44Z</time>
      </trkpt>
      <trkpt lat="43.65468" lon="1.38985">
        <ele>138</ele>
        <time>2023-06-13T15:58:45Z</time>
      </trkpt>
      <trkpt lat="43.65471" lon="1.38988">
        <ele>138</ele>
        <time>2023-06-13T15:58:46Z</time>
      </trkpt>
      <trkpt lat="43.65474" lon="1.38991">
        <ele>138</ele>
        <time>2023-06-13T15:58:47Z</time>
      </trkpt>
      <trkpt lat="43.65476" lon="1.38993">
        <ele>138</ele>
        <time>2023-06-13T15:58:48Z</time>
      </trkpt>
      <trkpt lat="43.65478" lon="1.38995">
        <ele>138</ele>
        <time>2023-06-13T15:58:49Z</time>
      </trkpt>
      <trkpt lat="43.6548" lon="1.38997">
        <ele>138</ele>
        <time>2023-06-13T15:58:50Z</time>
      </trkpt>
      <trkpt lat="43.65483" lon="1.39">
        <ele>138</ele>
        <time>2023-06-13T15:58:51Z</time>
      </trkpt>
      <trkpt lat="43.65485" lon="1.39002">
        <ele>138</ele>
        <time>2023-06-13T15:58:52Z</time>
      </trkpt>
      <trkpt lat="43.65488" lon="1.39003">
        <ele>138</ele>
        <time>2023-06-13T15:58:53Z</time>
      </trkpt>
      <trkpt lat="43.6549" lon="1.39005">
        <ele>138</ele>
        <time>2023-06-13T15:58:54Z</time>
      </trkpt>
      <trkpt lat="43.65492" lon="1.39007">
        <ele>138</ele>
        <time>2023-06-13T15:58:55Z</time>
      </trkpt>
      <trkpt lat="43.65496" lon="1.39009">
        <ele>138</ele>
        <time>2023-06-13T15:58:56Z</time>
      </trkpt>
      <trkpt lat="43.655" lon="1.39011">
        <ele>137</ele>
        <time>2023-06-13T15:58:57Z</time>
      </trkpt>
      <trkpt lat="43.65504" lon="1.39013">
        <ele>137</ele>
        <time>2023-06-13T15:58:58Z</time>
      </trkpt>
      <trkpt lat="43.65506" lon="1.39013">
        <ele>137</ele>
        <time>2023-06-13T15:58:59Z</time>
      </trkpt>
      <trkpt lat="43.65508" lon="1.39015">
        <ele>137</ele>
        <time>2023-06-13T15:59:00Z</time>
      </trkpt>
      <trkpt lat="43.65511" lon="1.39017">
        <ele>137</ele>
        <time>2023-06-13T15:59:01Z</time>
      </trkpt>
      <trkpt lat="43.65513" lon="1.39019">
        <ele>136</ele>
        <time>2023-06-13T15:59:02Z</time>
      </trkpt>
      <trkpt lat="43.65516" lon="1.3902">
        <ele>136</ele>
        <time>2023-06-13T15:59:03Z</time>
      </trkpt>
      <trkpt lat="43.65519" lon="1.39022">
        <ele>136</ele>
        <time>2023-06-13T15:59:04Z</time>
      </trkpt>
      <trkpt lat="43.65522" lon="1.39024">
        <ele>136</ele>
        <time>2023-06-13T15:59:05Z</time>
      </trkpt>
      <trkpt lat="43.65525" lon="1.39025">
        <ele>136</ele>
        <time>2023-06-13T15:59:06Z</time>
      </trkpt>
      <trkpt lat="43.65533" lon="1.39029">
        <ele>137</ele>
        <time>2023-06-13T15:59:07Z</time>
      </trkpt>
      <trkpt lat="43.65535" lon="1.3903">
        <ele>137</ele>
        <time>2023-06-13T15:59:08Z</time>
      </trkpt>
      <trkpt lat="43.65538" lon="1.39031">
        <ele>137</ele>
        <time>2023-06-13T15:59:09Z</time>
      </trkpt>
      <trkpt lat="43.65538" lon="1.39031">
        <ele>137</ele>
        <time>2023-06-13T15:59:10Z</time>
      </trkpt>
      <trkpt lat="43.65541" lon="1.39033">
        <ele>136</ele>
        <time>2023-06-13T15:59:11Z</time>
      </trkpt>
      <trkpt lat="43.65544" lon="1.39035">
        <ele>136</ele>
        <time>2023-06-13T15:59:12Z</time>
      </trkpt>
      <trkpt lat="43.65547" lon="1.39037">
        <ele>136</ele>
        <time>2023-06-13T15:59:13Z</time>
      </trkpt>
      <trkpt lat="43.6555" lon="1.39039">
        <ele>136</ele>
        <time>2023-06-13T15:59:14Z</time>
      </trkpt>
      <trkpt lat="43.65553" lon="1.39041">
        <ele>136</ele>
        <time>2023-06-13T15:59:15Z</time>
      </trkpt>
      <trkpt lat="43.65555" lon="1.39042">
        <ele>136</ele>
        <time>2023-06-13T15:59:16Z</time>
      </trkpt>
      <trkpt lat="43.65555" lon="1.39042">
        <ele>137</ele>
        <time>2023-06-13T15:59:17Z</time>
      </trkpt>
      <trkpt lat="43.65559" lon="1.39046">
        <ele>137</ele>
        <time>2023-06-13T15:59:18Z</time>
      </trkpt>
      <trkpt lat="43.65562" lon="1.39048">
        <ele>136</ele>
        <time>2023-06-13T15:59:19Z</time>
      </trkpt>
      <trkpt lat="43.65564" lon="1.39049">
        <ele>136</ele>
        <time>2023-06-13T15:59:20Z</time>
      </trkpt>
      <trkpt lat="43.65567" lon="1.39051">
        <ele>136</ele>
        <time>2023-06-13T15:59:21Z</time>
      </trkpt>
      <trkpt lat="43.65567" lon="1.39051">
        <ele>136</ele>
        <time>2023-06-13T15:59:22Z</time>
      </trkpt>
      <trkpt lat="43.65569" lon="1.39053">
        <ele>136</ele>
        <time>2023-06-13T15:59:23Z</time>
      </trkpt>
      <trkpt lat="43.65573" lon="1.39056">
        <ele>136</ele>
        <time>2023-06-13T15:59:24Z</time>
      </trkpt>
      <trkpt lat="43.65577" lon="1.39059">
        <ele>136</ele>
        <time>2023-06-13T15:59:25Z</time>
      </trkpt>
      <trkpt lat="43.65579" lon="1.39061">
        <ele>136</ele>
        <time>2023-06-13T15:59:26Z</time>
      </trkpt>
      <trkpt lat="43.65582" lon="1.39062">
        <ele>136</ele>
        <time>2023-06-13T15:59:27Z</time>
      </trkpt>
      <trkpt lat="43.65584" lon="1.39064">
        <ele>136</ele>
        <time>2023-06-13T15:59:28Z</time>
      </trkpt>
      <trkpt lat="43.65584" lon="1.39064">
        <ele>136</ele>
        <time>2023-06-13T15:59:29Z</time>
      </trkpt>
      <trkpt lat="43.6559" lon="1.39067">
        <ele>136</ele>
        <time>2023-06-13T15:59:30Z</time>
      </trkpt>
      <trkpt lat="43.65593" lon="1.39069">
        <ele>136</ele>
        <time>2023-06-13T15:59:31Z</time>
      </trkpt>
      <trkpt lat="43.65595" lon="1.3907">
        <ele>136</ele>
        <time>2023-06-13T15:59:32Z</time>
      </trkpt>
      <trkpt lat="43.65598" lon="1.39072">
        <ele>136</ele>
        <time>2023-06-13T15:59:33Z</time>
      </trkpt>
      <trkpt lat="43.65598" lon="1.39072">
        <ele>136</ele>
        <time>2023-06-13T15:59:34Z</time>
      </trkpt>
      <trkpt lat="43.65603" lon="1.39075">
        <ele>136</ele>
        <time>2023-06-13T15:59:35Z</time>
      </trkpt>
      <trkpt lat="43.65606" lon="1.39076">
        <ele>136</ele>
        <time>2023-06-13T15:59:36Z</time>
      </trkpt>
      <trkpt lat="43.65609" lon="1.39078">
        <ele>136</ele>
        <time>2023-06-13T15:59:37Z</time>
      </trkpt>
      <trkpt lat="43.6561" lon="1.3908">
        <ele>136</ele>
        <time>2023-06-13T15:59:38Z</time>
      </trkpt>
      <trkpt lat="43.65612" lon="1.39082">
        <ele>136</ele>
        <time>2023-06-13T15:59:39Z</time>
      </trkpt>
      <trkpt lat="43.65614" lon="1.39084">
        <ele>136</ele>
        <time>2023-06-13T15:59:40Z</time>
      </trkpt>
      <trkpt lat="43.65617" lon="1.39085">
        <ele>136</ele>
        <time>2023-06-13T15:59:41Z</time>
      </trkpt>
      <trkpt lat="43.65619" lon="1.39086">
        <ele>136</ele>
        <time>2023-06-13T15:59:42Z</time>
      </trkpt>
      <trkpt lat="43.65622" lon="1.39088">
        <ele>136</ele>
        <time>2023-06-13T15:59:43Z</time>
      </trkpt>
      <trkpt lat="43.65624" lon="1.39089">
        <ele>136</ele>
        <time>2023-06-13T15:59:44Z</time>
      </trkpt>
      <trkpt lat="43.65627" lon="1.3909">
        <ele>136</ele>
        <time>2023-06-13T15:59:45Z</time>
      </trkpt>
      <trkpt lat="43.6563" lon="1.39092">
        <ele>135</ele>
        <time>2023-06-13T15:59:46Z</time>
      </trkpt>
      <trkpt lat="43.65632" lon="1.39093">
        <ele>135</ele>
        <time>2023-06-13T15:59:47Z</time>
      </trkpt>
      <trkpt lat="43.65632" lon="1.39093">
        <ele>135</ele>
        <time>2023-06-13T15:59:48Z</time>
      </trkpt>
      <trkpt lat="43.65636" lon="1.39095">
        <ele>135</ele>
        <time>2023-06-13T15:59:49Z</time>
      </trkpt>
      <trkpt lat="43.65638" lon="1.39096">
        <ele>135</ele>
        <time>2023-06-13T15:59:50Z</time>
      </trkpt>
      <trkpt lat="43.6564" lon="1.39097">
        <ele>136</ele>
        <time>2023-06-13T15:59:51Z</time>
      </trkpt>
      <trkpt lat="43.65642" lon="1.39099">
        <ele>136</ele>
        <time>2023-06-13T15:59:52Z</time>
      </trkpt>
      <trkpt lat="43.65644" lon="1.391">
        <ele>136</ele>
        <time>2023-06-13T15:59:53Z</time>
      </trkpt>
      <trkpt lat="43.65647" lon="1.39101">
        <ele>136</ele>
        <time>2023-06-13T15:59:54Z</time>
      </trkpt>
      <trkpt lat="43.65649" lon="1.39103">
        <ele>136</ele>
        <time>2023-06-13T15:59:55Z</time>
      </trkpt>
      <trkpt lat="43.6565" lon="1.39104">
        <ele>136</ele>
        <time>2023-06-13T15:59:56Z</time>
      </trkpt>
      <trkpt lat="43.65653" lon="1.39106">
        <ele>135</ele>
        <time>2023-06-13T15:59:57Z</time>
      </trkpt>
      <trkpt lat="43.65653" lon="1.39106">
        <ele>135</ele>
        <time>2023-06-13T15:59:58Z</time>
      </trkpt>
      <trkpt lat="43.65654" lon="1.39107">
        <ele>135</ele>
        <time>2023-06-13T15:59:59Z</time>
      </trkpt>
      <trkpt lat="43.65658" lon="1.3911">
        <ele>135</ele>
        <time>2023-06-13T16:00:00Z</time>
      </trkpt>
      <trkpt lat="43.65658" lon="1.3911">
        <ele>135</ele>
        <time>2023-06-13T16:00:01Z</time>
      </trkpt>
      <trkpt lat="43.65662" lon="1.39112">
        <ele>135</ele>
        <time>2023-06-13T16:00:02Z</time>
      </trkpt>
      <trkpt lat="43.65665" lon="1.39114">
        <ele>135</ele>
        <time>2023-06-13T16:00:03Z</time>
      </trkpt>
      <trkpt lat="43.65669" lon="1.39116">
        <ele>135</ele>
        <time>2023-06-13T16:00:04Z</time>
      </trkpt>
      <trkpt lat="43.65672" lon="1.39117">
        <ele>135</ele>
        <time>2023-06-13T16:00:05Z</time>
      </trkpt>
      <trkpt lat="43.65674" lon="1.39119">
        <ele>135</ele>
        <time>2023-06-13T16:00:06Z</time>
      </trkpt>
      <trkpt lat="43.65674" lon="1.39119">
        <ele>135</ele>
        <time>2023-06-13T16:00:07Z</time>
      </trkpt>
      <trkpt lat="43.65678" lon="1.39122">
        <ele>135</ele>
        <time>2023-06-13T16:00:08Z</time>
      </trkpt>
      <trkpt lat="43.65681" lon="1.39123">
        <ele>136</ele>
        <time>2023-06-13T16:00:09Z</time>
      </trkpt>
      <trkpt lat="43.65685" lon="1.39124">
        <ele>136</ele>
        <time>2023-06-13T16:00:10Z</time>
      </trkpt>
      <trkpt lat="43.65688" lon="1.39127">
        <ele>135</ele>
        <time>2023-06-13T16:00:11Z</time>
      </trkpt>
      <trkpt lat="43.65688" lon="1.39127">
        <ele>135</ele>
        <time>2023-06-13T16:00:12Z</time>
      </trkpt>
      <trkpt lat="43.65694" lon="1.39131">
        <ele>135</ele>
        <time>2023-06-13T16:00:13Z</time>
      </trkpt>
      <trkpt lat="43.65694" lon="1.39131">
        <ele>135</ele>
        <time>2023-06-13T16:00:14Z</time>
      </trkpt>
      <trkpt lat="43.65696" lon="1.39132">
        <ele>135</ele>
        <time>2023-06-13T16:00:15Z</time>
      </trkpt>
      <trkpt lat="43.65699" lon="1.39134">
        <ele>135</ele>
        <time>2023-06-13T16:00:16Z</time>
      </trkpt>
      <trkpt lat="43.65701" lon="1.39136">
        <ele>135</ele>
        <time>2023-06-13T16:00:17Z</time>
      </trkpt>
      <trkpt lat="43.65703" lon="1.39137">
        <ele>135</ele>
        <time>2023-06-13T16:00:18Z</time>
      </trkpt>
      <trkpt lat="43.65705" lon="1.39139">
        <ele>135</ele>
        <time>2023-06-13T16:00:19Z</time>
      </trkpt>
      <trkpt lat="43.65707" lon="1.3914">
        <ele>135</ele>
        <time>2023-06-13T16:00:20Z</time>
      </trkpt>
      <trkpt lat="43.65709" lon="1.39142">
        <ele>135</ele>
        <time>2023-06-13T16:00:21Z</time>
      </trkpt>
      <trkpt lat="43.65711" lon="1.39143">
        <ele>136</ele>
        <time>2023-06-13T16:00:22Z</time>
      </trkpt>
      <trkpt lat="43.65713" lon="1.39145">
        <ele>136</ele>
        <time>2023-06-13T16:00:23Z</time>
      </trkpt>
      <trkpt lat="43.65715" lon="1.39146">
        <ele>135</ele>
        <time>2023-06-13T16:00:24Z</time>
      </trkpt>
      <trkpt lat="43.65717" lon="1.39147">
        <ele>135</ele>
        <time>2023-06-13T16:00:25Z</time>
      </trkpt>
      <trkpt lat="43.65719" lon="1.39148">
        <ele>135</ele>
        <time>2023-06-13T16:00:26Z</time>
      </trkpt>
      <trkpt lat="43.6572" lon="1.39149">
        <ele>135</ele>
        <time>2023-06-13T16:00:27Z</time>
      </trkpt>
      <trkpt lat="43.65722" lon="1.3915">
        <ele>135</ele>
        <time>2023-06-13T16:00:28Z</time>
      </trkpt>
      <trkpt lat="43.65724" lon="1.39153">
        <ele>135</ele>
        <time>2023-06-13T16:00:29Z</time>
      </trkpt>
      <trkpt lat="43.65726" lon="1.39155">
        <ele>135</ele>
        <time>2023-06-13T16:00:30Z</time>
      </trkpt>
      <trkpt lat="43.65728" lon="1.39157">
        <ele>135</ele>
        <time>2023-06-13T16:00:31Z</time>
      </trkpt>
      <trkpt lat="43.6573" lon="1.39159">
        <ele>135</ele>
        <time>2023-06-13T16:00:32Z</time>
      </trkpt>
      <trkpt lat="43.65733" lon="1.39162">
        <ele>135</ele>
        <time>2023-06-13T16:00:33Z</time>
      </trkpt>
      <trkpt lat="43.65736" lon="1.39165">
        <ele>135</ele>
        <time>2023-06-13T16:00:34Z</time>
      </trkpt>
      <trkpt lat="43.65739" lon="1.39168">
        <ele>135</ele>
        <time>2023-06-13T16:00:35Z</time>
      </trkpt>
      <trkpt lat="43.65741" lon="1.39169">
        <ele>135</ele>
        <time>2023-06-13T16:00:36Z</time>
      </trkpt>
      <trkpt lat="43.65743" lon="1.39171">
        <ele>136</ele>
        <time>2023-06-13T16:00:37Z</time>
      </trkpt>
      <trkpt lat="43.65746" lon="1.39172">
        <ele>136</ele>
        <time>2023-06-13T16:00:38Z</time>
      </trkpt>
      <trkpt lat="43.65748" lon="1.39174">
        <ele>136</ele>
        <time>2023-06-13T16:00:39Z</time>
      </trkpt>
      <trkpt lat="43.6575" lon="1.39175">
        <ele>136</ele>
        <time>2023-06-13T16:00:40Z</time>
      </trkpt>
      <trkpt lat="43.65753" lon="1.39177">
        <ele>136</ele>
        <time>2023-06-13T16:00:41Z</time>
      </trkpt>
      <trkpt lat="43.65755" lon="1.39178">
        <ele>136</ele>
        <time>2023-06-13T16:00:42Z</time>
      </trkpt>
      <trkpt lat="43.65757" lon="1.3918">
        <ele>136</ele>
        <time>2023-06-13T16:00:43Z</time>
      </trkpt>
      <trkpt lat="43.65759" lon="1.39181">
        <ele>136</ele>
        <time>2023-06-13T16:00:44Z</time>
      </trkpt>
      <trkpt lat="43.65761" lon="1.39182">
        <ele>136</ele>
        <time>2023-06-13T16:00:45Z</time>
      </trkpt>
      <trkpt lat="43.65763" lon="1.39184">
        <ele>136</ele>
        <time>2023-06-13T16:00:46Z</time>
      </trkpt>
      <trkpt lat="43.65765" lon="1.39185">
        <ele>136</ele>
        <time>2023-06-13T16:00:47Z</time>
      </trkpt>
      <trkpt lat="43.65768" lon="1.39187">
        <ele>136</ele>
        <time>2023-06-13T16:00:48Z</time>
      </trkpt>
      <trkpt lat="43.6577" lon="1.3919">
        <ele>136</ele>
        <time>2023-06-13T16:00:49Z</time>
      </trkpt>
      <trkpt lat="43.65772" lon="1.39193">
        <ele>136</ele>
        <time>2023-06-13T16:00:50Z</time>
      </trkpt>
      <trkpt lat="43.65774" lon="1.39195">
        <ele>136</ele>
        <time>2023-06-13T16:00:51Z</time>
      </trkpt>
      <trkpt lat="43.65776" lon="1.39198">
        <ele>136</ele>
        <time>2023-06-13T16:00:52Z</time>
      </trkpt>
      <trkpt lat="43.65778" lon="1.39201">
        <ele>136</ele>
        <time>2023-06-13T16:00:53Z</time>
      </trkpt>
      <trkpt lat="43.6578" lon="1.39205">
        <ele>137</ele>
        <time>2023-06-13T16:00:54Z</time>
      </trkpt>
      <trkpt lat="43.65782" lon="1.39208">
        <ele>137</ele>
        <time>2023-06-13T16:00:55Z</time>
      </trkpt>
      <trkpt lat="43.65784" lon="1.39208">
        <ele>136</ele>
        <time>2023-06-13T16:00:56Z</time>
      </trkpt>
      <trkpt lat="43.65786" lon="1.39208">
        <ele>136</ele>
        <time>2023-06-13T16:00:57Z</time>
      </trkpt>
      <trkpt lat="43.65789" lon="1.39209">
        <ele>136</ele>
        <time>2023-06-13T16:00:58Z</time>
      </trkpt>
      <trkpt lat="43.65791" lon="1.39209">
        <ele>136</ele>
        <time>2023-06-13T16:00:59Z</time>
      </trkpt>
      <trkpt lat="43.65794" lon="1.39209">
        <ele>135</ele>
        <time>2023-06-13T16:01:00Z</time>
      </trkpt>
      <trkpt lat="43.65797" lon="1.39211">
        <ele>135</ele>
        <time>2023-06-13T16:01:01Z</time>
      </trkpt>
      <trkpt lat="43.658" lon="1.39212">
        <ele>135</ele>
        <time>2023-06-13T16:01:02Z</time>
      </trkpt>
      <trkpt lat="43.65803" lon="1.39213">
        <ele>135</ele>
        <time>2023-06-13T16:01:03Z</time>
      </trkpt>
      <trkpt lat="43.65806" lon="1.39214">
        <ele>135</ele>
        <time>2023-06-13T16:01:04Z</time>
      </trkpt>
      <trkpt lat="43.65809" lon="1.39216">
        <ele>135</ele>
        <time>2023-06-13T16:01:05Z</time>
      </trkpt>
      <trkpt lat="43.65812" lon="1.39217">
        <ele>135</ele>
        <time>2023-06-13T16:01:06Z</time>
      </trkpt>
      <trkpt lat="43.65814" lon="1.39218">
        <ele>135</ele>
        <time>2023-06-13T16:01:07Z</time>
      </trkpt>
      <trkpt lat="43.65816" lon="1.39219">
        <ele>135</ele>
        <time>2023-06-13T16:01:08Z</time>
      </trkpt>
      <trkpt lat="43.65818" lon="1.3922">
        <ele>135</ele>
        <time>2023-06-13T16:01:09Z</time>
      </trkpt>
      <trkpt lat="43.65821" lon="1.39221">
        <ele>135</ele>
        <time>2023-06-13T16:01:10Z</time>
      </trkpt>
      <trkpt lat="43.65823" lon="1.39221">
        <ele>135</ele>
        <time>2023-06-13T16:01:11Z</time>
      </trkpt>
      <trkpt lat="43.65825" lon="1.39222">
        <ele>135</ele>
        <time>2023-06-13T16:01:12Z</time>
      </trkpt>
      <trkpt lat="43.65828" lon="1.39223">
        <ele>135</ele>
        <time>2023-06-13T16:01:13Z</time>
      </trkpt>
      <trkpt lat="43.6583" lon="1.39224">
        <ele>135</ele>
        <time>2023-06-13T16:01:14Z</time>
      </trkpt>
      <trkpt lat="43.65832" lon="1.39225">
        <ele>135</ele>
        <time>2023-06-13T16:01:15Z</time>
      </trkpt>
      <trkpt lat="43.65834" lon="1.39225">
        <ele>135</ele>
        <time>2023-06-13T16:01:16Z</time>
      </trkpt>
      <trkpt lat="43.65837" lon="1.39226">
        <ele>135</ele>
        <time>2023-06-13T16:01:17Z</time>
      </trkpt>
      <trkpt lat="43.65839" lon="1.39227">
        <ele>135</ele>
        <time>2023-06-13T16:01:18Z</time>
      </trkpt>
      <trkpt lat="43.65841" lon="1.39228">
        <ele>135</ele>
        <time>2023-06-13T16:01:19Z</time>
      </trkpt>
      <trkpt lat="43.65843" lon="1.39229">
        <ele>135</ele>
        <time>2023-06-13T16:01:20Z</time>
      </trkpt>
      <trkpt lat="43.65845" lon="1.39231">
        <ele>135</ele>
        <time>2023-06-13T16:01:21Z</time>
      </trkpt>
      <trkpt lat="43.65848" lon="1.39232">
        <ele>135</ele>
        <time>2023-06-13T16:01:22Z</time>
      </trkpt>
      <trkpt lat="43.6585" lon="1.39234">
        <ele>135</ele>
        <time>2023-06-13T16:01:23Z</time>
      </trkpt>
      <trkpt lat="43.65852" lon="1.39236">
        <ele>135</ele>
        <time>2023-06-13T16:01:24Z</time>
      </trkpt>
      <trkpt lat="43.65855" lon="1.39238">
        <ele>135</ele>
        <time>2023-06-13T16:01:25Z</time>
      </trkpt>
      <trkpt lat="43.65858" lon="1.3924">
        <ele>135</ele>
        <time>2023-06-13T16:01:26Z</time>
      </trkpt>
      <trkpt lat="43.65859" lon="1.3924">
        <ele>135</ele>
        <time>2023-06-13T16:01:27Z</time>
      </trkpt>
      <trkpt lat="43.6586" lon="1.39241">
        <ele>135</ele>
        <time>2023-06-13T16:01:28Z</time>
      </trkpt>
      <trkpt lat="43.65861" lon="1.39241">
        <ele>135</ele>
        <time>2023-06-13T16:01:29Z</time>
      </trkpt>
      <trkpt lat="43.65862" lon="1.39242">
        <ele>135</ele>
        <time>2023-06-13T16:01:30Z</time>
      </trkpt>
      <trkpt lat="43.65863" lon="1.39242">
        <ele>135</ele>
        <time>2023-06-13T16:01:31Z</time>
      </trkpt>
      <trkpt lat="43.65872" lon="1.39245">
        <ele>135</ele>
        <time>2023-06-13T16:01:32Z</time>
      </trkpt>
      <trkpt lat="43.65876" lon="1.39245">
        <ele>135</ele>
        <time>2023-06-13T16:01:33Z</time>
      </trkpt>
      <trkpt lat="43.6588" lon="1.39245">
        <ele>135</ele>
        <time>2023-06-13T16:01:34Z</time>
      </trkpt>
      <trkpt lat="43.65882" lon="1.39246">
        <ele>135</ele>
        <time>2023-06-13T16:01:35Z</time>
      </trkpt>
      <trkpt lat="43.65884" lon="1.39246">
        <ele>135</ele>
        <time>2023-06-13T16:01:36Z</time>
      </trkpt>
      <trkpt lat="43.65886" lon="1.39246">
        <ele>135</ele>
        <time>2023-06-13T16:01:37Z</time>
      </trkpt>
      <trkpt lat="43.65889" lon="1.39246">
        <ele>135</ele>
        <time>2023-06-13T16:01:38Z</time>
      </trkpt>
      <trkpt lat="43.65892" lon="1.39247">
        <ele>135</ele>
        <time>2023-06-13T16:01:39Z</time>
      </trkpt>
      <trkpt lat="43.65895" lon="1.39247">
        <ele>135</ele>
        <time>2023-06-13T16:01:41Z</time>
      </trkpt>
      <trkpt lat="43.65898" lon="1.39247">
        <ele>135</ele>
        <time>2023-06-13T16:01:42Z</time>
      </trkpt>
      <trkpt lat="43.659" lon="1.39248">
        <ele>135</ele>
        <time>2023-06-13T16:01:43Z</time>
      </trkpt>
      <trkpt lat="43.65903" lon="1.39249">
        <ele>134</ele>
        <time>2023-06-13T16:01:44Z</time>
      </trkpt>
      <trkpt lat="43.65905" lon="1.3925">
        <ele>134</ele>
        <time>2023-06-13T16:01:45Z</time>
      </trkpt>
      <trkpt lat="43.65908" lon="1.39251">
        <ele>134</ele>
        <time>2023-06-13T16:01:46Z</time>
      </trkpt>
      <trkpt lat="43.65908" lon="1.39251">
        <ele>134</ele>
        <time>2023-06-13T16:01:47Z</time>
      </trkpt>
      <trkpt lat="43.65908" lon="1.39251">
        <ele>134</ele>
        <time>2023-06-13T16:01:48Z</time>
      </trkpt>
      <trkpt lat="43.65918" lon="1.39253">
        <ele>135</ele>
        <time>2023-06-13T16:01:49Z</time>
      </trkpt>
      <trkpt lat="43.65918" lon="1.39253">
        <ele>135</ele>
        <time>2023-06-13T16:01:51Z</time>
      </trkpt>
      <trkpt lat="43.6592" lon="1.39253">
        <ele>135</ele>
        <time>2023-06-13T16:01:52Z</time>
      </trkpt>
      <trkpt lat="43.65922" lon="1.39253">
        <ele>135</ele>
        <time>2023-06-13T16:01:53Z</time>
      </trkpt>
      <trkpt lat="43.65924" lon="1.39253">
        <ele>135</ele>
        <time>2023-06-13T16:01:54Z</time>
      </trkpt>
      <trkpt lat="43.65932" lon="1.39252">
        <ele>135</ele>
        <time>2023-06-13T16:01:55Z</time>
      </trkpt>
      <trkpt lat="43.65934" lon="1.39252">
        <ele>135</ele>
        <time>2023-06-13T16:01:56Z</time>
      </trkpt>
      <trkpt lat="43.65937" lon="1.39251">
        <ele>135</ele>
        <time>2023-06-13T16:01:57Z</time>
      </trkpt>
      <trkpt lat="43.6594" lon="1.39251">
        <ele>135</ele>
        <time>2023-06-13T16:01:58Z</time>
      </trkpt>
      <trkpt lat="43.65941" lon="1.39251">
        <ele>135</ele>
        <time>2023-06-13T16:01:59Z</time>
      </trkpt>
      <trkpt lat="43.65942" lon="1.39251">
        <ele>135</ele>
        <time>2023-06-13T16:02:00Z</time>
      </trkpt>
      <trkpt lat="43.65944" lon="1.3925">
        <ele>135</ele>
        <time>2023-06-13T16:02:01Z</time>
      </trkpt>
      <trkpt lat="43.65945" lon="1.3925">
        <ele>135</ele>
        <time>2023-06-13T16:02:02Z</time>
      </trkpt>
      <trkpt lat="43.65952" lon="1.39249">
        <ele>135</ele>
        <time>2023-06-13T16:02:03Z</time>
      </trkpt>
      <trkpt lat="43.65953" lon="1.39249">
        <ele>135</ele>
        <time>2023-06-13T16:02:04Z</time>
      </trkpt>
      <trkpt lat="43.65955" lon="1.39248">
        <ele>135</ele>
        <time>2023-06-13T16:02:05Z</time>
      </trkpt>
      <trkpt lat="43.65956" lon="1.39248">
        <ele>135</ele>
        <time>2023-06-13T16:02:06Z</time>
      </trkpt>
      <trkpt lat="43.65964" lon="1.39245">
        <ele>135</ele>
        <time>2023-06-13T16:02:07Z</time>
      </trkpt>
      <trkpt lat="43.65966" lon="1.39244">
        <ele>135</ele>
        <time>2023-06-13T16:02:08Z</time>
      </trkpt>
      <trkpt lat="43.65968" lon="1.39242">
        <ele>135</ele>
        <time>2023-06-13T16:02:09Z</time>
      </trkpt>
      <trkpt lat="43.65971" lon="1.39241">
        <ele>135</ele>
        <time>2023-06-13T16:02:10Z</time>
      </trkpt>
      <trkpt lat="43.65972" lon="1.39241">
        <ele>135</ele>
        <time>2023-06-13T16:02:11Z</time>
      </trkpt>
      <trkpt lat="43.65973" lon="1.3924">
        <ele>135</ele>
        <time>2023-06-13T16:02:12Z</time>
      </trkpt>
      <trkpt lat="43.65975" lon="1.3924">
        <ele>135</ele>
        <time>2023-06-13T16:02:13Z</time>
      </trkpt>
      <trkpt lat="43.65976" lon="1.3924">
        <ele>135</ele>
        <time>2023-06-13T16:02:14Z</time>
      </trkpt>
      <trkpt lat="43.65985" lon="1.39238">
        <ele>135</ele>
        <time>2023-06-13T16:02:15Z</time>
      </trkpt>
      <trkpt lat="43.65988" lon="1.39238">
        <ele>135</ele>
        <time>2023-06-13T16:02:16Z</time>
      </trkpt>
      <trkpt lat="43.65991" lon="1.39237">
        <ele>135</ele>
        <time>2023-06-13T16:02:17Z</time>
      </trkpt>
      <trkpt lat="43.65994" lon="1.39237">
        <ele>135</ele>
        <time>2023-06-13T16:02:18Z</time>
      </trkpt>
      <trkpt lat="43.65997" lon="1.39236">
        <ele>135</ele>
        <time>2023-06-13T16:02:19Z</time>
      </trkpt>
      <trkpt lat="43.66" lon="1.39235">
        <ele>135</ele>
        <time>2023-06-13T16:02:20Z</time>
      </trkpt>
      <trkpt lat="43.66003" lon="1.39234">
        <ele>135</ele>
        <time>2023-06-13T16:02:21Z</time>
      </trkpt>
      <trkpt lat="43.66006" lon="1.39233">
        <ele>135</ele>
        <time>2023-06-13T16:02:22Z</time>
      </trkpt>
      <trkpt lat="43.66008" lon="1.39232">
        <ele>135</ele>
        <time>2023-06-13T16:02:23Z</time>
      </trkpt>
      <trkpt lat="43.66011" lon="1.39231">
        <ele>135</ele>
        <time>2023-06-13T16:02:24Z</time>
      </trkpt>
      <trkpt lat="43.66014" lon="1.3923">
        <ele>135</ele>
        <time>2023-06-13T16:02:25Z</time>
      </trkpt>
      <trkpt lat="43.66017" lon="1.39228">
        <ele>135</ele>
        <time>2023-06-13T16:02:26Z</time>
      </trkpt>
      <trkpt lat="43.6602" lon="1.39227">
        <ele>135</ele>
        <time>2023-06-13T16:02:27Z</time>
      </trkpt>
      <trkpt lat="43.66022" lon="1.39226">
        <ele>135</ele>
        <time>2023-06-13T16:02:28Z</time>
      </trkpt>
      <trkpt lat="43.66024" lon="1.39224">
        <ele>135</ele>
        <time>2023-06-13T16:02:29Z</time>
      </trkpt>
      <trkpt lat="43.66026" lon="1.39222">
        <ele>135</ele>
        <time>2023-06-13T16:02:30Z</time>
      </trkpt>
      <trkpt lat="43.66029" lon="1.3922">
        <ele>135</ele>
        <time>2023-06-13T16:02:31Z</time>
      </trkpt>
      <trkpt lat="43.66032" lon="1.39219">
        <ele>135</ele>
        <time>2023-06-13T16:02:32Z</time>
      </trkpt>
      <trkpt lat="43.66035" lon="1.39218">
        <ele>135</ele>
        <time>2023-06-13T16:02:33Z</time>
      </trkpt>
      <trkpt lat="43.66038" lon="1.39217">
        <ele>135</ele>
        <time>2023-06-13T16:02:34Z</time>
      </trkpt>
      <trkpt lat="43.6604" lon="1.39217">
        <ele>134</ele>
        <time>2023-06-13T16:02:35Z</time>
      </trkpt>
      <trkpt lat="43.66043" lon="1.39216">
        <ele>134</ele>
        <time>2023-06-13T16:02:36Z</time>
      </trkpt>
      <trkpt lat="43.66045" lon="1.39216">
        <ele>134</ele>
        <time>2023-06-13T16:02:37Z</time>
      </trkpt>
      <trkpt lat="43.66047" lon="1.39215">
        <ele>134</ele>
        <time>2023-06-13T16:02:38Z</time>
      </trkpt>
      <trkpt lat="43.66049" lon="1.39215">
        <ele>134</ele>
        <time>2023-06-13T16:02:39Z</time>
      </trkpt>
      <trkpt lat="43.66052" lon="1.39214">
        <ele>134</ele>
        <time>2023-06-13T16:02:40Z</time>
      </trkpt>
      <trkpt lat="43.66055" lon="1.39214">
        <ele>134</ele>
        <time>2023-06-13T16:02:41Z</time>
      </trkpt>
      <trkpt lat="43.66059" lon="1.39213">
        <ele>134</ele>
        <time>2023-06-13T16:02:42Z</time>
      </trkpt>
      <trkpt lat="43.66061" lon="1.39213">
        <ele>134</ele>
        <time>2023-06-13T16:02:43Z</time>
      </trkpt>
      <trkpt lat="43.66064" lon="1.39213">
        <ele>134</ele>
        <time>2023-06-13T16:02:44Z</time>
      </trkpt>
      <trkpt lat="43.66066" lon="1.39212">
        <ele>134</ele>
        <time>2023-06-13T16:02:45Z</time>
      </trkpt>
      <trkpt lat="43.66069" lon="1.39212">
        <ele>134</ele>
        <time>2023-06-13T16:02:46Z</time>
      </trkpt>
      <trkpt lat="43.66071" lon="1.39212">
        <ele>134</ele>
        <time>2023-06-13T16:02:47Z</time>
      </trkpt>
      <trkpt lat="43.66074" lon="1.39212">
        <ele>134</ele>
        <time>2023-06-13T16:02:48Z</time>
      </trkpt>
      <trkpt lat="43.66076" lon="1.39211">
        <ele>134</ele>
        <time>2023-06-13T16:02:49Z</time>
      </trkpt>
      <trkpt lat="43.66078" lon="1.39211">
        <ele>134</ele>
        <time>2023-06-13T16:02:50Z</time>
      </trkpt>
      <trkpt lat="43.6608" lon="1.3921">
        <ele>134</ele>
        <time>2023-06-13T16:02:51Z</time>
      </trkpt>
      <trkpt lat="43.66083" lon="1.39208">
        <ele>134</ele>
        <time>2023-06-13T16:02:52Z</time>
      </trkpt>
      <trkpt lat="43.66085" lon="1.39207">
        <ele>134</ele>
        <time>2023-06-13T16:02:53Z</time>
      </trkpt>
      <trkpt lat="43.66087" lon="1.39206">
        <ele>134</ele>
        <time>2023-06-13T16:02:54Z</time>
      </trkpt>
      <trkpt lat="43.6609" lon="1.39204">
        <ele>134</ele>
        <time>2023-06-13T16:02:55Z</time>
      </trkpt>
      <trkpt lat="43.66092" lon="1.39202">
        <ele>134</ele>
        <time>2023-06-13T16:02:56Z</time>
      </trkpt>
      <trkpt lat="43.66095" lon="1.39201">
        <ele>134</ele>
        <time>2023-06-13T16:02:57Z</time>
      </trkpt>
      <trkpt lat="43.66097" lon="1.39199">
        <ele>134</ele>
        <time>2023-06-13T16:02:58Z</time>
      </trkpt>
      <trkpt lat="43.66099" lon="1.39198">
        <ele>134</ele>
        <time>2023-06-13T16:02:59Z</time>
      </trkpt>
      <trkpt lat="43.66102" lon="1.39196">
        <ele>134</ele>
        <time>2023-06-13T16:03:00Z</time>
      </trkpt>
      <trkpt lat="43.66104" lon="1.39195">
        <ele>134</ele>
        <time>2023-06-13T16:03:01Z</time>
      </trkpt>
      <trkpt lat="43.66106" lon="1.39194">
        <ele>134</ele>
        <time>2023-06-13T16:03:02Z</time>
      </trkpt>
      <trkpt lat="43.66108" lon="1.39193">
        <ele>134</ele>
        <time>2023-06-13T16:03:03Z</time>
      </trkpt>
      <trkpt lat="43.66111" lon="1.39192">
        <ele>134</ele>
        <time>2023-06-13T16:03:04Z</time>
      </trkpt>
      <trkpt lat="43.66113" lon="1.39191">
        <ele>134</ele>
        <time>2023-06-13T16:03:05Z</time>
      </trkpt>
      <trkpt lat="43.66115" lon="1.3919">
        <ele>134</ele>
        <time>2023-06-13T16:03:06Z</time>
      </trkpt>
      <trkpt lat="43.66118" lon="1.39189">
        <ele>134</ele>
        <time>2023-06-13T16:03:07Z</time>
      </trkpt>
      <trkpt lat="43.6612" lon="1.39188">
        <ele>134</ele>
        <time>2023-06-13T16:03:08Z</time>
      </trkpt>
      <trkpt lat="43.66123" lon="1.39187">
        <ele>134</ele>
        <time>2023-06-13T16:03:09Z</time>
      </trkpt>
      <trkpt lat="43.66125" lon="1.39186">
        <ele>134</ele>
        <time>2023-06-13T16:03:10Z</time>
      </trkpt>
      <trkpt lat="43.66126" lon="1.39186">
        <ele>134</ele>
        <time>2023-06-13T16:03:11Z</time>
      </trkpt>
      <trkpt lat="43.66127" lon="1.39186">
        <ele>134</ele>
        <time>2023-06-13T16:03:12Z</time>
      </trkpt>
      <trkpt lat="43.66128" lon="1.39185">
        <ele>134</ele>
        <time>2023-06-13T16:03:13Z</time>
      </trkpt>
      <trkpt lat="43.66129" lon="1.39185">
        <ele>134</ele>
        <time>2023-06-13T16:03:14Z</time>
      </trkpt>
      <trkpt lat="43.6614" lon="1.39181">
        <ele>134</ele>
        <time>2023-06-13T16:03:16Z</time>
      </trkpt>
      <trkpt lat="43.66143" lon="1.39179">
        <ele>134</ele>
        <time>2023-06-13T16:03:17Z</time>
      </trkpt>
      <trkpt lat="43.66146" lon="1.39178">
        <ele>134</ele>
        <time>2023-06-13T16:03:18Z</time>
      </trkpt>
      <trkpt lat="43.66149" lon="1.39176">
        <ele>134</ele>
        <time>2023-06-13T16:03:19Z</time>
      </trkpt>
      <trkpt lat="43.66151" lon="1.39175">
        <ele>134</ele>
        <time>2023-06-13T16:03:20Z</time>
      </trkpt>
      <trkpt lat="43.66153" lon="1.39173">
        <ele>134</ele>
        <time>2023-06-13T16:03:21Z</time>
      </trkpt>
      <trkpt lat="43.66155" lon="1.39172">
        <ele>134</ele>
        <time>2023-06-13T16:03:22Z</time>
      </trkpt>
      <trkpt lat="43.66158" lon="1.39171">
        <ele>134</ele>
        <time>2023-06-13T16:03:23Z</time>
      </trkpt>
      <trkpt lat="43.6616" lon="1.39169">
        <ele>134</ele>
        <time>2023-06-13T16:03:24Z</time>
      </trkpt>
      <trkpt lat="43.66162" lon="1.39168">
        <ele>134</ele>
        <time>2023-06-13T16:03:25Z</time>
      </trkpt>
      <trkpt lat="43.66164" lon="1.39167">
        <ele>134</ele>
        <time>2023-06-13T16:03:26Z</time>
      </trkpt>
      <trkpt lat="43.66166" lon="1.39166">
        <ele>134</ele>
        <time>2023-06-13T16:03:27Z</time>
      </trkpt>
      <trkpt lat="43.66169" lon="1.39164">
        <ele>134</ele>
        <time>2023-06-13T16:03:28Z</time>
      </trkpt>
      <trkpt lat="43.66171" lon="1.39163">
        <ele>134</ele>
        <time>2023-06-13T16:03:29Z</time>
      </trkpt>
      <trkpt lat="43.66174" lon="1.39161">
        <ele>134</ele>
        <time>2023-06-13T16:03:30Z</time>
      </trkpt>
      <trkpt lat="43.66177" lon="1.39159">
        <ele>134</ele>
        <time>2023-06-13T16:03:31Z</time>
      </trkpt>
      <trkpt lat="43.6618" lon="1.39157">
        <ele>134</ele>
        <time>2023-06-13T16:03:32Z</time>
      </trkpt>
      <trkpt lat="43.66183" lon="1.39154">
        <ele>134</ele>
        <time>2023-06-13T16:03:33Z</time>
      </trkpt>
      <trkpt lat="43.66187" lon="1.39153">
        <ele>134</ele>
        <time>2023-06-13T16:03:34Z</time>
      </trkpt>
      <trkpt lat="43.6619" lon="1.39152">
        <ele>134</ele>
        <time>2023-06-13T16:03:35Z</time>
      </trkpt>
      <trkpt lat="43.66194" lon="1.39151">
        <ele>134</ele>
        <time>2023-06-13T16:03:36Z</time>
      </trkpt>
      <trkpt lat="43.66197" lon="1.39149">
        <ele>134</ele>
        <time>2023-06-13T16:03:37Z</time>
      </trkpt>
      <trkpt lat="43.66199" lon="1.39148">
        <ele>134</ele>
        <time>2023-06-13T16:03:38Z</time>
      </trkpt>
      <trkpt lat="43.66202" lon="1.39147">
        <ele>134</ele>
        <time>2023-06-13T16:03:39Z</time>
      </trkpt>
      <trkpt lat="43.66204" lon="1.39145">
        <ele>134</ele>
        <time>2023-06-13T16:03:40Z</time>
      </trkpt>
      <trkpt lat="43.66206" lon="1.39142">
        <ele>134</ele>
        <time>2023-06-13T16:03:41Z</time>
      </trkpt>
      <trkpt lat="43.66208" lon="1.3914">
        <ele>134</ele>
        <time>2023-06-13T16:03:42Z</time>
      </trkpt>
      <trkpt lat="43.6621" lon="1.39138">
        <ele>134</ele>
        <time>2023-06-13T16:03:43Z</time>
      </trkpt>
      <trkpt lat="43.66212" lon="1.39138">
        <ele>134</ele>
        <time>2023-06-13T16:03:44Z</time>
      </trkpt>
      <trkpt lat="43.66213" lon="1.39137">
        <ele>133</ele>
        <time>2023-06-13T16:03:45Z</time>
      </trkpt>
      <trkpt lat="43.66214" lon="1.39137">
        <ele>134</ele>
        <time>2023-06-13T16:03:46Z</time>
      </trkpt>
      <trkpt lat="43.66216" lon="1.39136">
        <ele>134</ele>
        <time>2023-06-13T16:03:47Z</time>
      </trkpt>
      <trkpt lat="43.66222" lon="1.39137">
        <ele>134</ele>
        <time>2023-06-13T16:03:48Z</time>
      </trkpt>
      <trkpt lat="43.66224" lon="1.39138">
        <ele>134</ele>
        <time>2023-06-13T16:03:49Z</time>
      </trkpt>
      <trkpt lat="43.66225" lon="1.3914">
        <ele>134</ele>
        <time>2023-06-13T16:03:50Z</time>
      </trkpt>
      <trkpt lat="43.66227" lon="1.39142">
        <ele>134</ele>
        <time>2023-06-13T16:03:51Z</time>
      </trkpt>
      <trkpt lat="43.66228" lon="1.39143">
        <ele>134</ele>
        <time>2023-06-13T16:03:52Z</time>
      </trkpt>
      <trkpt lat="43.6623" lon="1.39145">
        <ele>134</ele>
        <time>2023-06-13T16:03:53Z</time>
      </trkpt>
      <trkpt lat="43.66231" lon="1.39147">
        <ele>133</ele>
        <time>2023-06-13T16:03:54Z</time>
      </trkpt>
      <trkpt lat="43.66232" lon="1.39149">
        <ele>133</ele>
        <time>2023-06-13T16:03:55Z</time>
      </trkpt>
      <trkpt lat="43.66234" lon="1.39151">
        <ele>133</ele>
        <time>2023-06-13T16:03:56Z</time>
      </trkpt>
      <trkpt lat="43.66235" lon="1.39153">
        <ele>134</ele>
        <time>2023-06-13T16:03:57Z</time>
      </trkpt>
      <trkpt lat="43.66237" lon="1.39154">
        <ele>134</ele>
        <time>2023-06-13T16:03:58Z</time>
      </trkpt>
      <trkpt lat="43.66239" lon="1.39154">
        <ele>134</ele>
        <time>2023-06-13T16:03:59Z</time>
      </trkpt>
      <trkpt lat="43.66241" lon="1.39155">
        <ele>134</ele>
        <time>2023-06-13T16:04:00Z</time>
      </trkpt>
      <trkpt lat="43.66243" lon="1.39155">
        <ele>134</ele>
        <time>2023-06-13T16:04:01Z</time>
      </trkpt>
      <trkpt lat="43.66245" lon="1.39156">
        <ele>134</ele>
        <time>2023-06-13T16:04:02Z</time>
      </trkpt>
      <trkpt lat="43.66247" lon="1.39153">
        <ele>134</ele>
        <time>2023-06-13T16:04:03Z</time>
      </trkpt>
      <trkpt lat="43.66248" lon="1.39151">
        <ele>134</ele>
        <time>2023-06-13T16:04:04Z</time>
      </trkpt>
      <trkpt lat="43.66249" lon="1.39149">
        <ele>133</ele>
        <time>2023-06-13T16:04:05Z</time>
      </trkpt>
      <trkpt lat="43.6625" lon="1.39147">
        <ele>133</ele>
        <time>2023-06-13T16:04:06Z</time>
      </trkpt>
      <trkpt lat="43.66251" lon="1.39144">
        <ele>134</ele>
        <time>2023-06-13T16:04:07Z</time>
      </trkpt>
      <trkpt lat="43.66251" lon="1.39144">
        <ele>134</ele>
        <time>2023-06-13T16:04:08Z</time>
      </trkpt>
      <trkpt lat="43.66251" lon="1.39144">
        <ele>134</ele>
        <time>2023-06-13T16:04:09Z</time>
      </trkpt>
      <trkpt lat="43.66251" lon="1.39144">
        <ele>134</ele>
        <time>2023-06-13T16:04:10Z</time>
      </trkpt>
      <trkpt lat="43.66251" lon="1.3913">
        <ele>134</ele>
        <time>2023-06-13T16:04:11Z</time>
      </trkpt>
      <trkpt lat="43.66251" lon="1.3913">
        <ele>134</ele>
        <time>2023-06-13T16:04:13Z</time>
      </trkpt>
      <trkpt lat="43.66251" lon="1.39125">
        <ele>134</ele>
        <time>2023-06-13T16:04:14Z</time>
      </trkpt>
      <trkpt lat="43.66251" lon="1.39119">
        <ele>134</ele>
        <time>2023-06-13T16:04:15Z</time>
      </trkpt>
      <trkpt lat="43.66251" lon="1.39114">
        <ele>134</ele>
        <time>2023-06-13T16:04:16Z</time>
      </trkpt>
      <trkpt lat="43.66252" lon="1.3911">
        <ele>134</ele>
        <time>2023-06-13T16:04:17Z</time>
      </trkpt>
      <trkpt lat="43.66252" lon="1.39106">
        <ele>134</ele>
        <time>2023-06-13T16:04:18Z</time>
      </trkpt>
      <trkpt lat="43.66253" lon="1.39102">
        <ele>133</ele>
        <time>2023-06-13T16:04:19Z</time>
      </trkpt>
      <trkpt lat="43.66255" lon="1.39098">
        <ele>133</ele>
        <time>2023-06-13T16:04:20Z</time>
      </trkpt>
      <trkpt lat="43.66256" lon="1.39094">
        <ele>133</ele>
        <time>2023-06-13T16:04:21Z</time>
      </trkpt>
      <trkpt lat="43.66258" lon="1.3909">
        <ele>132</ele>
        <time>2023-06-13T16:04:22Z</time>
      </trkpt>
      <trkpt lat="43.66259" lon="1.39087">
        <ele>132</ele>
        <time>2023-06-13T16:04:23Z</time>
      </trkpt>
      <trkpt lat="43.6626" lon="1.39084">
        <ele>132</ele>
        <time>2023-06-13T16:04:24Z</time>
      </trkpt>
      <trkpt lat="43.66262" lon="1.3908">
        <ele>132</ele>
        <time>2023-06-13T16:04:25Z</time>
      </trkpt>
      <trkpt lat="43.66263" lon="1.39077">
        <ele>132</ele>
        <time>2023-06-13T16:04:26Z</time>
      </trkpt>
      <trkpt lat="43.66264" lon="1.39074">
        <ele>133</ele>
        <time>2023-06-13T16:04:27Z</time>
      </trkpt>
      <trkpt lat="43.66264" lon="1.39071">
        <ele>133</ele>
        <time>2023-06-13T16:04:28Z</time>
      </trkpt>
      <trkpt lat="43.66265" lon="1.39067">
        <ele>133</ele>
        <time>2023-06-13T16:04:29Z</time>
      </trkpt>
      <trkpt lat="43.66266" lon="1.39064">
        <ele>132</ele>
        <time>2023-06-13T16:04:30Z</time>
      </trkpt>
      <trkpt lat="43.66266" lon="1.39061">
        <ele>132</ele>
        <time>2023-06-13T16:04:31Z</time>
      </trkpt>
      <trkpt lat="43.66267" lon="1.39058">
        <ele>132</ele>
        <time>2023-06-13T16:04:32Z</time>
      </trkpt>
      <trkpt lat="43.66267" lon="1.39054">
        <ele>132</ele>
        <time>2023-06-13T16:04:33Z</time>
      </trkpt>
      <trkpt lat="43.66267" lon="1.39051">
        <ele>132</ele>
        <time>2023-06-13T16:04:34Z</time>
      </trkpt>
      <trkpt lat="43.66268" lon="1.39047">
        <ele>132</ele>
        <time>2023-06-13T16:04:35Z</time>
      </trkpt>
      <trkpt lat="43.66269" lon="1.39043">
        <ele>132</ele>
        <time>2023-06-13T16:04:36Z</time>
      </trkpt>
      <trkpt lat="43.66269" lon="1.39039">
        <ele>132</ele>
        <time>2023-06-13T16:04:37Z</time>
      </trkpt>
      <trkpt lat="43.6627" lon="1.39035">
        <ele>132</ele>
        <time>2023-06-13T16:04:38Z</time>
      </trkpt>
      <trkpt lat="43.66271" lon="1.39031">
        <ele>132</ele>
        <time>2023-06-13T16:04:39Z</time>
      </trkpt>
      <trkpt lat="43.66273" lon="1.39027">
        <ele>132</ele>
        <time>2023-06-13T16:04:40Z</time>
      </trkpt>
      <trkpt lat="43.66274" lon="1.39023">
        <ele>132</ele>
        <time>2023-06-13T16:04:41Z</time>
      </trkpt>
      <trkpt lat="43.66276" lon="1.3902">
        <ele>132</ele>
        <time>2023-06-13T16:04:42Z</time>
      </trkpt>
      <trkpt lat="43.66278" lon="1.39017">
        <ele>132</ele>
        <time>2023-06-13T16:04:43Z</time>
      </trkpt>
      <trkpt lat="43.6628" lon="1.39014">
        <ele>131</ele>
        <time>2023-06-13T16:04:44Z</time>
      </trkpt>
      <trkpt lat="43.66281" lon="1.39011">
        <ele>131</ele>
        <time>2023-06-13T16:04:45Z</time>
      </trkpt>
      <trkpt lat="43.66283" lon="1.39008">
        <ele>131</ele>
        <time>2023-06-13T16:04:46Z</time>
      </trkpt>
      <trkpt lat="43.66284" lon="1.39005">
        <ele>131</ele>
        <time>2023-06-13T16:04:47Z</time>
      </trkpt>
      <trkpt lat="43.66286" lon="1.39003">
        <ele>131</ele>
        <time>2023-06-13T16:04:48Z</time>
      </trkpt>
      <trkpt lat="43.66288" lon="1.38999">
        <ele>131</ele>
        <time>2023-06-13T16:04:49Z</time>
      </trkpt>
      <trkpt lat="43.6629" lon="1.38995">
        <ele>131</ele>
        <time>2023-06-13T16:04:50Z</time>
      </trkpt>
      <trkpt lat="43.66292" lon="1.38991">
        <ele>131</ele>
        <time>2023-06-13T16:04:51Z</time>
      </trkpt>
      <trkpt lat="43.66294" lon="1.38989">
        <ele>131</ele>
        <time>2023-06-13T16:04:52Z</time>
      </trkpt>
      <trkpt lat="43.66297" lon="1.38986">
        <ele>131</ele>
        <time>2023-06-13T16:04:53Z</time>
      </trkpt>
      <trkpt lat="43.66299" lon="1.38983">
        <ele>131</ele>
        <time>2023-06-13T16:04:54Z</time>
      </trkpt>
      <trkpt lat="43.66301" lon="1.3898">
        <ele>131</ele>
        <time>2023-06-13T16:04:55Z</time>
      </trkpt>
      <trkpt lat="43.66302" lon="1.38978">
        <ele>132</ele>
        <time>2023-06-13T16:04:56Z</time>
      </trkpt>
      <trkpt lat="43.66304" lon="1.38976">
        <ele>132</ele>
        <time>2023-06-13T16:04:57Z</time>
      </trkpt>
      <trkpt lat="43.66305" lon="1.38973">
        <ele>132</ele>
        <time>2023-06-13T16:04:58Z</time>
      </trkpt>
      <trkpt lat="43.66306" lon="1.38971">
        <ele>132</ele>
        <time>2023-06-13T16:04:59Z</time>
      </trkpt>
      <trkpt lat="43.66308" lon="1.38968">
        <ele>132</ele>
        <time>2023-06-13T16:05:00Z</time>
      </trkpt>
      <trkpt lat="43.6631" lon="1.38965">
        <ele>132</ele>
        <time>2023-06-13T16:05:01Z</time>
      </trkpt>
      <trkpt lat="43.66311" lon="1.38963">
        <ele>131</ele>
        <time>2023-06-13T16:05:02Z</time>
      </trkpt>
      <trkpt lat="43.66313" lon="1.3896">
        <ele>131</ele>
        <time>2023-06-13T16:05:03Z</time>
      </trkpt>
      <trkpt lat="43.66315" lon="1.38957">
        <ele>131</ele>
        <time>2023-06-13T16:05:04Z</time>
      </trkpt>
      <trkpt lat="43.66316" lon="1.38956">
        <ele>131</ele>
        <time>2023-06-13T16:05:05Z</time>
      </trkpt>
      <trkpt lat="43.66316" lon="1.38956">
        <ele>131</ele>
        <time>2023-06-13T16:05:06Z</time>
      </trkpt>
      <trkpt lat="43.66317" lon="1.38955">
        <ele>131</ele>
        <time>2023-06-13T16:05:07Z</time>
      </trkpt>
      <trkpt lat="43.66318" lon="1.38954">
        <ele>131</ele>
        <time>2023-06-13T16:05:08Z</time>
      </trkpt>
      <trkpt lat="43.66326" lon="1.38947">
        <ele>131</ele>
        <time>2023-06-13T16:05:10Z</time>
      </trkpt>
      <trkpt lat="43.66329" lon="1.38945">
        <ele>131</ele>
        <time>2023-06-13T16:05:11Z</time>
      </trkpt>
      <trkpt lat="43.66331" lon="1.38943">
        <ele>131</ele>
        <time>2023-06-13T16:05:12Z</time>
      </trkpt>
      <trkpt lat="43.66333" lon="1.38941">
        <ele>131</ele>
        <time>2023-06-13T16:05:13Z</time>
      </trkpt>
      <trkpt lat="43.66335" lon="1.38938">
        <ele>132</ele>
        <time>2023-06-13T16:05:14Z</time>
      </trkpt>
      <trkpt lat="43.66337" lon="1.38936">
        <ele>132</ele>
        <time>2023-06-13T16:05:15Z</time>
      </trkpt>
      <trkpt lat="43.66338" lon="1.38933">
        <ele>132</ele>
        <time>2023-06-13T16:05:16Z</time>
      </trkpt>
      <trkpt lat="43.6634" lon="1.38931">
        <ele>132</ele>
        <time>2023-06-13T16:05:17Z</time>
      </trkpt>
      <trkpt lat="43.66343" lon="1.38923">
        <ele>132</ele>
        <time>2023-06-13T16:05:18Z</time>
      </trkpt>
      <trkpt lat="43.66343" lon="1.38923">
        <ele>132</ele>
        <time>2023-06-13T16:05:19Z</time>
      </trkpt>
      <trkpt lat="43.66345" lon="1.38918">
        <ele>132</ele>
        <time>2023-06-13T16:05:20Z</time>
      </trkpt>
      <trkpt lat="43.66347" lon="1.38914">
        <ele>132</ele>
        <time>2023-06-13T16:05:21Z</time>
      </trkpt>
      <trkpt lat="43.66349" lon="1.38909">
        <ele>131</ele>
        <time>2023-06-13T16:05:22Z</time>
      </trkpt>
      <trkpt lat="43.66349" lon="1.38909">
        <ele>131</ele>
        <time>2023-06-13T16:05:23Z</time>
      </trkpt>
      <trkpt lat="43.66352" lon="1.38906">
        <ele>131</ele>
        <time>2023-06-13T16:05:24Z</time>
      </trkpt>
      <trkpt lat="43.66355" lon="1.38902">
        <ele>131</ele>
        <time>2023-06-13T16:05:25Z</time>
      </trkpt>
      <trkpt lat="43.66357" lon="1.38899">
        <ele>132</ele>
        <time>2023-06-13T16:05:26Z</time>
      </trkpt>
      <trkpt lat="43.66357" lon="1.38899">
        <ele>132</ele>
        <time>2023-06-13T16:05:27Z</time>
      </trkpt>
      <trkpt lat="43.6636" lon="1.38895">
        <ele>131</ele>
        <time>2023-06-13T16:05:28Z</time>
      </trkpt>
      <trkpt lat="43.66363" lon="1.38891">
        <ele>131</ele>
        <time>2023-06-13T16:05:29Z</time>
      </trkpt>
      <trkpt lat="43.66365" lon="1.38888">
        <ele>131</ele>
        <time>2023-06-13T16:05:30Z</time>
      </trkpt>
      <trkpt lat="43.66367" lon="1.38886">
        <ele>131</ele>
        <time>2023-06-13T16:05:31Z</time>
      </trkpt>
      <trkpt lat="43.66369" lon="1.38883">
        <ele>131</ele>
        <time>2023-06-13T16:05:32Z</time>
      </trkpt>
      <trkpt lat="43.66371" lon="1.38881">
        <ele>131</ele>
        <time>2023-06-13T16:05:33Z</time>
      </trkpt>
      <trkpt lat="43.66373" lon="1.38879">
        <ele>131</ele>
        <time>2023-06-13T16:05:34Z</time>
      </trkpt>
      <trkpt lat="43.66373" lon="1.38879">
        <ele>131</ele>
        <time>2023-06-13T16:05:35Z</time>
      </trkpt>
      <trkpt lat="43.66377" lon="1.38874">
        <ele>131</ele>
        <time>2023-06-13T16:05:36Z</time>
      </trkpt>
      <trkpt lat="43.6638" lon="1.38872">
        <ele>131</ele>
        <time>2023-06-13T16:05:37Z</time>
      </trkpt>
      <trkpt lat="43.66382" lon="1.3887">
        <ele>131</ele>
        <time>2023-06-13T16:05:38Z</time>
      </trkpt>
      <trkpt lat="43.66385" lon="1.38868">
        <ele>130</ele>
        <time>2023-06-13T16:05:39Z</time>
      </trkpt>
      <trkpt lat="43.66387" lon="1.38866">
        <ele>130</ele>
        <time>2023-06-13T16:05:40Z</time>
      </trkpt>
      <trkpt lat="43.66387" lon="1.38866">
        <ele>130</ele>
        <time>2023-06-13T16:05:41Z</time>
      </trkpt>
      <trkpt lat="43.66391" lon="1.3886">
        <ele>130</ele>
        <time>2023-06-13T16:05:42Z</time>
      </trkpt>
      <trkpt lat="43.66393" lon="1.38857">
        <ele>130</ele>
        <time>2023-06-13T16:05:43Z</time>
      </trkpt>
      <trkpt lat="43.66395" lon="1.38853">
        <ele>130</ele>
        <time>2023-06-13T16:05:44Z</time>
      </trkpt>
      <trkpt lat="43.66395" lon="1.38853">
        <ele>131</ele>
        <time>2023-06-13T16:05:45Z</time>
      </trkpt>
      <trkpt lat="43.66399" lon="1.3885">
        <ele>131</ele>
        <time>2023-06-13T16:05:46Z</time>
      </trkpt>
      <trkpt lat="43.66399" lon="1.3885">
        <ele>131</ele>
        <time>2023-06-13T16:05:47Z</time>
      </trkpt>
      <trkpt lat="43.66404" lon="1.38847">
        <ele>131</ele>
        <time>2023-06-13T16:05:48Z</time>
      </trkpt>
      <trkpt lat="43.66407" lon="1.38846">
        <ele>131</ele>
        <time>2023-06-13T16:05:49Z</time>
      </trkpt>
      <trkpt lat="43.6641" lon="1.38844">
        <ele>131</ele>
        <time>2023-06-13T16:05:50Z</time>
      </trkpt>
      <trkpt lat="43.66413" lon="1.38843">
        <ele>131</ele>
        <time>2023-06-13T16:05:51Z</time>
      </trkpt>
      <trkpt lat="43.66415" lon="1.38841">
        <ele>131</ele>
        <time>2023-06-13T16:05:52Z</time>
      </trkpt>
      <trkpt lat="43.66415" lon="1.38841">
        <ele>131</ele>
        <time>2023-06-13T16:05:53Z</time>
      </trkpt>
      <trkpt lat="43.66418" lon="1.38839">
        <ele>131</ele>
        <time>2023-06-13T16:05:54Z</time>
      </trkpt>
      <trkpt lat="43.6642" lon="1.38836">
        <ele>131</ele>
        <time>2023-06-13T16:05:55Z</time>
      </trkpt>
      <trkpt lat="43.66423" lon="1.38833">
        <ele>131</ele>
        <time>2023-06-13T16:05:56Z</time>
      </trkpt>
      <trkpt lat="43.66425" lon="1.38831">
        <ele>131</ele>
        <time>2023-06-13T16:05:57Z</time>
      </trkpt>
      <trkpt lat="43.66426" lon="1.38829">
        <ele>131</ele>
        <time>2023-06-13T16:05:58Z</time>
      </trkpt>
      <trkpt lat="43.6643" lon="1.38824">
        <ele>131</ele>
        <time>2023-06-13T16:05:59Z</time>
      </trkpt>
      <trkpt lat="43.66433" lon="1.38823">
        <ele>131</ele>
        <time>2023-06-13T16:06:00Z</time>
      </trkpt>
      <trkpt lat="43.66435" lon="1.38821">
        <ele>131</ele>
        <time>2023-06-13T16:06:01Z</time>
      </trkpt>
      <trkpt lat="43.66438" lon="1.38821">
        <ele>131</ele>
        <time>2023-06-13T16:06:02Z</time>
      </trkpt>
      <trkpt lat="43.66438" lon="1.38821">
        <ele>131</ele>
        <time>2023-06-13T16:06:03Z</time>
      </trkpt>
      <trkpt lat="43.66441" lon="1.3882">
        <ele>131</ele>
        <time>2023-06-13T16:06:04Z</time>
      </trkpt>
      <trkpt lat="43.66443" lon="1.38817">
        <ele>131</ele>
        <time>2023-06-13T16:06:05Z</time>
      </trkpt>
      <trkpt lat="43.66443" lon="1.38817">
        <ele>132</ele>
        <time>2023-06-13T16:06:06Z</time>
      </trkpt>
      <trkpt lat="43.66448" lon="1.38814">
        <ele>132</ele>
        <time>2023-06-13T16:06:07Z</time>
      </trkpt>
      <trkpt lat="43.66448" lon="1.38814">
        <ele>132</ele>
        <time>2023-06-13T16:06:08Z</time>
      </trkpt>
      <trkpt lat="43.66451" lon="1.38809">
        <ele>132</ele>
        <time>2023-06-13T16:06:09Z</time>
      </trkpt>
      <trkpt lat="43.66451" lon="1.38809">
        <ele>132</ele>
        <time>2023-06-13T16:06:10Z</time>
      </trkpt>
      <trkpt lat="43.66456" lon="1.38806">
        <ele>132</ele>
        <time>2023-06-13T16:06:11Z</time>
      </trkpt>
      <trkpt lat="43.66456" lon="1.38806">
        <ele>132</ele>
        <time>2023-06-13T16:06:12Z</time>
      </trkpt>
      <trkpt lat="43.66458" lon="1.38804">
        <ele>132</ele>
        <time>2023-06-13T16:06:13Z</time>
      </trkpt>
      <trkpt lat="43.6646" lon="1.38801">
        <ele>132</ele>
        <time>2023-06-13T16:06:14Z</time>
      </trkpt>
      <trkpt lat="43.66462" lon="1.38799">
        <ele>132</ele>
        <time>2023-06-13T16:06:15Z</time>
      </trkpt>
      <trkpt lat="43.66464" lon="1.38797">
        <ele>132</ele>
        <time>2023-06-13T16:06:16Z</time>
      </trkpt>
      <trkpt lat="43.66466" lon="1.38795">
        <ele>132</ele>
        <time>2023-06-13T16:06:17Z</time>
      </trkpt>
      <trkpt lat="43.66469" lon="1.38792">
        <ele>132</ele>
        <time>2023-06-13T16:06:18Z</time>
      </trkpt>
      <trkpt lat="43.66473" lon="1.3879">
        <ele>132</ele>
        <time>2023-06-13T16:06:19Z</time>
      </trkpt>
      <trkpt lat="43.66476" lon="1.38787">
        <ele>132</ele>
        <time>2023-06-13T16:06:20Z</time>
      </trkpt>
      <trkpt lat="43.6648" lon="1.38785">
        <ele>132</ele>
        <time>2023-06-13T16:06:21Z</time>
      </trkpt>
      <trkpt lat="43.6648" lon="1.38785">
        <ele>131</ele>
        <time>2023-06-13T16:06:22Z</time>
      </trkpt>
      <trkpt lat="43.66482" lon="1.38783">
        <ele>131</ele>
        <time>2023-06-13T16:06:23Z</time>
      </trkpt>
      <trkpt lat="43.66484" lon="1.38781">
        <ele>131</ele>
        <time>2023-06-13T16:06:24Z</time>
      </trkpt>
      <trkpt lat="43.66486" lon="1.3878">
        <ele>131</ele>
        <time>2023-06-13T16:06:25Z</time>
      </trkpt>
      <trkpt lat="43.66488" lon="1.38778">
        <ele>131</ele>
        <time>2023-06-13T16:06:26Z</time>
      </trkpt>
      <trkpt lat="43.66495" lon="1.3877">
        <ele>131</ele>
        <time>2023-06-13T16:06:27Z</time>
      </trkpt>
      <trkpt lat="43.66497" lon="1.38768">
        <ele>131</ele>
        <time>2023-06-13T16:06:28Z</time>
      </trkpt>
      <trkpt lat="43.66497" lon="1.38768">
        <ele>131</ele>
        <time>2023-06-13T16:06:29Z</time>
      </trkpt>
      <trkpt lat="43.66504" lon="1.38761">
        <ele>131</ele>
        <time>2023-06-13T16:06:30Z</time>
      </trkpt>
      <trkpt lat="43.66505" lon="1.3876">
        <ele>131</ele>
        <time>2023-06-13T16:06:31Z</time>
      </trkpt>
      <trkpt lat="43.66505" lon="1.3876">
        <ele>131</ele>
        <time>2023-06-13T16:06:32Z</time>
      </trkpt>
      <trkpt lat="43.66508" lon="1.38758">
        <ele>131</ele>
        <time>2023-06-13T16:06:33Z</time>
      </trkpt>
      <trkpt lat="43.66511" lon="1.38755">
        <ele>131</ele>
        <time>2023-06-13T16:06:34Z</time>
      </trkpt>
      <trkpt lat="43.66514" lon="1.38753">
        <ele>131</ele>
        <time>2023-06-13T16:06:35Z</time>
      </trkpt>
      <trkpt lat="43.66516" lon="1.38751">
        <ele>131</ele>
        <time>2023-06-13T16:06:36Z</time>
      </trkpt>
      <trkpt lat="43.66519" lon="1.38749">
        <ele>131</ele>
        <time>2023-06-13T16:06:37Z</time>
      </trkpt>
      <trkpt lat="43.66521" lon="1.38747">
        <ele>131</ele>
        <time>2023-06-13T16:06:38Z</time>
      </trkpt>
      <trkpt lat="43.66523" lon="1.38745">
        <ele>131</ele>
        <time>2023-06-13T16:06:39Z</time>
      </trkpt>
      <trkpt lat="43.66525" lon="1.38742">
        <ele>131</ele>
        <time>2023-06-13T16:06:40Z</time>
      </trkpt>
      <trkpt lat="43.66525" lon="1.38742">
        <ele>131</ele>
        <time>2023-06-13T16:06:41Z</time>
      </trkpt>
      <trkpt lat="43.66529" lon="1.38737">
        <ele>131</ele>
        <time>2023-06-13T16:06:42Z</time>
      </trkpt>
      <trkpt lat="43.66529" lon="1.38737">
        <ele>131</ele>
        <time>2023-06-13T16:06:43Z</time>
      </trkpt>
      <trkpt lat="43.66532" lon="1.38734">
        <ele>131</ele>
        <time>2023-06-13T16:06:44Z</time>
      </trkpt>
      <trkpt lat="43.66536" lon="1.38729">
        <ele>131</ele>
        <time>2023-06-13T16:06:45Z</time>
      </trkpt>
      <trkpt lat="43.66536" lon="1.38729">
        <ele>131</ele>
        <time>2023-06-13T16:06:46Z</time>
      </trkpt>
      <trkpt lat="43.66539" lon="1.38727">
        <ele>131</ele>
        <time>2023-06-13T16:06:47Z</time>
      </trkpt>
      <trkpt lat="43.66544" lon="1.38722">
        <ele>131</ele>
        <time>2023-06-13T16:06:48Z</time>
      </trkpt>
      <trkpt lat="43.66544" lon="1.38722">
        <ele>131</ele>
        <time>2023-06-13T16:06:49Z</time>
      </trkpt>
      <trkpt lat="43.66549" lon="1.3872">
        <ele>131</ele>
        <time>2023-06-13T16:06:50Z</time>
      </trkpt>
      <trkpt lat="43.66552" lon="1.38719">
        <ele>131</ele>
        <time>2023-06-13T16:06:51Z</time>
      </trkpt>
      <trkpt lat="43.66552" lon="1.38719">
        <ele>131</ele>
        <time>2023-06-13T16:06:52Z</time>
      </trkpt>
      <trkpt lat="43.66557" lon="1.3872">
        <ele>130</ele>
        <time>2023-06-13T16:06:53Z</time>
      </trkpt>
      <trkpt lat="43.6656" lon="1.38721">
        <ele>130</ele>
        <time>2023-06-13T16:06:54Z</time>
      </trkpt>
      <trkpt lat="43.66563" lon="1.38722">
        <ele>130</ele>
        <time>2023-06-13T16:06:55Z</time>
      </trkpt>
      <trkpt lat="43.66566" lon="1.38723">
        <ele>130</ele>
        <time>2023-06-13T16:06:56Z</time>
      </trkpt>
      <trkpt lat="43.66568" lon="1.38724">
        <ele>130</ele>
        <time>2023-06-13T16:06:57Z</time>
      </trkpt>
      <trkpt lat="43.66571" lon="1.38726">
        <ele>130</ele>
        <time>2023-06-13T16:06:58Z</time>
      </trkpt>
      <trkpt lat="43.66571" lon="1.38726">
        <ele>130</ele>
        <time>2023-06-13T16:06:59Z</time>
      </trkpt>
      <trkpt lat="43.66575" lon="1.38731">
        <ele>130</ele>
        <time>2023-06-13T16:07:00Z</time>
      </trkpt>
      <trkpt lat="43.66577" lon="1.38734">
        <ele>131</ele>
        <time>2023-06-13T16:07:01Z</time>
      </trkpt>
      <trkpt lat="43.66579" lon="1.38737">
        <ele>131</ele>
        <time>2023-06-13T16:07:02Z</time>
      </trkpt>
      <trkpt lat="43.66579" lon="1.38737">
        <ele>130</ele>
        <time>2023-06-13T16:07:03Z</time>
      </trkpt>
      <trkpt lat="43.66583" lon="1.38743">
        <ele>130</ele>
        <time>2023-06-13T16:07:04Z</time>
      </trkpt>
      <trkpt lat="43.66583" lon="1.38743">
        <ele>130</ele>
        <time>2023-06-13T16:07:05Z</time>
      </trkpt>
      <trkpt lat="43.66586" lon="1.38749">
        <ele>130</ele>
        <time>2023-06-13T16:07:06Z</time>
      </trkpt>
      <trkpt lat="43.66586" lon="1.38749">
        <ele>130</ele>
        <time>2023-06-13T16:07:07Z</time>
      </trkpt>
      <trkpt lat="43.66586" lon="1.38749">
        <ele>130</ele>
        <time>2023-06-13T16:07:08Z</time>
      </trkpt>
      <trkpt lat="43.66591" lon="1.38756">
        <ele>130</ele>
        <time>2023-06-13T16:07:09Z</time>
      </trkpt>
      <trkpt lat="43.66591" lon="1.38756">
        <ele>131</ele>
        <time>2023-06-13T16:07:10Z</time>
      </trkpt>
      <trkpt lat="43.66594" lon="1.38762">
        <ele>131</ele>
        <time>2023-06-13T16:07:11Z</time>
      </trkpt>
      <trkpt lat="43.66596" lon="1.38765">
        <ele>130</ele>
        <time>2023-06-13T16:07:12Z</time>
      </trkpt>
      <trkpt lat="43.66597" lon="1.38768">
        <ele>130</ele>
        <time>2023-06-13T16:07:13Z</time>
      </trkpt>
      <trkpt lat="43.66599" lon="1.38771">
        <ele>130</ele>
        <time>2023-06-13T16:07:14Z</time>
      </trkpt>
      <trkpt lat="43.66599" lon="1.38771">
        <ele>130</ele>
        <time>2023-06-13T16:07:15Z</time>
      </trkpt>
      <trkpt lat="43.66602" lon="1.38777">
        <ele>130</ele>
        <time>2023-06-13T16:07:16Z</time>
      </trkpt>
      <trkpt lat="43.66603" lon="1.38781">
        <ele>130</ele>
        <time>2023-06-13T16:07:17Z</time>
      </trkpt>
      <trkpt lat="43.66604" lon="1.38785">
        <ele>130</ele>
        <time>2023-06-13T16:07:18Z</time>
      </trkpt>
      <trkpt lat="43.66605" lon="1.38789">
        <ele>130</ele>
        <time>2023-06-13T16:07:19Z</time>
      </trkpt>
      <trkpt lat="43.66606" lon="1.38793">
        <ele>131</ele>
        <time>2023-06-13T16:07:20Z</time>
      </trkpt>
      <trkpt lat="43.66607" lon="1.38796">
        <ele>131</ele>
        <time>2023-06-13T16:07:21Z</time>
      </trkpt>
      <trkpt lat="43.66607" lon="1.38796">
        <ele>131</ele>
        <time>2023-06-13T16:07:22Z</time>
      </trkpt>
      <trkpt lat="43.66609" lon="1.388">
        <ele>131</ele>
        <time>2023-06-13T16:07:23Z</time>
      </trkpt>
      <trkpt lat="43.66611" lon="1.38809">
        <ele>131</ele>
        <time>2023-06-13T16:07:24Z</time>
      </trkpt>
      <trkpt lat="43.66612" lon="1.38813">
        <ele>131</ele>
        <time>2023-06-13T16:07:25Z</time>
      </trkpt>
      <trkpt lat="43.66612" lon="1.38817">
        <ele>131</ele>
        <time>2023-06-13T16:07:26Z</time>
      </trkpt>
      <trkpt lat="43.66612" lon="1.3882">
        <ele>131</ele>
        <time>2023-06-13T16:07:27Z</time>
      </trkpt>
      <trkpt lat="43.66612" lon="1.3882">
        <ele>131</ele>
        <time>2023-06-13T16:07:28Z</time>
      </trkpt>
      <trkpt lat="43.66613" lon="1.38827">
        <ele>131</ele>
        <time>2023-06-13T16:07:29Z</time>
      </trkpt>
      <trkpt lat="43.66614" lon="1.38831">
        <ele>131</ele>
        <time>2023-06-13T16:07:30Z</time>
      </trkpt>
      <trkpt lat="43.66614" lon="1.38833">
        <ele>131</ele>
        <time>2023-06-13T16:07:31Z</time>
      </trkpt>
      <trkpt lat="43.66614" lon="1.38837">
        <ele>131</ele>
        <time>2023-06-13T16:07:32Z</time>
      </trkpt>
      <trkpt lat="43.66615" lon="1.3884">
        <ele>131</ele>
        <time>2023-06-13T16:07:33Z</time>
      </trkpt>
      <trkpt lat="43.66615" lon="1.38843">
        <ele>131</ele>
        <time>2023-06-13T16:07:34Z</time>
      </trkpt>
      <trkpt lat="43.66615" lon="1.38843">
        <ele>131</ele>
        <time>2023-06-13T16:07:35Z</time>
      </trkpt>
      <trkpt lat="43.66615" lon="1.38849">
        <ele>132</ele>
        <time>2023-06-13T16:07:36Z</time>
      </trkpt>
      <trkpt lat="43.66615" lon="1.38853">
        <ele>132</ele>
        <time>2023-06-13T16:07:37Z</time>
      </trkpt>
      <trkpt lat="43.66614" lon="1.38857">
        <ele>132</ele>
        <time>2023-06-13T16:07:38Z</time>
      </trkpt>
      <trkpt lat="43.66614" lon="1.3886">
        <ele>132</ele>
        <time>2023-06-13T16:07:39Z</time>
      </trkpt>
      <trkpt lat="43.66614" lon="1.38864">
        <ele>132</ele>
        <time>2023-06-13T16:07:40Z</time>
      </trkpt>
      <trkpt lat="43.66613" lon="1.38867">
        <ele>132</ele>
        <time>2023-06-13T16:07:41Z</time>
      </trkpt>
      <trkpt lat="43.66612" lon="1.38871">
        <ele>132</ele>
        <time>2023-06-13T16:07:42Z</time>
      </trkpt>
      <trkpt lat="43.66611" lon="1.38875">
        <ele>132</ele>
        <time>2023-06-13T16:07:43Z</time>
      </trkpt>
      <trkpt lat="43.66611" lon="1.38879">
        <ele>132</ele>
        <time>2023-06-13T16:07:44Z</time>
      </trkpt>
      <trkpt lat="43.66611" lon="1.38882">
        <ele>131</ele>
        <time>2023-06-13T16:07:45Z</time>
      </trkpt>
      <trkpt lat="43.6661" lon="1.38886">
        <ele>131</ele>
        <time>2023-06-13T16:07:46Z</time>
      </trkpt>
      <trkpt lat="43.6661" lon="1.38886">
        <ele>131</ele>
        <time>2023-06-13T16:07:47Z</time>
      </trkpt>
      <trkpt lat="43.66609" lon="1.38894">
        <ele>131</ele>
        <time>2023-06-13T16:07:48Z</time>
      </trkpt>
      <trkpt lat="43.66609" lon="1.38897">
        <ele>131</ele>
        <time>2023-06-13T16:07:49Z</time>
      </trkpt>
      <trkpt lat="43.66609" lon="1.38901">
        <ele>131</ele>
        <time>2023-06-13T16:07:50Z</time>
      </trkpt>
      <trkpt lat="43.66609" lon="1.38905">
        <ele>131</ele>
        <time>2023-06-13T16:07:51Z</time>
      </trkpt>
      <trkpt lat="43.66609" lon="1.38909">
        <ele>131</ele>
        <time>2023-06-13T16:07:52Z</time>
      </trkpt>
      <trkpt lat="43.66609" lon="1.38913">
        <ele>131</ele>
        <time>2023-06-13T16:07:53Z</time>
      </trkpt>
      <trkpt lat="43.66609" lon="1.38913">
        <ele>131</ele>
        <time>2023-06-13T16:07:54Z</time>
      </trkpt>
      <trkpt lat="43.66608" lon="1.38919">
        <ele>131</ele>
        <time>2023-06-13T16:07:55Z</time>
      </trkpt>
      <trkpt lat="43.66608" lon="1.38922">
        <ele>131</ele>
        <time>2023-06-13T16:07:56Z</time>
      </trkpt>
      <trkpt lat="43.66607" lon="1.38925">
        <ele>131</ele>
        <time>2023-06-13T16:07:57Z</time>
      </trkpt>
      <trkpt lat="43.66607" lon="1.38925">
        <ele>131</ele>
        <time>2023-06-13T16:07:58Z</time>
      </trkpt>
      <trkpt lat="43.66607" lon="1.38928">
        <ele>131</ele>
        <time>2023-06-13T16:07:59Z</time>
      </trkpt>
      <trkpt lat="43.66607" lon="1.38931">
        <ele>132</ele>
        <time>2023-06-13T16:08:00Z</time>
      </trkpt>
      <trkpt lat="43.66607" lon="1.38934">
        <ele>132</ele>
        <time>2023-06-13T16:08:01Z</time>
      </trkpt>
      <trkpt lat="43.66607" lon="1.38937">
        <ele>132</ele>
        <time>2023-06-13T16:08:02Z</time>
      </trkpt>
      <trkpt lat="43.66607" lon="1.38941">
        <ele>132</ele>
        <time>2023-06-13T16:08:03Z</time>
      </trkpt>
      <trkpt lat="43.66606" lon="1.38945">
        <ele>132</ele>
        <time>2023-06-13T16:08:04Z</time>
      </trkpt>
      <trkpt lat="43.66606" lon="1.38948">
        <ele>132</ele>
        <time>2023-06-13T16:08:05Z</time>
      </trkpt>
      <trkpt lat="43.66606" lon="1.38952">
        <ele>132</ele>
        <time>2023-06-13T16:08:06Z</time>
      </trkpt>
      <trkpt lat="43.66606" lon="1.38956">
        <ele>132</ele>
        <time>2023-06-13T16:08:07Z</time>
      </trkpt>
      <trkpt lat="43.66606" lon="1.38961">
        <ele>132</ele>
        <time>2023-06-13T16:08:08Z</time>
      </trkpt>
      <trkpt lat="43.66606" lon="1.38965">
        <ele>132</ele>
        <time>2023-06-13T16:08:09Z</time>
      </trkpt>
      <trkpt lat="43.66607" lon="1.38969">
        <ele>132</ele>
        <time>2023-06-13T16:08:10Z</time>
      </trkpt>
      <trkpt lat="43.66608" lon="1.38973">
        <ele>132</ele>
        <time>2023-06-13T16:08:11Z</time>
      </trkpt>
      <trkpt lat="43.66609" lon="1.38978">
        <ele>131</ele>
        <time>2023-06-13T16:08:12Z</time>
      </trkpt>
      <trkpt lat="43.66609" lon="1.38983">
        <ele>131</ele>
        <time>2023-06-13T16:08:13Z</time>
      </trkpt>
      <trkpt lat="43.66609" lon="1.38989">
        <ele>131</ele>
        <time>2023-06-13T16:08:14Z</time>
      </trkpt>
      <trkpt lat="43.6661" lon="1.38994">
        <ele>131</ele>
        <time>2023-06-13T16:08:15Z</time>
      </trkpt>
      <trkpt lat="43.6661" lon="1.38994">
        <ele>131</ele>
        <time>2023-06-13T16:08:16Z</time>
      </trkpt>
      <trkpt lat="43.66608" lon="1.39001">
        <ele>131</ele>
        <time>2023-06-13T16:08:17Z</time>
      </trkpt>
      <trkpt lat="43.66608" lon="1.39001">
        <ele>131</ele>
        <time>2023-06-13T16:08:19Z</time>
      </trkpt>
      <trkpt lat="43.66605" lon="1.3901">
        <ele>131</ele>
        <time>2023-06-13T16:08:20Z</time>
      </trkpt>
      <trkpt lat="43.66605" lon="1.3901">
        <ele>131</ele>
        <time>2023-06-13T16:08:21Z</time>
      </trkpt>
      <trkpt lat="43.66604" lon="1.39017">
        <ele>131</ele>
        <time>2023-06-13T16:08:22Z</time>
      </trkpt>
      <trkpt lat="43.66604" lon="1.39017">
        <ele>131</ele>
        <time>2023-06-13T16:08:23Z</time>
      </trkpt>
      <trkpt lat="43.66602" lon="1.39026">
        <ele>131</ele>
        <time>2023-06-13T16:08:24Z</time>
      </trkpt>
      <trkpt lat="43.66601" lon="1.39028">
        <ele>131</ele>
        <time>2023-06-13T16:08:25Z</time>
      </trkpt>
      <trkpt lat="43.66601" lon="1.39032">
        <ele>131</ele>
        <time>2023-06-13T16:08:26Z</time>
      </trkpt>
      <trkpt lat="43.666" lon="1.39035">
        <ele>131</ele>
        <time>2023-06-13T16:08:27Z</time>
      </trkpt>
      <trkpt lat="43.666" lon="1.39035">
        <ele>131</ele>
        <time>2023-06-13T16:08:28Z</time>
      </trkpt>
      <trkpt lat="43.66599" lon="1.39043">
        <ele>131</ele>
        <time>2023-06-13T16:08:29Z</time>
      </trkpt>
      <trkpt lat="43.66599" lon="1.39043">
        <ele>131</ele>
        <time>2023-06-13T16:08:30Z</time>
      </trkpt>
      <trkpt lat="43.66598" lon="1.39051">
        <ele>131</ele>
        <time>2023-06-13T16:08:31Z</time>
      </trkpt>
      <trkpt lat="43.66597" lon="1.39055">
        <ele>131</ele>
        <time>2023-06-13T16:08:32Z</time>
      </trkpt>
      <trkpt lat="43.66597" lon="1.39059">
        <ele>131</ele>
        <time>2023-06-13T16:08:33Z</time>
      </trkpt>
      <trkpt lat="43.66596" lon="1.39063">
        <ele>131</ele>
        <time>2023-06-13T16:08:34Z</time>
      </trkpt>
      <trkpt lat="43.66596" lon="1.39063">
        <ele>131</ele>
        <time>2023-06-13T16:08:35Z</time>
      </trkpt>
      <trkpt lat="43.66596" lon="1.39067">
        <ele>131</ele>
        <time>2023-06-13T16:08:36Z</time>
      </trkpt>
      <trkpt lat="43.66595" lon="1.39074">
        <ele>131</ele>
        <time>2023-06-13T16:08:37Z</time>
      </trkpt>
      <trkpt lat="43.66595" lon="1.39074">
        <ele>131</ele>
        <time>2023-06-13T16:08:38Z</time>
      </trkpt>
      <trkpt lat="43.66595" lon="1.39079">
        <ele>131</ele>
        <time>2023-06-13T16:08:39Z</time>
      </trkpt>
      <trkpt lat="43.66595" lon="1.39084">
        <ele>131</ele>
        <time>2023-06-13T16:08:40Z</time>
      </trkpt>
      <trkpt lat="43.66595" lon="1.39089">
        <ele>131</ele>
        <time>2023-06-13T16:08:41Z</time>
      </trkpt>
      <trkpt lat="43.66595" lon="1.39092">
        <ele>131</ele>
        <time>2023-06-13T16:08:42Z</time>
      </trkpt>
      <trkpt lat="43.66595" lon="1.39092">
        <ele>131</ele>
        <time>2023-06-13T16:08:43Z</time>
      </trkpt>
      <trkpt lat="43.66595" lon="1.39096">
        <ele>131</ele>
        <time>2023-06-13T16:08:44Z</time>
      </trkpt>
      <trkpt lat="43.66593" lon="1.39105">
        <ele>131</ele>
        <time>2023-06-13T16:08:45Z</time>
      </trkpt>
      <trkpt lat="43.66593" lon="1.39107">
        <ele>131</ele>
        <time>2023-06-13T16:08:46Z</time>
      </trkpt>
      <trkpt lat="43.66593" lon="1.39107">
        <ele>131</ele>
        <time>2023-06-13T16:08:47Z</time>
      </trkpt>
      <trkpt lat="43.66592" lon="1.39114">
        <ele>131</ele>
        <time>2023-06-13T16:08:48Z</time>
      </trkpt>
      <trkpt lat="43.66592" lon="1.39119">
        <ele>131</ele>
        <time>2023-06-13T16:08:49Z</time>
      </trkpt>
      <trkpt lat="43.66592" lon="1.39119">
        <ele>131</ele>
        <time>2023-06-13T16:08:50Z</time>
      </trkpt>
      <trkpt lat="43.66592" lon="1.39127">
        <ele>131</ele>
        <time>2023-06-13T16:08:51Z</time>
      </trkpt>
      <trkpt lat="43.66592" lon="1.39127">
        <ele>131</ele>
        <time>2023-06-13T16:08:52Z</time>
      </trkpt>
      <trkpt lat="43.66592" lon="1.39135">
        <ele>131</ele>
        <time>2023-06-13T16:08:53Z</time>
      </trkpt>
      <trkpt lat="43.66592" lon="1.39135">
        <ele>131</ele>
        <time>2023-06-13T16:08:54Z</time>
      </trkpt>
      <trkpt lat="43.66592" lon="1.39139">
        <ele>131</ele>
        <time>2023-06-13T16:08:55Z</time>
      </trkpt>
      <trkpt lat="43.66591" lon="1.39146">
        <ele>131</ele>
        <time>2023-06-13T16:08:56Z</time>
      </trkpt>
      <trkpt lat="43.66591" lon="1.3915">
        <ele>131</ele>
        <time>2023-06-13T16:08:57Z</time>
      </trkpt>
      <trkpt lat="43.6659" lon="1.39154">
        <ele>131</ele>
        <time>2023-06-13T16:08:58Z</time>
      </trkpt>
      <trkpt lat="43.6659" lon="1.39154">
        <ele>131</ele>
        <time>2023-06-13T16:08:59Z</time>
      </trkpt>
      <trkpt lat="43.66588" lon="1.39161">
        <ele>131</ele>
        <time>2023-06-13T16:09:00Z</time>
      </trkpt>
      <trkpt lat="43.66588" lon="1.39165">
        <ele>131</ele>
        <time>2023-06-13T16:09:01Z</time>
      </trkpt>
      <trkpt lat="43.66588" lon="1.39169">
        <ele>132</ele>
        <time>2023-06-13T16:09:02Z</time>
      </trkpt>
      <trkpt lat="43.66588" lon="1.39172">
        <ele>132</ele>
        <time>2023-06-13T16:09:03Z</time>
      </trkpt>
      <trkpt lat="43.66588" lon="1.39176">
        <ele>132</ele>
        <time>2023-06-13T16:09:04Z</time>
      </trkpt>
      <trkpt lat="43.66588" lon="1.39179">
        <ele>132</ele>
        <time>2023-06-13T16:09:05Z</time>
      </trkpt>
      <trkpt lat="43.66588" lon="1.39183">
        <ele>132</ele>
        <time>2023-06-13T16:09:06Z</time>
      </trkpt>
      <trkpt lat="43.66588" lon="1.39187">
        <ele>132</ele>
        <time>2023-06-13T16:09:07Z</time>
      </trkpt>
      <trkpt lat="43.66587" lon="1.39191">
        <ele>132</ele>
        <time>2023-06-13T16:09:08Z</time>
      </trkpt>
      <trkpt lat="43.66586" lon="1.39194">
        <ele>132</ele>
        <time>2023-06-13T16:09:09Z</time>
      </trkpt>
      <trkpt lat="43.66584" lon="1.39198">
        <ele>132</ele>
        <time>2023-06-13T16:09:10Z</time>
      </trkpt>
      <trkpt lat="43.66584" lon="1.39201">
        <ele>132</ele>
        <time>2023-06-13T16:09:11Z</time>
      </trkpt>
      <trkpt lat="43.66583" lon="1.39205">
        <ele>132</ele>
        <time>2023-06-13T16:09:12Z</time>
      </trkpt>
      <trkpt lat="43.66583" lon="1.39205">
        <ele>132</ele>
        <time>2023-06-13T16:09:13Z</time>
      </trkpt>
      <trkpt lat="43.66583" lon="1.39212">
        <ele>132</ele>
        <time>2023-06-13T16:09:14Z</time>
      </trkpt>
      <trkpt lat="43.66583" lon="1.39215">
        <ele>132</ele>
        <time>2023-06-13T16:09:15Z</time>
      </trkpt>
      <trkpt lat="43.66582" lon="1.39218">
        <ele>132</ele>
        <time>2023-06-13T16:09:16Z</time>
      </trkpt>
      <trkpt lat="43.66582" lon="1.39222">
        <ele>132</ele>
        <time>2023-06-13T16:09:17Z</time>
      </trkpt>
      <trkpt lat="43.66582" lon="1.39225">
        <ele>132</ele>
        <time>2023-06-13T16:09:18Z</time>
      </trkpt>
      <trkpt lat="43.66581" lon="1.39229">
        <ele>132</ele>
        <time>2023-06-13T16:09:19Z</time>
      </trkpt>
      <trkpt lat="43.66581" lon="1.39233">
        <ele>132</ele>
        <time>2023-06-13T16:09:20Z</time>
      </trkpt>
      <trkpt lat="43.6658" lon="1.39236">
        <ele>132</ele>
        <time>2023-06-13T16:09:21Z</time>
      </trkpt>
      <trkpt lat="43.6658" lon="1.3924">
        <ele>132</ele>
        <time>2023-06-13T16:09:22Z</time>
      </trkpt>
      <trkpt lat="43.6658" lon="1.39244">
        <ele>132</ele>
        <time>2023-06-13T16:09:23Z</time>
      </trkpt>
      <trkpt lat="43.6658" lon="1.39249">
        <ele>132</ele>
        <time>2023-06-13T16:09:24Z</time>
      </trkpt>
      <trkpt lat="43.6658" lon="1.39253">
        <ele>132</ele>
        <time>2023-06-13T16:09:25Z</time>
      </trkpt>
      <trkpt lat="43.66581" lon="1.39258">
        <ele>132</ele>
        <time>2023-06-13T16:09:26Z</time>
      </trkpt>
      <trkpt lat="43.6658" lon="1.39262">
        <ele>132</ele>
        <time>2023-06-13T16:09:27Z</time>
      </trkpt>
      <trkpt lat="43.66579" lon="1.39266">
        <ele>132</ele>
        <time>2023-06-13T16:09:28Z</time>
      </trkpt>
      <trkpt lat="43.66576" lon="1.39269">
        <ele>132</ele>
        <time>2023-06-13T16:09:29Z</time>
      </trkpt>
      <trkpt lat="43.66576" lon="1.39269">
        <ele>132</ele>
        <time>2023-06-13T16:09:30Z</time>
      </trkpt>
      <trkpt lat="43.66569" lon="1.39271">
        <ele>132</ele>
        <time>2023-06-13T16:09:31Z</time>
      </trkpt>
      <trkpt lat="43.66565" lon="1.39271">
        <ele>132</ele>
        <time>2023-06-13T16:09:32Z</time>
      </trkpt>
      <trkpt lat="43.66562" lon="1.39271">
        <ele>132</ele>
        <time>2023-06-13T16:09:33Z</time>
      </trkpt>
      <trkpt lat="43.66559" lon="1.39271">
        <ele>131</ele>
        <time>2023-06-13T16:09:34Z</time>
      </trkpt>
      <trkpt lat="43.66556" lon="1.39272">
        <ele>131</ele>
        <time>2023-06-13T16:09:35Z</time>
      </trkpt>
      <trkpt lat="43.66553" lon="1.39274">
        <ele>131</ele>
        <time>2023-06-13T16:09:36Z</time>
      </trkpt>
      <trkpt lat="43.66553" lon="1.39274">
        <ele>131</ele>
        <time>2023-06-13T16:09:37Z</time>
      </trkpt>
      <trkpt lat="43.66547" lon="1.39277">
        <ele>130</ele>
        <time>2023-06-13T16:09:38Z</time>
      </trkpt>
      <trkpt lat="43.66544" lon="1.39279">
        <ele>130</ele>
        <time>2023-06-13T16:09:39Z</time>
      </trkpt>
      <trkpt lat="43.66541" lon="1.39279">
        <ele>130</ele>
        <time>2023-06-13T16:09:40Z</time>
      </trkpt>
      <trkpt lat="43.66538" lon="1.39279">
        <ele>130</ele>
        <time>2023-06-13T16:09:41Z</time>
      </trkpt>
      <trkpt lat="43.66535" lon="1.39277">
        <ele>130</ele>
        <time>2023-06-13T16:09:42Z</time>
      </trkpt>
      <trkpt lat="43.66532" lon="1.39276">
        <ele>131</ele>
        <time>2023-06-13T16:09:43Z</time>
      </trkpt>
      <trkpt lat="43.66532" lon="1.39276">
        <ele>131</ele>
        <time>2023-06-13T16:09:44Z</time>
      </trkpt>
      <trkpt lat="43.66526" lon="1.39272">
        <ele>131</ele>
        <time>2023-06-13T16:09:45Z</time>
      </trkpt>
      <trkpt lat="43.66526" lon="1.39272">
        <ele>130</ele>
        <time>2023-06-13T16:09:46Z</time>
      </trkpt>
      <trkpt lat="43.66521" lon="1.39269">
        <ele>130</ele>
        <time>2023-06-13T16:09:47Z</time>
      </trkpt>
      <trkpt lat="43.66518" lon="1.39269">
        <ele>130</ele>
        <time>2023-06-13T16:09:48Z</time>
      </trkpt>
      <trkpt lat="43.66518" lon="1.39269">
        <ele>130</ele>
        <time>2023-06-13T16:09:49Z</time>
      </trkpt>
      <trkpt lat="43.66515" lon="1.39273">
        <ele>130</ele>
        <time>2023-06-13T16:09:50Z</time>
      </trkpt>
      <trkpt lat="43.66514" lon="1.39276">
        <ele>130</ele>
        <time>2023-06-13T16:09:51Z</time>
      </trkpt>
      <trkpt lat="43.66513" lon="1.3928">
        <ele>130</ele>
        <time>2023-06-13T16:09:52Z</time>
      </trkpt>
      <trkpt lat="43.66512" lon="1.39283">
        <ele>130</ele>
        <time>2023-06-13T16:09:53Z</time>
      </trkpt>
      <trkpt lat="43.66512" lon="1.39283">
        <ele>130</ele>
        <time>2023-06-13T16:09:54Z</time>
      </trkpt>
      <trkpt lat="43.66511" lon="1.3929">
        <ele>130</ele>
        <time>2023-06-13T16:09:55Z</time>
      </trkpt>
      <trkpt lat="43.66511" lon="1.3929">
        <ele>130</ele>
        <time>2023-06-13T16:09:56Z</time>
      </trkpt>
      <trkpt lat="43.66509" lon="1.39298">
        <ele>130</ele>
        <time>2023-06-13T16:09:57Z</time>
      </trkpt>
      <trkpt lat="43.66508" lon="1.39302">
        <ele>130</ele>
        <time>2023-06-13T16:09:58Z</time>
      </trkpt>
      <trkpt lat="43.66506" lon="1.39305">
        <ele>130</ele>
        <time>2023-06-13T16:09:59Z</time>
      </trkpt>
      <trkpt lat="43.66505" lon="1.39308">
        <ele>130</ele>
        <time>2023-06-13T16:10:00Z</time>
      </trkpt>
      <trkpt lat="43.66502" lon="1.39312">
        <ele>130</ele>
        <time>2023-06-13T16:10:01Z</time>
      </trkpt>
      <trkpt lat="43.665" lon="1.39314">
        <ele>130</ele>
        <time>2023-06-13T16:10:02Z</time>
      </trkpt>
      <trkpt lat="43.665" lon="1.39314">
        <ele>130</ele>
        <time>2023-06-13T16:10:03Z</time>
      </trkpt>
      <trkpt lat="43.66497" lon="1.39317">
        <ele>130</ele>
        <time>2023-06-13T16:10:04Z</time>
      </trkpt>
      <trkpt lat="43.66492" lon="1.3932">
        <ele>130</ele>
        <time>2023-06-13T16:10:05Z</time>
      </trkpt>
      <trkpt lat="43.66489" lon="1.39322">
        <ele>130</ele>
        <time>2023-06-13T16:10:06Z</time>
      </trkpt>
      <trkpt lat="43.66486" lon="1.39324">
        <ele>130</ele>
        <time>2023-06-13T16:10:07Z</time>
      </trkpt>
      <trkpt lat="43.66484" lon="1.39325">
        <ele>131</ele>
        <time>2023-06-13T16:10:08Z</time>
      </trkpt>
      <trkpt lat="43.66484" lon="1.39325">
        <ele>131</ele>
        <time>2023-06-13T16:10:09Z</time>
      </trkpt>
      <trkpt lat="43.66479" lon="1.39327">
        <ele>131</ele>
        <time>2023-06-13T16:10:10Z</time>
      </trkpt>
      <trkpt lat="43.66479" lon="1.39327">
        <ele>132</ele>
        <time>2023-06-13T16:10:11Z</time>
      </trkpt>
      <trkpt lat="43.66473" lon="1.39328">
        <ele>132</ele>
        <time>2023-06-13T16:10:12Z</time>
      </trkpt>
      <trkpt lat="43.66468" lon="1.39329">
        <ele>132</ele>
        <time>2023-06-13T16:10:14Z</time>
      </trkpt>
      <trkpt lat="43.66465" lon="1.39329">
        <ele>132</ele>
        <time>2023-06-13T16:10:15Z</time>
      </trkpt>
      <trkpt lat="43.66462" lon="1.39328">
        <ele>131</ele>
        <time>2023-06-13T16:10:16Z</time>
      </trkpt>
      <trkpt lat="43.66459" lon="1.39328">
        <ele>131</ele>
        <time>2023-06-13T16:10:17Z</time>
      </trkpt>
      <trkpt lat="43.66459" lon="1.39328">
        <ele>131</ele>
        <time>2023-06-13T16:10:18Z</time>
      </trkpt>
      <trkpt lat="43.66453" lon="1.39329">
        <ele>131</ele>
        <time>2023-06-13T16:10:19Z</time>
      </trkpt>
      <trkpt lat="43.66451" lon="1.39329">
        <ele>132</ele>
        <time>2023-06-13T16:10:20Z</time>
      </trkpt>
      <trkpt lat="43.66448" lon="1.39329">
        <ele>132</ele>
        <time>2023-06-13T16:10:21Z</time>
      </trkpt>
      <trkpt lat="43.66445" lon="1.39329">
        <ele>131</ele>
        <time>2023-06-13T16:10:22Z</time>
      </trkpt>
      <trkpt lat="43.66442" lon="1.39329">
        <ele>131</ele>
        <time>2023-06-13T16:10:23Z</time>
      </trkpt>
      <trkpt lat="43.66439" lon="1.39329">
        <ele>131</ele>
        <time>2023-06-13T16:10:24Z</time>
      </trkpt>
      <trkpt lat="43.66436" lon="1.39329">
        <ele>131</ele>
        <time>2023-06-13T16:10:25Z</time>
      </trkpt>
      <trkpt lat="43.66436" lon="1.39329">
        <ele>131</ele>
        <time>2023-06-13T16:10:26Z</time>
      </trkpt>
      <trkpt lat="43.6643" lon="1.39327">
        <ele>132</ele>
        <time>2023-06-13T16:10:27Z</time>
      </trkpt>
      <trkpt lat="43.6643" lon="1.39327">
        <ele>132</ele>
        <time>2023-06-13T16:10:28Z</time>
      </trkpt>
      <trkpt lat="43.66424" lon="1.39327">
        <ele>132</ele>
        <time>2023-06-13T16:10:29Z</time>
      </trkpt>
      <trkpt lat="43.66424" lon="1.39327">
        <ele>132</ele>
        <time>2023-06-13T16:10:30Z</time>
      </trkpt>
      <trkpt lat="43.66418" lon="1.39324">
        <ele>132</ele>
        <time>2023-06-13T16:10:31Z</time>
      </trkpt>
      <trkpt lat="43.66415" lon="1.39323">
        <ele>132</ele>
        <time>2023-06-13T16:10:32Z</time>
      </trkpt>
      <trkpt lat="43.66413" lon="1.39322">
        <ele>132</ele>
        <time>2023-06-13T16:10:33Z</time>
      </trkpt>
      <trkpt lat="43.66413" lon="1.39322">
        <ele>132</ele>
        <time>2023-06-13T16:10:34Z</time>
      </trkpt>
      <trkpt lat="43.66407" lon="1.39319">
        <ele>131</ele>
        <time>2023-06-13T16:10:35Z</time>
      </trkpt>
      <trkpt lat="43.66404" lon="1.39317">
        <ele>131</ele>
        <time>2023-06-13T16:10:36Z</time>
      </trkpt>
      <trkpt lat="43.66402" lon="1.39315">
        <ele>130</ele>
        <time>2023-06-13T16:10:37Z</time>
      </trkpt>
      <trkpt lat="43.66402" lon="1.39315">
        <ele>130</ele>
        <time>2023-06-13T16:10:38Z</time>
      </trkpt>
      <trkpt lat="43.66399" lon="1.39313">
        <ele>130</ele>
        <time>2023-06-13T16:10:39Z</time>
      </trkpt>
      <trkpt lat="43.66395" lon="1.39308">
        <ele>130</ele>
        <time>2023-06-13T16:10:40Z</time>
      </trkpt>
      <trkpt lat="43.66392" lon="1.39306">
        <ele>130</ele>
        <time>2023-06-13T16:10:41Z</time>
      </trkpt>
      <trkpt lat="43.6639" lon="1.39304">
        <ele>130</ele>
        <time>2023-06-13T16:10:42Z</time>
      </trkpt>
      <trkpt lat="43.66388" lon="1.39303">
        <ele>130</ele>
        <time>2023-06-13T16:10:43Z</time>
      </trkpt>
      <trkpt lat="43.66386" lon="1.39302">
        <ele>130</ele>
        <time>2023-06-13T16:10:44Z</time>
      </trkpt>
      <trkpt lat="43.66384" lon="1.393">
        <ele>130</ele>
        <time>2023-06-13T16:10:45Z</time>
      </trkpt>
      <trkpt lat="43.66384" lon="1.393">
        <ele>130</ele>
        <time>2023-06-13T16:10:46Z</time>
      </trkpt>
      <trkpt lat="43.66379" lon="1.39295">
        <ele>130</ele>
        <time>2023-06-13T16:10:47Z</time>
      </trkpt>
      <trkpt lat="43.66377" lon="1.39293">
        <ele>130</ele>
        <time>2023-06-13T16:10:48Z</time>
      </trkpt>
      <trkpt lat="43.66375" lon="1.39291">
        <ele>130</ele>
        <time>2023-06-13T16:10:49Z</time>
      </trkpt>
      <trkpt lat="43.66375" lon="1.39291">
        <ele>130</ele>
        <time>2023-06-13T16:10:50Z</time>
      </trkpt>
      <trkpt lat="43.66369" lon="1.39288">
        <ele>130</ele>
        <time>2023-06-13T16:10:51Z</time>
      </trkpt>
      <trkpt lat="43.66367" lon="1.39287">
        <ele>130</ele>
        <time>2023-06-13T16:10:52Z</time>
      </trkpt>
      <trkpt lat="43.66367" lon="1.39287">
        <ele>130</ele>
        <time>2023-06-13T16:10:53Z</time>
      </trkpt>
      <trkpt lat="43.66361" lon="1.39286">
        <ele>130</ele>
        <time>2023-06-13T16:10:54Z</time>
      </trkpt>
      <trkpt lat="43.66359" lon="1.39286">
        <ele>130</ele>
        <time>2023-06-13T16:10:55Z</time>
      </trkpt>
      <trkpt lat="43.66357" lon="1.39286">
        <ele>130</ele>
        <time>2023-06-13T16:10:56Z</time>
      </trkpt>
      <trkpt lat="43.66355" lon="1.39288">
        <ele>130</ele>
        <time>2023-06-13T16:10:57Z</time>
      </trkpt>
      <trkpt lat="43.66355" lon="1.39288">
        <ele>130</ele>
        <time>2023-06-13T16:10:58Z</time>
      </trkpt>
      <trkpt lat="43.66349" lon="1.3929">
        <ele>130</ele>
        <time>2023-06-13T16:10:59Z</time>
      </trkpt>
      <trkpt lat="43.66349" lon="1.3929">
        <ele>130</ele>
        <time>2023-06-13T16:11:00Z</time>
      </trkpt>
      <trkpt lat="43.66345" lon="1.39294">
        <ele>130</ele>
        <time>2023-06-13T16:11:01Z</time>
      </trkpt>
      <trkpt lat="43.66342" lon="1.39296">
        <ele>130</ele>
        <time>2023-06-13T16:11:02Z</time>
      </trkpt>
      <trkpt lat="43.66339" lon="1.39296">
        <ele>130</ele>
        <time>2023-06-13T16:11:03Z</time>
      </trkpt>
      <trkpt lat="43.66336" lon="1.39298">
        <ele>130</ele>
        <time>2023-06-13T16:11:04Z</time>
      </trkpt>
      <trkpt lat="43.66333" lon="1.393">
        <ele>131</ele>
        <time>2023-06-13T16:11:05Z</time>
      </trkpt>
      <trkpt lat="43.6633" lon="1.39301">
        <ele>131</ele>
        <time>2023-06-13T16:11:06Z</time>
      </trkpt>
      <trkpt lat="43.66327" lon="1.393">
        <ele>131</ele>
        <time>2023-06-13T16:11:07Z</time>
      </trkpt>
      <trkpt lat="43.66324" lon="1.39299">
        <ele>131</ele>
        <time>2023-06-13T16:11:08Z</time>
      </trkpt>
      <trkpt lat="43.66321" lon="1.39297">
        <ele>130</ele>
        <time>2023-06-13T16:11:09Z</time>
      </trkpt>
      <trkpt lat="43.66321" lon="1.39297">
        <ele>130</ele>
        <time>2023-06-13T16:11:10Z</time>
      </trkpt>
      <trkpt lat="43.66314" lon="1.39294">
        <ele>130</ele>
        <time>2023-06-13T16:11:11Z</time>
      </trkpt>
      <trkpt lat="43.66312" lon="1.39292">
        <ele>130</ele>
        <time>2023-06-13T16:11:12Z</time>
      </trkpt>
      <trkpt lat="43.66309" lon="1.3929">
        <ele>130</ele>
        <time>2023-06-13T16:11:13Z</time>
      </trkpt>
      <trkpt lat="43.66307" lon="1.39287">
        <ele>131</ele>
        <time>2023-06-13T16:11:14Z</time>
      </trkpt>
      <trkpt lat="43.66305" lon="1.39284">
        <ele>131</ele>
        <time>2023-06-13T16:11:15Z</time>
      </trkpt>
      <trkpt lat="43.66303" lon="1.39281">
        <ele>132</ele>
        <time>2023-06-13T16:11:16Z</time>
      </trkpt>
      <trkpt lat="43.66301" lon="1.39279">
        <ele>132</ele>
        <time>2023-06-13T16:11:17Z</time>
      </trkpt>
      <trkpt lat="43.66301" lon="1.39279">
        <ele>131</ele>
        <time>2023-06-13T16:11:18Z</time>
      </trkpt>
      <trkpt lat="43.66297" lon="1.39274">
        <ele>131</ele>
        <time>2023-06-13T16:11:19Z</time>
      </trkpt>
      <trkpt lat="43.66295" lon="1.39271">
        <ele>131</ele>
        <time>2023-06-13T16:11:20Z</time>
      </trkpt>
      <trkpt lat="43.66294" lon="1.39267">
        <ele>131</ele>
        <time>2023-06-13T16:11:21Z</time>
      </trkpt>
      <trkpt lat="43.66293" lon="1.39265">
        <ele>131</ele>
        <time>2023-06-13T16:11:22Z</time>
      </trkpt>
      <trkpt lat="43.66292" lon="1.39262">
        <ele>131</ele>
        <time>2023-06-13T16:11:23Z</time>
      </trkpt>
      <trkpt lat="43.66291" lon="1.3926">
        <ele>131</ele>
        <time>2023-06-13T16:11:24Z</time>
      </trkpt>
      <trkpt lat="43.66291" lon="1.3926">
        <ele>131</ele>
        <time>2023-06-13T16:11:25Z</time>
      </trkpt>
      <trkpt lat="43.66289" lon="1.39253">
        <ele>131</ele>
        <time>2023-06-13T16:11:26Z</time>
      </trkpt>
      <trkpt lat="43.66288" lon="1.3925">
        <ele>131</ele>
        <time>2023-06-13T16:11:27Z</time>
      </trkpt>
      <trkpt lat="43.66286" lon="1.39246">
        <ele>131</ele>
        <time>2023-06-13T16:11:28Z</time>
      </trkpt>
      <trkpt lat="43.66286" lon="1.39246">
        <ele>131</ele>
        <time>2023-06-13T16:11:29Z</time>
      </trkpt>
      <trkpt lat="43.66284" lon="1.39237">
        <ele>131</ele>
        <time>2023-06-13T16:11:30Z</time>
      </trkpt>
      <trkpt lat="43.66282" lon="1.39233">
        <ele>131</ele>
        <time>2023-06-13T16:11:31Z</time>
      </trkpt>
      <trkpt lat="43.66281" lon="1.3923">
        <ele>131</ele>
        <time>2023-06-13T16:11:32Z</time>
      </trkpt>
      <trkpt lat="43.6628" lon="1.39226">
        <ele>131</ele>
        <time>2023-06-13T16:11:33Z</time>
      </trkpt>
      <trkpt lat="43.6628" lon="1.39226">
        <ele>131</ele>
        <time>2023-06-13T16:11:34Z</time>
      </trkpt>
      <trkpt lat="43.66279" lon="1.39217">
        <ele>131</ele>
        <time>2023-06-13T16:11:35Z</time>
      </trkpt>
      <trkpt lat="43.66278" lon="1.39212">
        <ele>131</ele>
        <time>2023-06-13T16:11:36Z</time>
      </trkpt>
      <trkpt lat="43.66277" lon="1.39208">
        <ele>131</ele>
        <time>2023-06-13T16:11:37Z</time>
      </trkpt>
      <trkpt lat="43.66277" lon="1.39204">
        <ele>131</ele>
        <time>2023-06-13T16:11:38Z</time>
      </trkpt>
      <trkpt lat="43.66277" lon="1.392">
        <ele>131</ele>
        <time>2023-06-13T16:11:39Z</time>
      </trkpt>
      <trkpt lat="43.66275" lon="1.39197">
        <ele>131</ele>
        <time>2023-06-13T16:11:40Z</time>
      </trkpt>
      <trkpt lat="43.66275" lon="1.39197">
        <ele>131</ele>
        <time>2023-06-13T16:11:41Z</time>
      </trkpt>
      <trkpt lat="43.66273" lon="1.3919">
        <ele>131</ele>
        <time>2023-06-13T16:11:42Z</time>
      </trkpt>
      <trkpt lat="43.66273" lon="1.3919">
        <ele>131</ele>
        <time>2023-06-13T16:11:43Z</time>
      </trkpt>
      <trkpt lat="43.6627" lon="1.39183">
        <ele>131</ele>
        <time>2023-06-13T16:11:44Z</time>
      </trkpt>
      <trkpt lat="43.66268" lon="1.3918">
        <ele>131</ele>
        <time>2023-06-13T16:11:45Z</time>
      </trkpt>
      <trkpt lat="43.66268" lon="1.3918">
        <ele>131</ele>
        <time>2023-06-13T16:11:46Z</time>
      </trkpt>
      <trkpt lat="43.66264" lon="1.39176">
        <ele>131</ele>
        <time>2023-06-13T16:11:47Z</time>
      </trkpt>
      <trkpt lat="43.66259" lon="1.39172">
        <ele>131</ele>
        <time>2023-06-13T16:11:49Z</time>
      </trkpt>
      <trkpt lat="43.66259" lon="1.39172">
        <ele>131</ele>
        <time>2023-06-13T16:11:50Z</time>
      </trkpt>
      <trkpt lat="43.66254" lon="1.3917">
        <ele>131</ele>
        <time>2023-06-13T16:11:51Z</time>
      </trkpt>
      <trkpt lat="43.66252" lon="1.39171">
        <ele>131</ele>
        <time>2023-06-13T16:11:52Z</time>
      </trkpt>
      <trkpt lat="43.6625" lon="1.39171">
        <ele>131</ele>
        <time>2023-06-13T16:11:53Z</time>
      </trkpt>
      <trkpt lat="43.66248" lon="1.39174">
        <ele>131</ele>
        <time>2023-06-13T16:11:54Z</time>
      </trkpt>
      <trkpt lat="43.66248" lon="1.39174">
        <ele>131</ele>
        <time>2023-06-13T16:11:55Z</time>
      </trkpt>
      <trkpt lat="43.66244" lon="1.39176">
        <ele>131</ele>
        <time>2023-06-13T16:11:56Z</time>
      </trkpt>
      <trkpt lat="43.66241" lon="1.39175">
        <ele>131</ele>
        <time>2023-06-13T16:11:57Z</time>
      </trkpt>
      <trkpt lat="43.66239" lon="1.39175">
        <ele>131</ele>
        <time>2023-06-13T16:11:58Z</time>
      </trkpt>
      <trkpt lat="43.66235" lon="1.39174">
        <ele>131</ele>
        <time>2023-06-13T16:11:59Z</time>
      </trkpt>
      <trkpt lat="43.66233" lon="1.39172">
        <ele>131</ele>
        <time>2023-06-13T16:12:00Z</time>
      </trkpt>
      <trkpt lat="43.6623" lon="1.3917">
        <ele>131</ele>
        <time>2023-06-13T16:12:01Z</time>
      </trkpt>
      <trkpt lat="43.6623" lon="1.3917">
        <ele>131</ele>
        <time>2023-06-13T16:12:02Z</time>
      </trkpt>
      <trkpt lat="43.66226" lon="1.39165">
        <ele>131</ele>
        <time>2023-06-13T16:12:03Z</time>
      </trkpt>
      <trkpt lat="43.66224" lon="1.39161">
        <ele>131</ele>
        <time>2023-06-13T16:12:04Z</time>
      </trkpt>
      <trkpt lat="43.66223" lon="1.39159">
        <ele>131</ele>
        <time>2023-06-13T16:12:05Z</time>
      </trkpt>
      <trkpt lat="43.66221" lon="1.39155">
        <ele>131</ele>
        <time>2023-06-13T16:12:06Z</time>
      </trkpt>
      <trkpt lat="43.66219" lon="1.39149">
        <ele>131</ele>
        <time>2023-06-13T16:12:08Z</time>
      </trkpt>
      <trkpt lat="43.66217" lon="1.39146">
        <ele>131</ele>
        <time>2023-06-13T16:12:09Z</time>
      </trkpt>
      <trkpt lat="43.66215" lon="1.39145">
        <ele>131</ele>
        <time>2023-06-13T16:12:10Z</time>
      </trkpt>
      <trkpt lat="43.66213" lon="1.39145">
        <ele>131</ele>
        <time>2023-06-13T16:12:11Z</time>
      </trkpt>
      <trkpt lat="43.6621" lon="1.39146">
        <ele>131</ele>
        <time>2023-06-13T16:12:12Z</time>
      </trkpt>
      <trkpt lat="43.66207" lon="1.39148">
        <ele>131</ele>
        <time>2023-06-13T16:12:13Z</time>
      </trkpt>
      <trkpt lat="43.66205" lon="1.39151">
        <ele>131</ele>
        <time>2023-06-13T16:12:14Z</time>
      </trkpt>
      <trkpt lat="43.66203" lon="1.39154">
        <ele>131</ele>
        <time>2023-06-13T16:12:15Z</time>
      </trkpt>
      <trkpt lat="43.66203" lon="1.39154">
        <ele>131</ele>
        <time>2023-06-13T16:12:16Z</time>
      </trkpt>
      <trkpt lat="43.66198" lon="1.39158">
        <ele>131</ele>
        <time>2023-06-13T16:12:17Z</time>
      </trkpt>
      <trkpt lat="43.66198" lon="1.39158">
        <ele>131</ele>
        <time>2023-06-13T16:12:18Z</time>
      </trkpt>
      <trkpt lat="43.66194" lon="1.39163">
        <ele>131</ele>
        <time>2023-06-13T16:12:19Z</time>
      </trkpt>
      <trkpt lat="43.66193" lon="1.39165">
        <ele>130</ele>
        <time>2023-06-13T16:12:20Z</time>
      </trkpt>
      <trkpt lat="43.66193" lon="1.39165">
        <ele>130</ele>
        <time>2023-06-13T16:12:21Z</time>
      </trkpt>
      <trkpt lat="43.6619" lon="1.39167">
        <ele>131</ele>
        <time>2023-06-13T16:12:22Z</time>
      </trkpt>
      <trkpt lat="43.66188" lon="1.39169">
        <ele>131</ele>
        <time>2023-06-13T16:12:23Z</time>
      </trkpt>
      <trkpt lat="43.66186" lon="1.39172">
        <ele>131</ele>
        <time>2023-06-13T16:12:24Z</time>
      </trkpt>
      <trkpt lat="43.66184" lon="1.39174">
        <ele>131</ele>
        <time>2023-06-13T16:12:25Z</time>
      </trkpt>
      <trkpt lat="43.66182" lon="1.39176">
        <ele>131</ele>
        <time>2023-06-13T16:12:26Z</time>
      </trkpt>
      <trkpt lat="43.6618" lon="1.39178">
        <ele>131</ele>
        <time>2023-06-13T16:12:27Z</time>
      </trkpt>
      <trkpt lat="43.66178" lon="1.39179">
        <ele>131</ele>
        <time>2023-06-13T16:12:28Z</time>
      </trkpt>
      <trkpt lat="43.66176" lon="1.39181">
        <ele>132</ele>
        <time>2023-06-13T16:12:29Z</time>
      </trkpt>
      <trkpt lat="43.6617" lon="1.39184">
        <ele>132</ele>
        <time>2023-06-13T16:12:30Z</time>
      </trkpt>
      <trkpt lat="43.66168" lon="1.39185">
        <ele>131</ele>
        <time>2023-06-13T16:12:31Z</time>
      </trkpt>
      <trkpt lat="43.66168" lon="1.39185">
        <ele>131</ele>
        <time>2023-06-13T16:12:32Z</time>
      </trkpt>
      <trkpt lat="43.66165" lon="1.39187">
        <ele>132</ele>
        <time>2023-06-13T16:12:33Z</time>
      </trkpt>
      <trkpt lat="43.66165" lon="1.39187">
        <ele>132</ele>
        <time>2023-06-13T16:12:34Z</time>
      </trkpt>
      <trkpt lat="43.66163" lon="1.39189">
        <ele>132</ele>
        <time>2023-06-13T16:12:35Z</time>
      </trkpt>
      <trkpt lat="43.66161" lon="1.39191">
        <ele>131</ele>
        <time>2023-06-13T16:12:36Z</time>
      </trkpt>
      <trkpt lat="43.66159" lon="1.39193">
        <ele>131</ele>
        <time>2023-06-13T16:12:37Z</time>
      </trkpt>
      <trkpt lat="43.66157" lon="1.39194">
        <ele>131</ele>
        <time>2023-06-13T16:12:38Z</time>
      </trkpt>
      <trkpt lat="43.66156" lon="1.39196">
        <ele>131</ele>
        <time>2023-06-13T16:12:39Z</time>
      </trkpt>
      <trkpt lat="43.66153" lon="1.39197">
        <ele>131</ele>
        <time>2023-06-13T16:12:40Z</time>
      </trkpt>
      <trkpt lat="43.6615" lon="1.39199">
        <ele>131</ele>
        <time>2023-06-13T16:12:41Z</time>
      </trkpt>
      <trkpt lat="43.66147" lon="1.392">
        <ele>131</ele>
        <time>2023-06-13T16:12:42Z</time>
      </trkpt>
      <trkpt lat="43.66144" lon="1.39201">
        <ele>131</ele>
        <time>2023-06-13T16:12:43Z</time>
      </trkpt>
      <trkpt lat="43.66142" lon="1.39201">
        <ele>131</ele>
        <time>2023-06-13T16:12:44Z</time>
      </trkpt>
      <trkpt lat="43.66139" lon="1.39202">
        <ele>131</ele>
        <time>2023-06-13T16:12:45Z</time>
      </trkpt>
      <trkpt lat="43.66135" lon="1.39203">
        <ele>131</ele>
        <time>2023-06-13T16:12:46Z</time>
      </trkpt>
      <trkpt lat="43.66131" lon="1.39204">
        <ele>131</ele>
        <time>2023-06-13T16:12:47Z</time>
      </trkpt>
      <trkpt lat="43.66128" lon="1.39205">
        <ele>131</ele>
        <time>2023-06-13T16:12:48Z</time>
      </trkpt>
      <trkpt lat="43.66123" lon="1.39205">
        <ele>131</ele>
        <time>2023-06-13T16:12:49Z</time>
      </trkpt>
      <trkpt lat="43.66122" lon="1.39206">
        <ele>131</ele>
        <time>2023-06-13T16:12:50Z</time>
      </trkpt>
      <trkpt lat="43.66122" lon="1.39206">
        <ele>131</ele>
        <time>2023-06-13T16:12:51Z</time>
      </trkpt>
      <trkpt lat="43.66119" lon="1.39206">
        <ele>131</ele>
        <time>2023-06-13T16:12:52Z</time>
      </trkpt>
      <trkpt lat="43.66116" lon="1.39207">
        <ele>132</ele>
        <time>2023-06-13T16:12:53Z</time>
      </trkpt>
      <trkpt lat="43.66114" lon="1.39208">
        <ele>132</ele>
        <time>2023-06-13T16:12:54Z</time>
      </trkpt>
      <trkpt lat="43.66111" lon="1.39208">
        <ele>131</ele>
        <time>2023-06-13T16:12:55Z</time>
      </trkpt>
      <trkpt lat="43.66108" lon="1.3921">
        <ele>131</ele>
        <time>2023-06-13T16:12:56Z</time>
      </trkpt>
      <trkpt lat="43.66106" lon="1.39212">
        <ele>131</ele>
        <time>2023-06-13T16:12:57Z</time>
      </trkpt>
      <trkpt lat="43.66103" lon="1.39214">
        <ele>131</ele>
        <time>2023-06-13T16:12:58Z</time>
      </trkpt>
      <trkpt lat="43.66101" lon="1.39216">
        <ele>131</ele>
        <time>2023-06-13T16:12:59Z</time>
      </trkpt>
      <trkpt lat="43.66098" lon="1.39218">
        <ele>131</ele>
        <time>2023-06-13T16:13:00Z</time>
      </trkpt>
      <trkpt lat="43.66095" lon="1.3922">
        <ele>131</ele>
        <time>2023-06-13T16:13:01Z</time>
      </trkpt>
      <trkpt lat="43.66093" lon="1.39221">
        <ele>132</ele>
        <time>2023-06-13T16:13:02Z</time>
      </trkpt>
      <trkpt lat="43.6609" lon="1.39223">
        <ele>132</ele>
        <time>2023-06-13T16:13:03Z</time>
      </trkpt>
      <trkpt lat="43.66089" lon="1.39224">
        <ele>132</ele>
        <time>2023-06-13T16:13:04Z</time>
      </trkpt>
      <trkpt lat="43.66087" lon="1.39224">
        <ele>132</ele>
        <time>2023-06-13T16:13:05Z</time>
      </trkpt>
      <trkpt lat="43.66086" lon="1.39224">
        <ele>132</ele>
        <time>2023-06-13T16:13:06Z</time>
      </trkpt>
      <trkpt lat="43.66084" lon="1.39225">
        <ele>132</ele>
        <time>2023-06-13T16:13:07Z</time>
      </trkpt>
      <trkpt lat="43.66076" lon="1.39227">
        <ele>131</ele>
        <time>2023-06-13T16:13:08Z</time>
      </trkpt>
      <trkpt lat="43.66073" lon="1.39227">
        <ele>131</ele>
        <time>2023-06-13T16:13:09Z</time>
      </trkpt>
      <trkpt lat="43.6607" lon="1.39227">
        <ele>131</ele>
        <time>2023-06-13T16:13:10Z</time>
      </trkpt>
      <trkpt lat="43.66067" lon="1.39227">
        <ele>131</ele>
        <time>2023-06-13T16:13:11Z</time>
      </trkpt>
      <trkpt lat="43.66065" lon="1.39228">
        <ele>131</ele>
        <time>2023-06-13T16:13:12Z</time>
      </trkpt>
      <trkpt lat="43.66062" lon="1.39229">
        <ele>131</ele>
        <time>2023-06-13T16:13:13Z</time>
      </trkpt>
      <trkpt lat="43.66059" lon="1.3923">
        <ele>131</ele>
        <time>2023-06-13T16:13:14Z</time>
      </trkpt>
      <trkpt lat="43.66054" lon="1.39231">
        <ele>131</ele>
        <time>2023-06-13T16:13:15Z</time>
      </trkpt>
      <trkpt lat="43.6605" lon="1.39232">
        <ele>131</ele>
        <time>2023-06-13T16:13:16Z</time>
      </trkpt>
      <trkpt lat="43.66047" lon="1.39232">
        <ele>131</ele>
        <time>2023-06-13T16:13:17Z</time>
      </trkpt>
      <trkpt lat="43.66047" lon="1.39232">
        <ele>131</ele>
        <time>2023-06-13T16:13:18Z</time>
      </trkpt>
      <trkpt lat="43.66044" lon="1.39232">
        <ele>131</ele>
        <time>2023-06-13T16:13:19Z</time>
      </trkpt>
      <trkpt lat="43.66041" lon="1.39232">
        <ele>131</ele>
        <time>2023-06-13T16:13:20Z</time>
      </trkpt>
      <trkpt lat="43.66038" lon="1.39232">
        <ele>131</ele>
        <time>2023-06-13T16:13:21Z</time>
      </trkpt>
      <trkpt lat="43.66035" lon="1.39232">
        <ele>131</ele>
        <time>2023-06-13T16:13:22Z</time>
      </trkpt>
      <trkpt lat="43.66034" lon="1.39232">
        <ele>131</ele>
        <time>2023-06-13T16:13:23Z</time>
      </trkpt>
      <trkpt lat="43.66033" lon="1.39233">
        <ele>131</ele>
        <time>2023-06-13T16:13:24Z</time>
      </trkpt>
      <trkpt lat="43.66031" lon="1.39233">
        <ele>131</ele>
        <time>2023-06-13T16:13:25Z</time>
      </trkpt>
      <trkpt lat="43.6603" lon="1.39234">
        <ele>131</ele>
        <time>2023-06-13T16:13:26Z</time>
      </trkpt>
      <trkpt lat="43.66022" lon="1.39237">
        <ele>131</ele>
        <time>2023-06-13T16:13:27Z</time>
      </trkpt>
      <trkpt lat="43.66019" lon="1.39238">
        <ele>131</ele>
        <time>2023-06-13T16:13:28Z</time>
      </trkpt>
      <trkpt lat="43.66016" lon="1.3924">
        <ele>131</ele>
        <time>2023-06-13T16:13:29Z</time>
      </trkpt>
      <trkpt lat="43.66013" lon="1.39241">
        <ele>131</ele>
        <time>2023-06-13T16:13:30Z</time>
      </trkpt>
      <trkpt lat="43.6601" lon="1.39242">
        <ele>131</ele>
        <time>2023-06-13T16:13:31Z</time>
      </trkpt>
      <trkpt lat="43.66007" lon="1.39243">
        <ele>131</ele>
        <time>2023-06-13T16:13:32Z</time>
      </trkpt>
      <trkpt lat="43.66007" lon="1.39243">
        <ele>131</ele>
        <time>2023-06-13T16:13:33Z</time>
      </trkpt>
      <trkpt lat="43.66004" lon="1.39244">
        <ele>131</ele>
        <time>2023-06-13T16:13:34Z</time>
      </trkpt>
      <trkpt lat="43.66002" lon="1.39246">
        <ele>131</ele>
        <time>2023-06-13T16:13:35Z</time>
      </trkpt>
      <trkpt lat="43.65999" lon="1.39247">
        <ele>132</ele>
        <time>2023-06-13T16:13:36Z</time>
      </trkpt>
      <trkpt lat="43.65997" lon="1.39249">
        <ele>132</ele>
        <time>2023-06-13T16:13:37Z</time>
      </trkpt>
      <trkpt lat="43.65994" lon="1.39249">
        <ele>132</ele>
        <time>2023-06-13T16:13:38Z</time>
      </trkpt>
      <trkpt lat="43.65994" lon="1.39249">
        <ele>131</ele>
        <time>2023-06-13T16:13:39Z</time>
      </trkpt>
      <trkpt lat="43.65987" lon="1.39249">
        <ele>131</ele>
        <time>2023-06-13T16:13:40Z</time>
      </trkpt>
      <trkpt lat="43.65984" lon="1.39249">
        <ele>131</ele>
        <time>2023-06-13T16:13:41Z</time>
      </trkpt>
      <trkpt lat="43.65984" lon="1.39249">
        <ele>131</ele>
        <time>2023-06-13T16:13:42Z</time>
      </trkpt>
      <trkpt lat="43.65981" lon="1.3925">
        <ele>131</ele>
        <time>2023-06-13T16:13:43Z</time>
      </trkpt>
      <trkpt lat="43.65978" lon="1.39252">
        <ele>131</ele>
        <time>2023-06-13T16:13:44Z</time>
      </trkpt>
      <trkpt lat="43.65975" lon="1.39253">
        <ele>131</ele>
        <time>2023-06-13T16:13:45Z</time>
      </trkpt>
      <trkpt lat="43.65972" lon="1.39255">
        <ele>131</ele>
        <time>2023-06-13T16:13:46Z</time>
      </trkpt>
      <trkpt lat="43.65969" lon="1.39255">
        <ele>131</ele>
        <time>2023-06-13T16:13:47Z</time>
      </trkpt>
      <trkpt lat="43.65966" lon="1.39256">
        <ele>131</ele>
        <time>2023-06-13T16:13:48Z</time>
      </trkpt>
      <trkpt lat="43.65963" lon="1.39256">
        <ele>131</ele>
        <time>2023-06-13T16:13:49Z</time>
      </trkpt>
      <trkpt lat="43.6596" lon="1.39257">
        <ele>131</ele>
        <time>2023-06-13T16:13:50Z</time>
      </trkpt>
      <trkpt lat="43.6596" lon="1.39257">
        <ele>131</ele>
        <time>2023-06-13T16:13:51Z</time>
      </trkpt>
      <trkpt lat="43.65955" lon="1.39258">
        <ele>131</ele>
        <time>2023-06-13T16:13:52Z</time>
      </trkpt>
      <trkpt lat="43.65955" lon="1.39258">
        <ele>131</ele>
        <time>2023-06-13T16:13:53Z</time>
      </trkpt>
      <trkpt lat="43.65949" lon="1.39259">
        <ele>131</ele>
        <time>2023-06-13T16:13:54Z</time>
      </trkpt>
      <trkpt lat="43.65949" lon="1.39259">
        <ele>131</ele>
        <time>2023-06-13T16:13:55Z</time>
      </trkpt>
      <trkpt lat="43.65942" lon="1.3926">
        <ele>131</ele>
        <time>2023-06-13T16:13:56Z</time>
      </trkpt>
      <trkpt lat="43.65939" lon="1.3926">
        <ele>131</ele>
        <time>2023-06-13T16:13:57Z</time>
      </trkpt>
      <trkpt lat="43.65937" lon="1.3926">
        <ele>131</ele>
        <time>2023-06-13T16:13:58Z</time>
      </trkpt>
      <trkpt lat="43.65934" lon="1.3926">
        <ele>131</ele>
        <time>2023-06-13T16:13:59Z</time>
      </trkpt>
      <trkpt lat="43.65932" lon="1.3926">
        <ele>132</ele>
        <time>2023-06-13T16:14:00Z</time>
      </trkpt>
      <trkpt lat="43.65929" lon="1.39261">
        <ele>132</ele>
        <time>2023-06-13T16:14:01Z</time>
      </trkpt>
      <trkpt lat="43.65926" lon="1.39262">
        <ele>132</ele>
        <time>2023-06-13T16:14:02Z</time>
      </trkpt>
      <trkpt lat="43.65926" lon="1.39262">
        <ele>132</ele>
        <time>2023-06-13T16:14:03Z</time>
      </trkpt>
      <trkpt lat="43.65921" lon="1.39262">
        <ele>132</ele>
        <time>2023-06-13T16:14:04Z</time>
      </trkpt>
      <trkpt lat="43.65921" lon="1.39262">
        <ele>132</ele>
        <time>2023-06-13T16:14:05Z</time>
      </trkpt>
      <trkpt lat="43.65915" lon="1.3926">
        <ele>131</ele>
        <time>2023-06-13T16:14:06Z</time>
      </trkpt>
      <trkpt lat="43.65915" lon="1.3926">
        <ele>131</ele>
        <time>2023-06-13T16:14:07Z</time>
      </trkpt>
      <trkpt lat="43.65909" lon="1.39258">
        <ele>131</ele>
        <time>2023-06-13T16:14:08Z</time>
      </trkpt>
      <trkpt lat="43.65907" lon="1.39257">
        <ele>131</ele>
        <time>2023-06-13T16:14:09Z</time>
      </trkpt>
      <trkpt lat="43.65907" lon="1.39257">
        <ele>131</ele>
        <time>2023-06-13T16:14:10Z</time>
      </trkpt>
      <trkpt lat="43.65901" lon="1.39256">
        <ele>131</ele>
        <time>2023-06-13T16:14:11Z</time>
      </trkpt>
      <trkpt lat="43.65899" lon="1.39257">
        <ele>131</ele>
        <time>2023-06-13T16:14:12Z</time>
      </trkpt>
      <trkpt lat="43.65899" lon="1.39257">
        <ele>131</ele>
        <time>2023-06-13T16:14:13Z</time>
      </trkpt>
      <trkpt lat="43.65894" lon="1.39256">
        <ele>131</ele>
        <time>2023-06-13T16:14:14Z</time>
      </trkpt>
      <trkpt lat="43.65894" lon="1.39256">
        <ele>131</ele>
        <time>2023-06-13T16:14:15Z</time>
      </trkpt>
      <trkpt lat="43.65891" lon="1.39256">
        <ele>131</ele>
        <time>2023-06-13T16:14:16Z</time>
      </trkpt>
      <trkpt lat="43.65888" lon="1.39257">
        <ele>131</ele>
        <time>2023-06-13T16:14:17Z</time>
      </trkpt>
      <trkpt lat="43.65884" lon="1.39258">
        <ele>131</ele>
        <time>2023-06-13T16:14:18Z</time>
      </trkpt>
      <trkpt lat="43.6588" lon="1.39259">
        <ele>131</ele>
        <time>2023-06-13T16:14:19Z</time>
      </trkpt>
      <trkpt lat="43.6588" lon="1.39259">
        <ele>131</ele>
        <time>2023-06-13T16:14:20Z</time>
      </trkpt>
      <trkpt lat="43.65873" lon="1.39258">
        <ele>131</ele>
        <time>2023-06-13T16:14:21Z</time>
      </trkpt>
      <trkpt lat="43.65873" lon="1.39258">
        <ele>131</ele>
        <time>2023-06-13T16:14:22Z</time>
      </trkpt>
      <trkpt lat="43.65867" lon="1.39254">
        <ele>131</ele>
        <time>2023-06-13T16:14:23Z</time>
      </trkpt>
      <trkpt lat="43.65865" lon="1.39251">
        <ele>131</ele>
        <time>2023-06-13T16:14:24Z</time>
      </trkpt>
      <trkpt lat="43.65863" lon="1.3925">
        <ele>131</ele>
        <time>2023-06-13T16:14:25Z</time>
      </trkpt>
      <trkpt lat="43.65861" lon="1.39248">
        <ele>131</ele>
        <time>2023-06-13T16:14:26Z</time>
      </trkpt>
      <trkpt lat="43.65859" lon="1.39246">
        <ele>131</ele>
        <time>2023-06-13T16:14:27Z</time>
      </trkpt>
      <trkpt lat="43.65856" lon="1.39244">
        <ele>131</ele>
        <time>2023-06-13T16:14:28Z</time>
      </trkpt>
      <trkpt lat="43.65856" lon="1.39244">
        <ele>131</ele>
        <time>2023-06-13T16:14:29Z</time>
      </trkpt>
      <trkpt lat="43.65852" lon="1.39241">
        <ele>131</ele>
        <time>2023-06-13T16:14:30Z</time>
      </trkpt>
      <trkpt lat="43.6585" lon="1.3924">
        <ele>132</ele>
        <time>2023-06-13T16:14:31Z</time>
      </trkpt>
      <trkpt lat="43.65848" lon="1.39238">
        <ele>132</ele>
        <time>2023-06-13T16:14:32Z</time>
      </trkpt>
      <trkpt lat="43.65845" lon="1.39237">
        <ele>132</ele>
        <time>2023-06-13T16:14:33Z</time>
      </trkpt>
      <trkpt lat="43.65845" lon="1.39237">
        <ele>132</ele>
        <time>2023-06-13T16:14:34Z</time>
      </trkpt>
      <trkpt lat="43.6584" lon="1.39235">
        <ele>132</ele>
        <time>2023-06-13T16:14:35Z</time>
      </trkpt>
      <trkpt lat="43.6584" lon="1.39235">
        <ele>132</ele>
        <time>2023-06-13T16:14:36Z</time>
      </trkpt>
      <trkpt lat="43.65835" lon="1.39233">
        <ele>132</ele>
        <time>2023-06-13T16:14:37Z</time>
      </trkpt>
      <trkpt lat="43.65835" lon="1.39233">
        <ele>132</ele>
        <time>2023-06-13T16:14:38Z</time>
      </trkpt>
      <trkpt lat="43.6583" lon="1.39231">
        <ele>132</ele>
        <time>2023-06-13T16:14:39Z</time>
      </trkpt>
      <trkpt lat="43.65826" lon="1.3923">
        <ele>132</ele>
        <time>2023-06-13T16:14:40Z</time>
      </trkpt>
      <trkpt lat="43.65823" lon="1.39229">
        <ele>132</ele>
        <time>2023-06-13T16:14:41Z</time>
      </trkpt>
      <trkpt lat="43.6582" lon="1.39227">
        <ele>132</ele>
        <time>2023-06-13T16:14:42Z</time>
      </trkpt>
      <trkpt lat="43.65817" lon="1.39226">
        <ele>132</ele>
        <time>2023-06-13T16:14:43Z</time>
      </trkpt>
      <trkpt lat="43.65817" lon="1.39226">
        <ele>132</ele>
        <time>2023-06-13T16:14:44Z</time>
      </trkpt>
      <trkpt lat="43.65812" lon="1.39223">
        <ele>132</ele>
        <time>2023-06-13T16:14:45Z</time>
      </trkpt>
      <trkpt lat="43.65809" lon="1.39222">
        <ele>132</ele>
        <time>2023-06-13T16:14:46Z</time>
      </trkpt>
      <trkpt lat="43.65809" lon="1.39222">
        <ele>132</ele>
        <time>2023-06-13T16:14:47Z</time>
      </trkpt>
      <trkpt lat="43.65803" lon="1.3922">
        <ele>132</ele>
        <time>2023-06-13T16:14:48Z</time>
      </trkpt>
      <trkpt lat="43.65803" lon="1.3922">
        <ele>132</ele>
        <time>2023-06-13T16:14:49Z</time>
      </trkpt>
      <trkpt lat="43.65799" lon="1.3922">
        <ele>132</ele>
        <time>2023-06-13T16:14:50Z</time>
      </trkpt>
      <trkpt lat="43.65792" lon="1.39219">
        <ele>132</ele>
        <time>2023-06-13T16:14:51Z</time>
      </trkpt>
      <trkpt lat="43.6579" lon="1.39218">
        <ele>132</ele>
        <time>2023-06-13T16:14:52Z</time>
      </trkpt>
      <trkpt lat="43.65787" lon="1.39215">
        <ele>131</ele>
        <time>2023-06-13T16:14:53Z</time>
      </trkpt>
      <trkpt lat="43.65785" lon="1.39213">
        <ele>132</ele>
        <time>2023-06-13T16:14:54Z</time>
      </trkpt>
      <trkpt lat="43.65785" lon="1.39213">
        <ele>132</ele>
        <time>2023-06-13T16:14:55Z</time>
      </trkpt>
      <trkpt lat="43.65779" lon="1.39208">
        <ele>133</ele>
        <time>2023-06-13T16:14:56Z</time>
      </trkpt>
      <trkpt lat="43.65779" lon="1.39208">
        <ele>133</ele>
        <time>2023-06-13T16:14:57Z</time>
      </trkpt>
      <trkpt lat="43.65777" lon="1.39205">
        <ele>133</ele>
        <time>2023-06-13T16:14:58Z</time>
      </trkpt>
      <trkpt lat="43.65772" lon="1.39201">
        <ele>133</ele>
        <time>2023-06-13T16:14:59Z</time>
      </trkpt>
      <trkpt lat="43.6577" lon="1.39198">
        <ele>133</ele>
        <time>2023-06-13T16:15:00Z</time>
      </trkpt>
      <trkpt lat="43.65768" lon="1.39197">
        <ele>133</ele>
        <time>2023-06-13T16:15:01Z</time>
      </trkpt>
      <trkpt lat="43.65765" lon="1.39195">
        <ele>133</ele>
        <time>2023-06-13T16:15:02Z</time>
      </trkpt>
      <trkpt lat="43.65763" lon="1.39193">
        <ele>133</ele>
        <time>2023-06-13T16:15:03Z</time>
      </trkpt>
      <trkpt lat="43.65761" lon="1.39191">
        <ele>133</ele>
        <time>2023-06-13T16:15:04Z</time>
      </trkpt>
      <trkpt lat="43.65759" lon="1.39189">
        <ele>133</ele>
        <time>2023-06-13T16:15:05Z</time>
      </trkpt>
      <trkpt lat="43.65756" lon="1.39188">
        <ele>133</ele>
        <time>2023-06-13T16:15:06Z</time>
      </trkpt>
      <trkpt lat="43.65753" lon="1.39186">
        <ele>133</ele>
        <time>2023-06-13T16:15:07Z</time>
      </trkpt>
      <trkpt lat="43.6575" lon="1.39184">
        <ele>133</ele>
        <time>2023-06-13T16:15:08Z</time>
      </trkpt>
      <trkpt lat="43.65747" lon="1.39182">
        <ele>133</ele>
        <time>2023-06-13T16:15:09Z</time>
      </trkpt>
      <trkpt lat="43.65744" lon="1.3918">
        <ele>133</ele>
        <time>2023-06-13T16:15:10Z</time>
      </trkpt>
      <trkpt lat="43.65744" lon="1.3918">
        <ele>133</ele>
        <time>2023-06-13T16:15:11Z</time>
      </trkpt>
      <trkpt lat="43.65739" lon="1.39176">
        <ele>133</ele>
        <time>2023-06-13T16:15:12Z</time>
      </trkpt>
      <trkpt lat="43.65739" lon="1.39176">
        <ele>133</ele>
        <time>2023-06-13T16:15:13Z</time>
      </trkpt>
      <trkpt lat="43.65733" lon="1.39172">
        <ele>133</ele>
        <time>2023-06-13T16:15:14Z</time>
      </trkpt>
      <trkpt lat="43.6573" lon="1.39171">
        <ele>133</ele>
        <time>2023-06-13T16:15:15Z</time>
      </trkpt>
      <trkpt lat="43.65727" lon="1.3917">
        <ele>133</ele>
        <time>2023-06-13T16:15:16Z</time>
      </trkpt>
      <trkpt lat="43.65725" lon="1.39169">
        <ele>133</ele>
        <time>2023-06-13T16:15:17Z</time>
      </trkpt>
      <trkpt lat="43.65723" lon="1.39167">
        <ele>133</ele>
        <time>2023-06-13T16:15:18Z</time>
      </trkpt>
      <trkpt lat="43.65723" lon="1.39167">
        <ele>133</ele>
        <time>2023-06-13T16:15:19Z</time>
      </trkpt>
      <trkpt lat="43.65719" lon="1.39164">
        <ele>133</ele>
        <time>2023-06-13T16:15:20Z</time>
      </trkpt>
      <trkpt lat="43.65719" lon="1.39164">
        <ele>133</ele>
        <time>2023-06-13T16:15:21Z</time>
      </trkpt>
      <trkpt lat="43.65714" lon="1.39159">
        <ele>133</ele>
        <time>2023-06-13T16:15:22Z</time>
      </trkpt>
      <trkpt lat="43.65714" lon="1.39159">
        <ele>133</ele>
        <time>2023-06-13T16:15:23Z</time>
      </trkpt>
      <trkpt lat="43.65712" lon="1.39157">
        <ele>133</ele>
        <time>2023-06-13T16:15:24Z</time>
      </trkpt>
      <trkpt lat="43.65707" lon="1.39153">
        <ele>133</ele>
        <time>2023-06-13T16:15:25Z</time>
      </trkpt>
      <trkpt lat="43.65705" lon="1.39151">
        <ele>133</ele>
        <time>2023-06-13T16:15:26Z</time>
      </trkpt>
      <trkpt lat="43.65702" lon="1.39149">
        <ele>133</ele>
        <time>2023-06-13T16:15:27Z</time>
      </trkpt>
      <trkpt lat="43.65702" lon="1.39149">
        <ele>133</ele>
        <time>2023-06-13T16:15:28Z</time>
      </trkpt>
      <trkpt lat="43.65697" lon="1.39145">
        <ele>133</ele>
        <time>2023-06-13T16:15:29Z</time>
      </trkpt>
      <trkpt lat="43.65694" lon="1.39142">
        <ele>133</ele>
        <time>2023-06-13T16:15:30Z</time>
      </trkpt>
      <trkpt lat="43.65694" lon="1.39142">
        <ele>133</ele>
        <time>2023-06-13T16:15:31Z</time>
      </trkpt>
      <trkpt lat="43.65689" lon="1.39138">
        <ele>133</ele>
        <time>2023-06-13T16:15:32Z</time>
      </trkpt>
      <trkpt lat="43.65687" lon="1.39137">
        <ele>133</ele>
        <time>2023-06-13T16:15:33Z</time>
      </trkpt>
      <trkpt lat="43.65684" lon="1.39136">
        <ele>132</ele>
        <time>2023-06-13T16:15:34Z</time>
      </trkpt>
      <trkpt lat="43.65682" lon="1.39134">
        <ele>132</ele>
        <time>2023-06-13T16:15:35Z</time>
      </trkpt>
      <trkpt lat="43.65682" lon="1.39134">
        <ele>132</ele>
        <time>2023-06-13T16:15:36Z</time>
      </trkpt>
      <trkpt lat="43.65676" lon="1.39131">
        <ele>132</ele>
        <time>2023-06-13T16:15:37Z</time>
      </trkpt>
      <trkpt lat="43.65676" lon="1.39131">
        <ele>132</ele>
        <time>2023-06-13T16:15:38Z</time>
      </trkpt>
      <trkpt lat="43.6567" lon="1.39127">
        <ele>132</ele>
        <time>2023-06-13T16:15:39Z</time>
      </trkpt>
      <trkpt lat="43.65666" lon="1.39126">
        <ele>132</ele>
        <time>2023-06-13T16:15:40Z</time>
      </trkpt>
      <trkpt lat="43.65663" lon="1.39124">
        <ele>132</ele>
        <time>2023-06-13T16:15:41Z</time>
      </trkpt>
      <trkpt lat="43.65661" lon="1.39122">
        <ele>132</ele>
        <time>2023-06-13T16:15:42Z</time>
      </trkpt>
      <trkpt lat="43.65661" lon="1.39122">
        <ele>132</ele>
        <time>2023-06-13T16:15:43Z</time>
      </trkpt>
      <trkpt lat="43.65655" lon="1.39118">
        <ele>132</ele>
        <time>2023-06-13T16:15:44Z</time>
      </trkpt>
      <trkpt lat="43.65655" lon="1.39118">
        <ele>132</ele>
        <time>2023-06-13T16:15:45Z</time>
      </trkpt>
      <trkpt lat="43.6565" lon="1.39115">
        <ele>133</ele>
        <time>2023-06-13T16:15:46Z</time>
      </trkpt>
      <trkpt lat="43.6565" lon="1.39115">
        <ele>133</ele>
        <time>2023-06-13T16:15:47Z</time>
      </trkpt>
      <trkpt lat="43.65646" lon="1.39112">
        <ele>133</ele>
        <time>2023-06-13T16:15:48Z</time>
      </trkpt>
      <trkpt lat="43.65643" lon="1.3911">
        <ele>133</ele>
        <time>2023-06-13T16:15:49Z</time>
      </trkpt>
      <trkpt lat="43.65643" lon="1.3911">
        <ele>133</ele>
        <time>2023-06-13T16:15:50Z</time>
      </trkpt>
      <trkpt lat="43.65638" lon="1.39106">
        <ele>133</ele>
        <time>2023-06-13T16:15:51Z</time>
      </trkpt>
      <trkpt lat="43.65636" lon="1.39105">
        <ele>133</ele>
        <time>2023-06-13T16:15:52Z</time>
      </trkpt>
      <trkpt lat="43.65633" lon="1.39103">
        <ele>133</ele>
        <time>2023-06-13T16:15:53Z</time>
      </trkpt>
      <trkpt lat="43.6563" lon="1.39102">
        <ele>133</ele>
        <time>2023-06-13T16:15:54Z</time>
      </trkpt>
      <trkpt lat="43.6563" lon="1.39102">
        <ele>133</ele>
        <time>2023-06-13T16:15:55Z</time>
      </trkpt>
      <trkpt lat="43.65625" lon="1.39098">
        <ele>133</ele>
        <time>2023-06-13T16:15:56Z</time>
      </trkpt>
      <trkpt lat="43.65625" lon="1.39098">
        <ele>133</ele>
        <time>2023-06-13T16:15:57Z</time>
      </trkpt>
      <trkpt lat="43.6562" lon="1.39094">
        <ele>133</ele>
        <time>2023-06-13T16:15:58Z</time>
      </trkpt>
      <trkpt lat="43.6562" lon="1.39094">
        <ele>133</ele>
        <time>2023-06-13T16:15:59Z</time>
      </trkpt>
      <trkpt lat="43.65615" lon="1.39091">
        <ele>133</ele>
        <time>2023-06-13T16:16:00Z</time>
      </trkpt>
      <trkpt lat="43.65613" lon="1.39089">
        <ele>133</ele>
        <time>2023-06-13T16:16:01Z</time>
      </trkpt>
      <trkpt lat="43.65613" lon="1.39089">
        <ele>133</ele>
        <time>2023-06-13T16:16:02Z</time>
      </trkpt>
      <trkpt lat="43.65609" lon="1.39086">
        <ele>133</ele>
        <time>2023-06-13T16:16:03Z</time>
      </trkpt>
      <trkpt lat="43.65609" lon="1.39086">
        <ele>133</ele>
        <time>2023-06-13T16:16:04Z</time>
      </trkpt>
      <trkpt lat="43.65604" lon="1.39082">
        <ele>134</ele>
        <time>2023-06-13T16:16:05Z</time>
      </trkpt>
      <trkpt lat="43.65604" lon="1.39082">
        <ele>134</ele>
        <time>2023-06-13T16:16:06Z</time>
      </trkpt>
      <trkpt lat="43.65598" lon="1.39079">
        <ele>133</ele>
        <time>2023-06-13T16:16:07Z</time>
      </trkpt>
      <trkpt lat="43.65596" lon="1.39078">
        <ele>133</ele>
        <time>2023-06-13T16:16:08Z</time>
      </trkpt>
      <trkpt lat="43.65596" lon="1.39078">
        <ele>133</ele>
        <time>2023-06-13T16:16:09Z</time>
      </trkpt>
      <trkpt lat="43.65591" lon="1.39075">
        <ele>133</ele>
        <time>2023-06-13T16:16:10Z</time>
      </trkpt>
      <trkpt lat="43.65591" lon="1.39075">
        <ele>134</ele>
        <time>2023-06-13T16:16:11Z</time>
      </trkpt>
      <trkpt lat="43.65585" lon="1.39072">
        <ele>134</ele>
        <time>2023-06-13T16:16:12Z</time>
      </trkpt>
      <trkpt lat="43.65585" lon="1.39072">
        <ele>134</ele>
        <time>2023-06-13T16:16:13Z</time>
      </trkpt>
      <trkpt lat="43.65582" lon="1.3907">
        <ele>134</ele>
        <time>2023-06-13T16:16:14Z</time>
      </trkpt>
      <trkpt lat="43.6558" lon="1.39068">
        <ele>134</ele>
        <time>2023-06-13T16:16:15Z</time>
      </trkpt>
      <trkpt lat="43.65574" lon="1.39064">
        <ele>134</ele>
        <time>2023-06-13T16:16:16Z</time>
      </trkpt>
      <trkpt lat="43.65572" lon="1.39062">
        <ele>134</ele>
        <time>2023-06-13T16:16:17Z</time>
      </trkpt>
      <trkpt lat="43.65572" lon="1.39062">
        <ele>133</ele>
        <time>2023-06-13T16:16:18Z</time>
      </trkpt>
      <trkpt lat="43.65567" lon="1.39059">
        <ele>133</ele>
        <time>2023-06-13T16:16:19Z</time>
      </trkpt>
      <trkpt lat="43.65564" lon="1.39058">
        <ele>133</ele>
        <time>2023-06-13T16:16:20Z</time>
      </trkpt>
      <trkpt lat="43.65564" lon="1.39058">
        <ele>133</ele>
        <time>2023-06-13T16:16:21Z</time>
      </trkpt>
      <trkpt lat="43.6556" lon="1.39054">
        <ele>133</ele>
        <time>2023-06-13T16:16:22Z</time>
      </trkpt>
      <trkpt lat="43.6556" lon="1.39054">
        <ele>133</ele>
        <time>2023-06-13T16:16:23Z</time>
      </trkpt>
      <trkpt lat="43.65555" lon="1.3905">
        <ele>133</ele>
        <time>2023-06-13T16:16:24Z</time>
      </trkpt>
      <trkpt lat="43.65555" lon="1.3905">
        <ele>133</ele>
        <time>2023-06-13T16:16:25Z</time>
      </trkpt>
      <trkpt lat="43.6555" lon="1.39046">
        <ele>133</ele>
        <time>2023-06-13T16:16:26Z</time>
      </trkpt>
      <trkpt lat="43.65547" lon="1.39045">
        <ele>133</ele>
        <time>2023-06-13T16:16:27Z</time>
      </trkpt>
      <trkpt lat="43.65547" lon="1.39045">
        <ele>133</ele>
        <time>2023-06-13T16:16:28Z</time>
      </trkpt>
      <trkpt lat="43.65542" lon="1.39041">
        <ele>133</ele>
        <time>2023-06-13T16:16:29Z</time>
      </trkpt>
      <trkpt lat="43.65542" lon="1.39041">
        <ele>133</ele>
        <time>2023-06-13T16:16:30Z</time>
      </trkpt>
      <trkpt lat="43.65537" lon="1.39039">
        <ele>133</ele>
        <time>2023-06-13T16:16:31Z</time>
      </trkpt>
      <trkpt lat="43.65534" lon="1.39037">
        <ele>133</ele>
        <time>2023-06-13T16:16:32Z</time>
      </trkpt>
      <trkpt lat="43.65529" lon="1.39035">
        <ele>133</ele>
        <time>2023-06-13T16:16:34Z</time>
      </trkpt>
      <trkpt lat="43.65529" lon="1.39035">
        <ele>133</ele>
        <time>2023-06-13T16:16:35Z</time>
      </trkpt>
      <trkpt lat="43.65524" lon="1.39032">
        <ele>133</ele>
        <time>2023-06-13T16:16:36Z</time>
      </trkpt>
      <trkpt lat="43.65521" lon="1.39031">
        <ele>133</ele>
        <time>2023-06-13T16:16:37Z</time>
      </trkpt>
      <trkpt lat="43.65519" lon="1.39029">
        <ele>133</ele>
        <time>2023-06-13T16:16:38Z</time>
      </trkpt>
      <trkpt lat="43.65517" lon="1.39027">
        <ele>134</ele>
        <time>2023-06-13T16:16:39Z</time>
      </trkpt>
      <trkpt lat="43.65514" lon="1.39026">
        <ele>134</ele>
        <time>2023-06-13T16:16:40Z</time>
      </trkpt>
      <trkpt lat="43.65512" lon="1.39024">
        <ele>134</ele>
        <time>2023-06-13T16:16:41Z</time>
      </trkpt>
      <trkpt lat="43.65512" lon="1.39024">
        <ele>134</ele>
        <time>2023-06-13T16:16:42Z</time>
      </trkpt>
      <trkpt lat="43.65506" lon="1.39023">
        <ele>134</ele>
        <time>2023-06-13T16:16:43Z</time>
      </trkpt>
      <trkpt lat="43.65506" lon="1.39023">
        <ele>134</ele>
        <time>2023-06-13T16:16:44Z</time>
      </trkpt>
      <trkpt lat="43.65501" lon="1.39022">
        <ele>134</ele>
        <time>2023-06-13T16:16:45Z</time>
      </trkpt>
      <trkpt lat="43.65498" lon="1.39021">
        <ele>134</ele>
        <time>2023-06-13T16:16:46Z</time>
      </trkpt>
      <trkpt lat="43.65496" lon="1.3902">
        <ele>134</ele>
        <time>2023-06-13T16:16:47Z</time>
      </trkpt>
      <trkpt lat="43.65493" lon="1.39019">
        <ele>134</ele>
        <time>2023-06-13T16:16:48Z</time>
      </trkpt>
      <trkpt lat="43.65493" lon="1.39019">
        <ele>134</ele>
        <time>2023-06-13T16:16:49Z</time>
      </trkpt>
      <trkpt lat="43.65488" lon="1.39017">
        <ele>134</ele>
        <time>2023-06-13T16:16:50Z</time>
      </trkpt>
      <trkpt lat="43.65488" lon="1.39017">
        <ele>134</ele>
        <time>2023-06-13T16:16:51Z</time>
      </trkpt>
      <trkpt lat="43.65485" lon="1.39015">
        <ele>134</ele>
        <time>2023-06-13T16:16:52Z</time>
      </trkpt>
      <trkpt lat="43.65484" lon="1.39014">
        <ele>135</ele>
        <time>2023-06-13T16:16:53Z</time>
      </trkpt>
      <trkpt lat="43.65481" lon="1.39013">
        <ele>135</ele>
        <time>2023-06-13T16:16:54Z</time>
      </trkpt>
      <trkpt lat="43.65477" lon="1.39009">
        <ele>135</ele>
        <time>2023-06-13T16:16:55Z</time>
      </trkpt>
      <trkpt lat="43.65475" lon="1.39008">
        <ele>135</ele>
        <time>2023-06-13T16:16:56Z</time>
      </trkpt>
      <trkpt lat="43.65473" lon="1.39006">
        <ele>135</ele>
        <time>2023-06-13T16:16:57Z</time>
      </trkpt>
      <trkpt lat="43.65471" lon="1.39005">
        <ele>135</ele>
        <time>2023-06-13T16:16:58Z</time>
      </trkpt>
      <trkpt lat="43.65469" lon="1.39002">
        <ele>135</ele>
        <time>2023-06-13T16:16:59Z</time>
      </trkpt>
      <trkpt lat="43.65467" lon="1.39">
        <ele>135</ele>
        <time>2023-06-13T16:17:00Z</time>
      </trkpt>
      <trkpt lat="43.65467" lon="1.39">
        <ele>135</ele>
        <time>2023-06-13T16:17:01Z</time>
      </trkpt>
      <trkpt lat="43.65465" lon="1.38993">
        <ele>135</ele>
        <time>2023-06-13T16:17:02Z</time>
      </trkpt>
      <trkpt lat="43.65462" lon="1.38989">
        <ele>135</ele>
        <time>2023-06-13T16:17:03Z</time>
      </trkpt>
      <trkpt lat="43.65461" lon="1.38984">
        <ele>135</ele>
        <time>2023-06-13T16:17:04Z</time>
      </trkpt>
      <trkpt lat="43.65461" lon="1.38984">
        <ele>135</ele>
        <time>2023-06-13T16:17:05Z</time>
      </trkpt>
      <trkpt lat="43.65457" lon="1.38977">
        <ele>135</ele>
        <time>2023-06-13T16:17:06Z</time>
      </trkpt>
      <trkpt lat="43.65456" lon="1.38973">
        <ele>135</ele>
        <time>2023-06-13T16:17:07Z</time>
      </trkpt>
      <trkpt lat="43.65455" lon="1.38969">
        <ele>135</ele>
        <time>2023-06-13T16:17:08Z</time>
      </trkpt>
      <trkpt lat="43.65454" lon="1.38966">
        <ele>135</ele>
        <time>2023-06-13T16:17:09Z</time>
      </trkpt>
      <trkpt lat="43.65454" lon="1.38966">
        <ele>135</ele>
        <time>2023-06-13T16:17:10Z</time>
      </trkpt>
      <trkpt lat="43.65452" lon="1.38962">
        <ele>135</ele>
        <time>2023-06-13T16:17:11Z</time>
      </trkpt>
      <trkpt lat="43.65448" lon="1.38955">
        <ele>135</ele>
        <time>2023-06-13T16:17:12Z</time>
      </trkpt>
      <trkpt lat="43.65448" lon="1.38955">
        <ele>135</ele>
        <time>2023-06-13T16:17:13Z</time>
      </trkpt>
      <trkpt lat="43.65447" lon="1.38952">
        <ele>135</ele>
        <time>2023-06-13T16:17:14Z</time>
      </trkpt>
      <trkpt lat="43.65445" lon="1.38946">
        <ele>135</ele>
        <time>2023-06-13T16:17:15Z</time>
      </trkpt>
      <trkpt lat="43.65444" lon="1.38943">
        <ele>135</ele>
        <time>2023-06-13T16:17:16Z</time>
      </trkpt>
      <trkpt lat="43.65444" lon="1.38943">
        <ele>136</ele>
        <time>2023-06-13T16:17:17Z</time>
      </trkpt>
      <trkpt lat="43.65441" lon="1.38938">
        <ele>137</ele>
        <time>2023-06-13T16:17:18Z</time>
      </trkpt>
      <trkpt lat="43.6544" lon="1.38936">
        <ele>137</ele>
        <time>2023-06-13T16:17:19Z</time>
      </trkpt>
      <trkpt lat="43.6544" lon="1.38936">
        <ele>138</ele>
        <time>2023-06-13T16:17:20Z</time>
      </trkpt>
      <trkpt lat="43.65439" lon="1.38933">
        <ele>138</ele>
        <time>2023-06-13T16:17:21Z</time>
      </trkpt>
      <trkpt lat="43.65437" lon="1.38931">
        <ele>139</ele>
        <time>2023-06-13T16:17:22Z</time>
      </trkpt>
      <trkpt lat="43.65436" lon="1.38928">
        <ele>139</ele>
        <time>2023-06-13T16:17:23Z</time>
      </trkpt>
      <trkpt lat="43.65433" lon="1.38926">
        <ele>140</ele>
        <time>2023-06-13T16:17:24Z</time>
      </trkpt>
      <trkpt lat="43.6543" lon="1.38921">
        <ele>140</ele>
        <time>2023-06-13T16:17:25Z</time>
      </trkpt>
      <trkpt lat="43.6543" lon="1.38921">
        <ele>141</ele>
        <time>2023-06-13T16:17:26Z</time>
      </trkpt>
      <trkpt lat="43.6543" lon="1.38921">
        <ele>141</ele>
        <time>2023-06-13T16:17:27Z</time>
      </trkpt>
      <trkpt lat="43.65426" lon="1.38916">
        <ele>141</ele>
        <time>2023-06-13T16:17:28Z</time>
      </trkpt>
      <trkpt lat="43.65426" lon="1.38916">
        <ele>142</ele>
        <time>2023-06-13T16:17:29Z</time>
      </trkpt>
      <trkpt lat="43.65425" lon="1.38914">
        <ele>142</ele>
        <time>2023-06-13T16:17:30Z</time>
      </trkpt>
      <trkpt lat="43.65423" lon="1.38908">
        <ele>142</ele>
        <time>2023-06-13T16:17:31Z</time>
      </trkpt>
      <trkpt lat="43.65423" lon="1.38908">
        <ele>142</ele>
        <time>2023-06-13T16:17:32Z</time>
      </trkpt>
      <trkpt lat="43.65421" lon="1.38901">
        <ele>142</ele>
        <time>2023-06-13T16:17:33Z</time>
      </trkpt>
      <trkpt lat="43.65421" lon="1.38901">
        <ele>142</ele>
        <time>2023-06-13T16:17:34Z</time>
      </trkpt>
      <trkpt lat="43.65419" lon="1.38895">
        <ele>142</ele>
        <time>2023-06-13T16:17:35Z</time>
      </trkpt>
      <trkpt lat="43.65418" lon="1.38891">
        <ele>142</ele>
        <time>2023-06-13T16:17:36Z</time>
      </trkpt>
      <trkpt lat="43.65417" lon="1.38887">
        <ele>142</ele>
        <time>2023-06-13T16:17:37Z</time>
      </trkpt>
      <trkpt lat="43.65417" lon="1.38884">
        <ele>143</ele>
        <time>2023-06-13T16:17:38Z</time>
      </trkpt>
      <trkpt lat="43.65417" lon="1.38884">
        <ele>143</ele>
        <time>2023-06-13T16:17:39Z</time>
      </trkpt>
      <trkpt lat="43.65416" lon="1.38878">
        <ele>144</ele>
        <time>2023-06-13T16:17:40Z</time>
      </trkpt>
      <trkpt lat="43.65416" lon="1.38878">
        <ele>144</ele>
        <time>2023-06-13T16:17:41Z</time>
      </trkpt>
      <trkpt lat="43.65414" lon="1.38871">
        <ele>144</ele>
        <time>2023-06-13T16:17:42Z</time>
      </trkpt>
      <trkpt lat="43.65414" lon="1.38871">
        <ele>144</ele>
        <time>2023-06-13T16:17:43Z</time>
      </trkpt>
      <trkpt lat="43.65412" lon="1.38867">
        <ele>145</ele>
        <time>2023-06-13T16:17:44Z</time>
      </trkpt>
      <trkpt lat="43.6541" lon="1.38865">
        <ele>145</ele>
        <time>2023-06-13T16:17:45Z</time>
      </trkpt>
      <trkpt lat="43.6541" lon="1.38865">
        <ele>145</ele>
        <time>2023-06-13T16:17:46Z</time>
      </trkpt>
      <trkpt lat="43.65405" lon="1.38864">
        <ele>145</ele>
        <time>2023-06-13T16:17:47Z</time>
      </trkpt>
      <trkpt lat="43.65405" lon="1.38864">
        <ele>145</ele>
        <time>2023-06-13T16:17:48Z</time>
      </trkpt>
      <trkpt lat="43.654" lon="1.38864">
        <ele>145</ele>
        <time>2023-06-13T16:17:49Z</time>
      </trkpt>
      <trkpt lat="43.65398" lon="1.38864">
        <ele>145</ele>
        <time>2023-06-13T16:17:50Z</time>
      </trkpt>
      <trkpt lat="43.65398" lon="1.38864">
        <ele>145</ele>
        <time>2023-06-13T16:17:51Z</time>
      </trkpt>
      <trkpt lat="43.65395" lon="1.38865">
        <ele>145</ele>
        <time>2023-06-13T16:17:52Z</time>
      </trkpt>
      <trkpt lat="43.65395" lon="1.38865">
        <ele>145</ele>
        <time>2023-06-13T16:17:53Z</time>
      </trkpt>
      <trkpt lat="43.65392" lon="1.38864">
        <ele>145</ele>
        <time>2023-06-13T16:17:54Z</time>
      </trkpt>
      <trkpt lat="43.65392" lon="1.38864">
        <ele>145</ele>
        <time>2023-06-13T16:17:55Z</time>
      </trkpt>
      <trkpt lat="43.65392" lon="1.38864">
        <ele>145</ele>
        <time>2023-06-13T16:17:56Z</time>
      </trkpt>
      <trkpt lat="43.65392" lon="1.38864">
        <ele>144</ele>
        <time>2023-06-13T16:17:57Z</time>
      </trkpt>
      <trkpt lat="43.65386" lon="1.38862">
        <ele>144</ele>
        <time>2023-06-13T16:17:58Z</time>
      </trkpt>
      <trkpt lat="43.65386" lon="1.38862">
        <ele>144</ele>
        <time>2023-06-13T16:17:59Z</time>
      </trkpt>
      <trkpt lat="43.65384" lon="1.38861">
        <ele>144</ele>
        <time>2023-06-13T16:18:00Z</time>
      </trkpt>
      <trkpt lat="43.65379" lon="1.38859">
        <ele>145</ele>
        <time>2023-06-13T16:18:01Z</time>
      </trkpt>
      <trkpt lat="43.65379" lon="1.38859">
        <ele>145</ele>
        <time>2023-06-13T16:18:02Z</time>
      </trkpt>
      <trkpt lat="43.65374" lon="1.38857">
        <ele>145</ele>
        <time>2023-06-13T16:18:03Z</time>
      </trkpt>
      <trkpt lat="43.65372" lon="1.38855">
        <ele>145</ele>
        <time>2023-06-13T16:18:04Z</time>
      </trkpt>
      <trkpt lat="43.6537" lon="1.38853">
        <ele>145</ele>
        <time>2023-06-13T16:18:05Z</time>
      </trkpt>
      <trkpt lat="43.6537" lon="1.38853">
        <ele>145</ele>
        <time>2023-06-13T16:18:06Z</time>
      </trkpt>
      <trkpt lat="43.65367" lon="1.38851">
        <ele>146</ele>
        <time>2023-06-13T16:18:07Z</time>
      </trkpt>
      <trkpt lat="43.65363" lon="1.38847">
        <ele>146</ele>
        <time>2023-06-13T16:18:08Z</time>
      </trkpt>
      <trkpt lat="43.6536" lon="1.38844">
        <ele>147</ele>
        <time>2023-06-13T16:18:09Z</time>
      </trkpt>
      <trkpt lat="43.65358" lon="1.38841">
        <ele>147</ele>
        <time>2023-06-13T16:18:10Z</time>
      </trkpt>
      <trkpt lat="43.65356" lon="1.38838">
        <ele>147</ele>
        <time>2023-06-13T16:18:11Z</time>
      </trkpt>
      <trkpt lat="43.65354" lon="1.38835">
        <ele>147</ele>
        <time>2023-06-13T16:18:12Z</time>
      </trkpt>
      <trkpt lat="43.65352" lon="1.38833">
        <ele>147</ele>
        <time>2023-06-13T16:18:13Z</time>
      </trkpt>
      <trkpt lat="43.6535" lon="1.3883">
        <ele>147</ele>
        <time>2023-06-13T16:18:14Z</time>
      </trkpt>
      <trkpt lat="43.65349" lon="1.38827">
        <ele>147</ele>
        <time>2023-06-13T16:18:15Z</time>
      </trkpt>
      <trkpt lat="43.65347" lon="1.38824">
        <ele>147</ele>
        <time>2023-06-13T16:18:16Z</time>
      </trkpt>
      <trkpt lat="43.65347" lon="1.38824">
        <ele>147</ele>
        <time>2023-06-13T16:18:17Z</time>
      </trkpt>
      <trkpt lat="43.65345" lon="1.38821">
        <ele>146</ele>
        <time>2023-06-13T16:18:18Z</time>
      </trkpt>
      <trkpt lat="43.65341" lon="1.38816">
        <ele>146</ele>
        <time>2023-06-13T16:18:19Z</time>
      </trkpt>
      <trkpt lat="43.65341" lon="1.38816">
        <ele>146</ele>
        <time>2023-06-13T16:18:20Z</time>
      </trkpt>
      <trkpt lat="43.65339" lon="1.38809">
        <ele>146</ele>
        <time>2023-06-13T16:18:21Z</time>
      </trkpt>
      <trkpt lat="43.65339" lon="1.38809">
        <ele>146</ele>
        <time>2023-06-13T16:18:22Z</time>
      </trkpt>
      <trkpt lat="43.65337" lon="1.38803">
        <ele>146</ele>
        <time>2023-06-13T16:18:23Z</time>
      </trkpt>
      <trkpt lat="43.65336" lon="1.38799">
        <ele>146</ele>
        <time>2023-06-13T16:18:24Z</time>
      </trkpt>
      <trkpt lat="43.65336" lon="1.38799">
        <ele>146</ele>
        <time>2023-06-13T16:18:25Z</time>
      </trkpt>
      <trkpt lat="43.65334" lon="1.38792">
        <ele>146</ele>
        <time>2023-06-13T16:18:26Z</time>
      </trkpt>
      <trkpt lat="43.65333" lon="1.38788">
        <ele>146</ele>
        <time>2023-06-13T16:18:27Z</time>
      </trkpt>
      <trkpt lat="43.65332" lon="1.38784">
        <ele>146</ele>
        <time>2023-06-13T16:18:28Z</time>
      </trkpt>
      <trkpt lat="43.65332" lon="1.38784">
        <ele>146</ele>
        <time>2023-06-13T16:18:29Z</time>
      </trkpt>
      <trkpt lat="43.6533" lon="1.38776">
        <ele>146</ele>
        <time>2023-06-13T16:18:30Z</time>
      </trkpt>
      <trkpt lat="43.65328" lon="1.38769">
        <ele>146</ele>
        <time>2023-06-13T16:18:32Z</time>
      </trkpt>
      <trkpt lat="43.65328" lon="1.38769">
        <ele>146</ele>
        <time>2023-06-13T16:18:33Z</time>
      </trkpt>
      <trkpt lat="43.65325" lon="1.38762">
        <ele>146</ele>
        <time>2023-06-13T16:18:34Z</time>
      </trkpt>
      <trkpt lat="43.65325" lon="1.38762">
        <ele>146</ele>
        <time>2023-06-13T16:18:35Z</time>
      </trkpt>
      <trkpt lat="43.65323" lon="1.38755">
        <ele>146</ele>
        <time>2023-06-13T16:18:36Z</time>
      </trkpt>
      <trkpt lat="43.65323" lon="1.38755">
        <ele>146</ele>
        <time>2023-06-13T16:18:37Z</time>
      </trkpt>
      <trkpt lat="43.65322" lon="1.38752">
        <ele>146</ele>
        <time>2023-06-13T16:18:38Z</time>
      </trkpt>
      <trkpt lat="43.6532" lon="1.38745">
        <ele>146</ele>
        <time>2023-06-13T16:18:39Z</time>
      </trkpt>
      <trkpt lat="43.6532" lon="1.38745">
        <ele>146</ele>
        <time>2023-06-13T16:18:40Z</time>
      </trkpt>
      <trkpt lat="43.65318" lon="1.38737">
        <ele>146</ele>
        <time>2023-06-13T16:18:41Z</time>
      </trkpt>
      <trkpt lat="43.65318" lon="1.38737">
        <ele>146</ele>
        <time>2023-06-13T16:18:42Z</time>
      </trkpt>
      <trkpt lat="43.65315" lon="1.3873">
        <ele>146</ele>
        <time>2023-06-13T16:18:43Z</time>
      </trkpt>
      <trkpt lat="43.65313" lon="1.38726">
        <ele>145</ele>
        <time>2023-06-13T16:18:44Z</time>
      </trkpt>
      <trkpt lat="43.65313" lon="1.38726">
        <ele>146</ele>
        <time>2023-06-13T16:18:45Z</time>
      </trkpt>
      <trkpt lat="43.65312" lon="1.38723">
        <ele>146</ele>
        <time>2023-06-13T16:18:46Z</time>
      </trkpt>
      <trkpt lat="43.65311" lon="1.38719">
        <ele>145</ele>
        <time>2023-06-13T16:18:47Z</time>
      </trkpt>
      <trkpt lat="43.65311" lon="1.38715">
        <ele>145</ele>
        <time>2023-06-13T16:18:48Z</time>
      </trkpt>
      <trkpt lat="43.65309" lon="1.38708">
        <ele>145</ele>
        <time>2023-06-13T16:18:49Z</time>
      </trkpt>
      <trkpt lat="43.65308" lon="1.38704">
        <ele>145</ele>
        <time>2023-06-13T16:18:50Z</time>
      </trkpt>
      <trkpt lat="43.65307" lon="1.38701">
        <ele>145</ele>
        <time>2023-06-13T16:18:51Z</time>
      </trkpt>
      <trkpt lat="43.65305" lon="1.38697">
        <ele>145</ele>
        <time>2023-06-13T16:18:52Z</time>
      </trkpt>
      <trkpt lat="43.65305" lon="1.38697">
        <ele>145</ele>
        <time>2023-06-13T16:18:53Z</time>
      </trkpt>
      <trkpt lat="43.65304" lon="1.38694">
        <ele>145</ele>
        <time>2023-06-13T16:18:54Z</time>
      </trkpt>
      <trkpt lat="43.65302" lon="1.38686">
        <ele>145</ele>
        <time>2023-06-13T16:18:55Z</time>
      </trkpt>
      <trkpt lat="43.653" lon="1.38682">
        <ele>145</ele>
        <time>2023-06-13T16:18:56Z</time>
      </trkpt>
      <trkpt lat="43.653" lon="1.38682">
        <ele>145</ele>
        <time>2023-06-13T16:18:57Z</time>
      </trkpt>
      <trkpt lat="43.65297" lon="1.38675">
        <ele>145</ele>
        <time>2023-06-13T16:18:58Z</time>
      </trkpt>
      <trkpt lat="43.65296" lon="1.38671">
        <ele>145</ele>
        <time>2023-06-13T16:18:59Z</time>
      </trkpt>
      <trkpt lat="43.65296" lon="1.38671">
        <ele>145</ele>
        <time>2023-06-13T16:19:00Z</time>
      </trkpt>
      <trkpt lat="43.65294" lon="1.38664">
        <ele>145</ele>
        <time>2023-06-13T16:19:01Z</time>
      </trkpt>
      <trkpt lat="43.65294" lon="1.38664">
        <ele>145</ele>
        <time>2023-06-13T16:19:02Z</time>
      </trkpt>
      <trkpt lat="43.65293" lon="1.38661">
        <ele>145</ele>
        <time>2023-06-13T16:19:03Z</time>
      </trkpt>
      <trkpt lat="43.65292" lon="1.38657">
        <ele>145</ele>
        <time>2023-06-13T16:19:04Z</time>
      </trkpt>
      <trkpt lat="43.65291" lon="1.38654">
        <ele>146</ele>
        <time>2023-06-13T16:19:05Z</time>
      </trkpt>
      <trkpt lat="43.6529" lon="1.3865">
        <ele>146</ele>
        <time>2023-06-13T16:19:06Z</time>
      </trkpt>
      <trkpt lat="43.65287" lon="1.38645">
        <ele>146</ele>
        <time>2023-06-13T16:19:07Z</time>
      </trkpt>
      <trkpt lat="43.65285" lon="1.38642">
        <ele>146</ele>
        <time>2023-06-13T16:19:08Z</time>
      </trkpt>
      <trkpt lat="43.65283" lon="1.3864">
        <ele>146</ele>
        <time>2023-06-13T16:19:09Z</time>
      </trkpt>
      <trkpt lat="43.65281" lon="1.38637">
        <ele>146</ele>
        <time>2023-06-13T16:19:10Z</time>
      </trkpt>
      <trkpt lat="43.65281" lon="1.38637">
        <ele>146</ele>
        <time>2023-06-13T16:19:11Z</time>
      </trkpt>
      <trkpt lat="43.65279" lon="1.38634">
        <ele>146</ele>
        <time>2023-06-13T16:19:12Z</time>
      </trkpt>
      <trkpt lat="43.65278" lon="1.38632">
        <ele>146</ele>
        <time>2023-06-13T16:19:13Z</time>
      </trkpt>
      <trkpt lat="43.65274" lon="1.38627">
        <ele>146</ele>
        <time>2023-06-13T16:19:14Z</time>
      </trkpt>
      <trkpt lat="43.65274" lon="1.38627">
        <ele>146</ele>
        <time>2023-06-13T16:19:15Z</time>
      </trkpt>
      <trkpt lat="43.6527" lon="1.38621">
        <ele>146</ele>
        <time>2023-06-13T16:19:16Z</time>
      </trkpt>
      <trkpt lat="43.6527" lon="1.38621">
        <ele>145</ele>
        <time>2023-06-13T16:19:17Z</time>
      </trkpt>
      <trkpt lat="43.65268" lon="1.38617">
        <ele>145</ele>
        <time>2023-06-13T16:19:18Z</time>
      </trkpt>
      <trkpt lat="43.65266" lon="1.38614">
        <ele>145</ele>
        <time>2023-06-13T16:19:19Z</time>
      </trkpt>
      <trkpt lat="43.65264" lon="1.3861">
        <ele>145</ele>
        <time>2023-06-13T16:19:20Z</time>
      </trkpt>
      <trkpt lat="43.65263" lon="1.38607">
        <ele>145</ele>
        <time>2023-06-13T16:19:21Z</time>
      </trkpt>
      <trkpt lat="43.65261" lon="1.38599">
        <ele>145</ele>
        <time>2023-06-13T16:19:22Z</time>
      </trkpt>
      <trkpt lat="43.6526" lon="1.38595">
        <ele>145</ele>
        <time>2023-06-13T16:19:23Z</time>
      </trkpt>
      <trkpt lat="43.65258" lon="1.38591">
        <ele>145</ele>
        <time>2023-06-13T16:19:24Z</time>
      </trkpt>
      <trkpt lat="43.65257" lon="1.38588">
        <ele>145</ele>
        <time>2023-06-13T16:19:25Z</time>
      </trkpt>
      <trkpt lat="43.65257" lon="1.38588">
        <ele>145</ele>
        <time>2023-06-13T16:19:26Z</time>
      </trkpt>
      <trkpt lat="43.65255" lon="1.38581">
        <ele>145</ele>
        <time>2023-06-13T16:19:27Z</time>
      </trkpt>
      <trkpt lat="43.65255" lon="1.38581">
        <ele>145</ele>
        <time>2023-06-13T16:19:28Z</time>
      </trkpt>
      <trkpt lat="43.65253" lon="1.38575">
        <ele>145</ele>
        <time>2023-06-13T16:19:29Z</time>
      </trkpt>
      <trkpt lat="43.65253" lon="1.38575">
        <ele>145</ele>
        <time>2023-06-13T16:19:30Z</time>
      </trkpt>
      <trkpt lat="43.65251" lon="1.38567">
        <ele>145</ele>
        <time>2023-06-13T16:19:31Z</time>
      </trkpt>
      <trkpt lat="43.6525" lon="1.38563">
        <ele>145</ele>
        <time>2023-06-13T16:19:32Z</time>
      </trkpt>
      <trkpt lat="43.6525" lon="1.38563">
        <ele>144</ele>
        <time>2023-06-13T16:19:33Z</time>
      </trkpt>
      <trkpt lat="43.65249" lon="1.38556">
        <ele>143</ele>
        <time>2023-06-13T16:19:34Z</time>
      </trkpt>
      <trkpt lat="43.65249" lon="1.38556">
        <ele>144</ele>
        <time>2023-06-13T16:19:35Z</time>
      </trkpt>
      <trkpt lat="43.65247" lon="1.38548">
        <ele>145</ele>
        <time>2023-06-13T16:19:36Z</time>
      </trkpt>
      <trkpt lat="43.65247" lon="1.38548">
        <ele>145</ele>
        <time>2023-06-13T16:19:37Z</time>
      </trkpt>
      <trkpt lat="43.65246" lon="1.38545">
        <ele>145</ele>
        <time>2023-06-13T16:19:38Z</time>
      </trkpt>
      <trkpt lat="43.65243" lon="1.38539">
        <ele>145</ele>
        <time>2023-06-13T16:19:39Z</time>
      </trkpt>
      <trkpt lat="43.65243" lon="1.38539">
        <ele>146</ele>
        <time>2023-06-13T16:19:40Z</time>
      </trkpt>
      <trkpt lat="43.65241" lon="1.38534">
        <ele>146</ele>
        <time>2023-06-13T16:19:41Z</time>
      </trkpt>
      <trkpt lat="43.65241" lon="1.3853">
        <ele>146</ele>
        <time>2023-06-13T16:19:42Z</time>
      </trkpt>
      <trkpt lat="43.65241" lon="1.3853">
        <ele>146</ele>
        <time>2023-06-13T16:19:43Z</time>
      </trkpt>
      <trkpt lat="43.65239" lon="1.38523">
        <ele>146</ele>
        <time>2023-06-13T16:19:44Z</time>
      </trkpt>
      <trkpt lat="43.65239" lon="1.38523">
        <ele>146</ele>
        <time>2023-06-13T16:19:45Z</time>
      </trkpt>
      <trkpt lat="43.65238" lon="1.38516">
        <ele>145</ele>
        <time>2023-06-13T16:19:46Z</time>
      </trkpt>
      <trkpt lat="43.65238" lon="1.38516">
        <ele>145</ele>
        <time>2023-06-13T16:19:47Z</time>
      </trkpt>
      <trkpt lat="43.65236" lon="1.38508">
        <ele>145</ele>
        <time>2023-06-13T16:19:48Z</time>
      </trkpt>
      <trkpt lat="43.65236" lon="1.38508">
        <ele>145</ele>
        <time>2023-06-13T16:19:49Z</time>
      </trkpt>
      <trkpt lat="43.65233" lon="1.385">
        <ele>145</ele>
        <time>2023-06-13T16:19:50Z</time>
      </trkpt>
      <trkpt lat="43.65233" lon="1.385">
        <ele>145</ele>
        <time>2023-06-13T16:19:51Z</time>
      </trkpt>
      <trkpt lat="43.65231" lon="1.38492">
        <ele>145</ele>
        <time>2023-06-13T16:19:52Z</time>
      </trkpt>
      <trkpt lat="43.65229" lon="1.38488">
        <ele>145</ele>
        <time>2023-06-13T16:19:53Z</time>
      </trkpt>
      <trkpt lat="43.65229" lon="1.38488">
        <ele>145</ele>
        <time>2023-06-13T16:19:54Z</time>
      </trkpt>
      <trkpt lat="43.65229" lon="1.38484">
        <ele>145</ele>
        <time>2023-06-13T16:19:55Z</time>
      </trkpt>
      <trkpt lat="43.65228" lon="1.38481">
        <ele>145</ele>
        <time>2023-06-13T16:19:56Z</time>
      </trkpt>
      <trkpt lat="43.65226" lon="1.38474">
        <ele>145</ele>
        <time>2023-06-13T16:19:57Z</time>
      </trkpt>
      <trkpt lat="43.65226" lon="1.38474">
        <ele>145</ele>
        <time>2023-06-13T16:19:58Z</time>
      </trkpt>
      <trkpt lat="43.65224" lon="1.3847">
        <ele>145</ele>
        <time>2023-06-13T16:19:59Z</time>
      </trkpt>
      <trkpt lat="43.65221" lon="1.38463">
        <ele>145</ele>
        <time>2023-06-13T16:20:00Z</time>
      </trkpt>
      <trkpt lat="43.65221" lon="1.38463">
        <ele>145</ele>
        <time>2023-06-13T16:20:01Z</time>
      </trkpt>
      <trkpt lat="43.65219" lon="1.3846">
        <ele>145</ele>
        <time>2023-06-13T16:20:02Z</time>
      </trkpt>
      <trkpt lat="43.65216" lon="1.38453">
        <ele>145</ele>
        <time>2023-06-13T16:20:03Z</time>
      </trkpt>
      <trkpt lat="43.65216" lon="1.38453">
        <ele>146</ele>
        <time>2023-06-13T16:20:04Z</time>
      </trkpt>
      <trkpt lat="43.65215" lon="1.38446">
        <ele>146</ele>
        <time>2023-06-13T16:20:05Z</time>
      </trkpt>
      <trkpt lat="43.65215" lon="1.38446">
        <ele>146</ele>
        <time>2023-06-13T16:20:06Z</time>
      </trkpt>
      <trkpt lat="43.65214" lon="1.38443">
        <ele>146</ele>
        <time>2023-06-13T16:20:07Z</time>
      </trkpt>
      <trkpt lat="43.65212" lon="1.38435">
        <ele>146</ele>
        <time>2023-06-13T16:20:08Z</time>
      </trkpt>
      <trkpt lat="43.65212" lon="1.38435">
        <ele>146</ele>
        <time>2023-06-13T16:20:09Z</time>
      </trkpt>
      <trkpt lat="43.65209" lon="1.38427">
        <ele>146</ele>
        <time>2023-06-13T16:20:10Z</time>
      </trkpt>
      <trkpt lat="43.65209" lon="1.38427">
        <ele>146</ele>
        <time>2023-06-13T16:20:11Z</time>
      </trkpt>
      <trkpt lat="43.65206" lon="1.3842">
        <ele>146</ele>
        <time>2023-06-13T16:20:12Z</time>
      </trkpt>
      <trkpt lat="43.65206" lon="1.3842">
        <ele>146</ele>
        <time>2023-06-13T16:20:13Z</time>
      </trkpt>
      <trkpt lat="43.65204" lon="1.38417">
        <ele>146</ele>
        <time>2023-06-13T16:20:14Z</time>
      </trkpt>
      <trkpt lat="43.652" lon="1.38411">
        <ele>147</ele>
        <time>2023-06-13T16:20:15Z</time>
      </trkpt>
      <trkpt lat="43.65199" lon="1.38408">
        <ele>147</ele>
        <time>2023-06-13T16:20:16Z</time>
      </trkpt>
      <trkpt lat="43.65197" lon="1.38404">
        <ele>147</ele>
        <time>2023-06-13T16:20:17Z</time>
      </trkpt>
      <trkpt lat="43.65197" lon="1.38404">
        <ele>147</ele>
        <time>2023-06-13T16:20:18Z</time>
      </trkpt>
      <trkpt lat="43.65196" lon="1.38402">
        <ele>148</ele>
        <time>2023-06-13T16:20:19Z</time>
      </trkpt>
      <trkpt lat="43.65192" lon="1.38395">
        <ele>148</ele>
        <time>2023-06-13T16:20:20Z</time>
      </trkpt>
      <trkpt lat="43.65191" lon="1.38392">
        <ele>148</ele>
        <time>2023-06-13T16:20:21Z</time>
      </trkpt>
      <trkpt lat="43.6519" lon="1.38388">
        <ele>148</ele>
        <time>2023-06-13T16:20:22Z</time>
      </trkpt>
      <trkpt lat="43.6519" lon="1.38388">
        <ele>148</ele>
        <time>2023-06-13T16:20:23Z</time>
      </trkpt>
      <trkpt lat="43.65189" lon="1.38384">
        <ele>149</ele>
        <time>2023-06-13T16:20:24Z</time>
      </trkpt>
      <trkpt lat="43.65187" lon="1.38376">
        <ele>149</ele>
        <time>2023-06-13T16:20:25Z</time>
      </trkpt>
      <trkpt lat="43.65187" lon="1.38376">
        <ele>149</ele>
        <time>2023-06-13T16:20:26Z</time>
      </trkpt>
      <trkpt lat="43.65186" lon="1.38369">
        <ele>149</ele>
        <time>2023-06-13T16:20:27Z</time>
      </trkpt>
      <trkpt lat="43.65186" lon="1.38369">
        <ele>149</ele>
        <time>2023-06-13T16:20:28Z</time>
      </trkpt>
      <trkpt lat="43.65186" lon="1.38361">
        <ele>149</ele>
        <time>2023-06-13T16:20:29Z</time>
      </trkpt>
      <trkpt lat="43.65185" lon="1.38356">
        <ele>149</ele>
        <time>2023-06-13T16:20:30Z</time>
      </trkpt>
      <trkpt lat="43.65185" lon="1.38356">
        <ele>149</ele>
        <time>2023-06-13T16:20:31Z</time>
      </trkpt>
      <trkpt lat="43.65184" lon="1.38349">
        <ele>149</ele>
        <time>2023-06-13T16:20:32Z</time>
      </trkpt>
      <trkpt lat="43.65184" lon="1.38349">
        <ele>149</ele>
        <time>2023-06-13T16:20:33Z</time>
      </trkpt>
      <trkpt lat="43.65183" lon="1.38341">
        <ele>149</ele>
        <time>2023-06-13T16:20:34Z</time>
      </trkpt>
      <trkpt lat="43.65183" lon="1.38337">
        <ele>149</ele>
        <time>2023-06-13T16:20:35Z</time>
      </trkpt>
      <trkpt lat="43.65183" lon="1.38337">
        <ele>149</ele>
        <time>2023-06-13T16:20:36Z</time>
      </trkpt>
      <trkpt lat="43.65182" lon="1.38329">
        <ele>149</ele>
        <time>2023-06-13T16:20:37Z</time>
      </trkpt>
      <trkpt lat="43.65182" lon="1.38325">
        <ele>148</ele>
        <time>2023-06-13T16:20:38Z</time>
      </trkpt>
      <trkpt lat="43.65181" lon="1.38321">
        <ele>148</ele>
        <time>2023-06-13T16:20:39Z</time>
      </trkpt>
      <trkpt lat="43.65181" lon="1.38318">
        <ele>148</ele>
        <time>2023-06-13T16:20:40Z</time>
      </trkpt>
      <trkpt lat="43.6518" lon="1.38314">
        <ele>148</ele>
        <time>2023-06-13T16:20:41Z</time>
      </trkpt>
      <trkpt lat="43.65179" lon="1.3831">
        <ele>148</ele>
        <time>2023-06-13T16:20:42Z</time>
      </trkpt>
      <trkpt lat="43.65179" lon="1.38306">
        <ele>148</ele>
        <time>2023-06-13T16:20:43Z</time>
      </trkpt>
      <trkpt lat="43.65178" lon="1.38302">
        <ele>148</ele>
        <time>2023-06-13T16:20:44Z</time>
      </trkpt>
      <trkpt lat="43.65178" lon="1.38302">
        <ele>148</ele>
        <time>2023-06-13T16:20:45Z</time>
      </trkpt>
      <trkpt lat="43.65178" lon="1.38298">
        <ele>148</ele>
        <time>2023-06-13T16:20:46Z</time>
      </trkpt>
      <trkpt lat="43.65177" lon="1.38295">
        <ele>149</ele>
        <time>2023-06-13T16:20:47Z</time>
      </trkpt>
      <trkpt lat="43.65176" lon="1.38287">
        <ele>149</ele>
        <time>2023-06-13T16:20:48Z</time>
      </trkpt>
      <trkpt lat="43.65175" lon="1.38284">
        <ele>148</ele>
        <time>2023-06-13T16:20:49Z</time>
      </trkpt>
      <trkpt lat="43.65174" lon="1.3828">
        <ele>148</ele>
        <time>2023-06-13T16:20:50Z</time>
      </trkpt>
      <trkpt lat="43.65174" lon="1.3828">
        <ele>148</ele>
        <time>2023-06-13T16:20:51Z</time>
      </trkpt>
      <trkpt lat="43.65173" lon="1.38273">
        <ele>148</ele>
        <time>2023-06-13T16:20:52Z</time>
      </trkpt>
      <trkpt lat="43.65173" lon="1.38273">
        <ele>148</ele>
        <time>2023-06-13T16:20:53Z</time>
      </trkpt>
      <trkpt lat="43.65172" lon="1.38266">
        <ele>148</ele>
        <time>2023-06-13T16:20:54Z</time>
      </trkpt>
      <trkpt lat="43.65172" lon="1.38266">
        <ele>148</ele>
        <time>2023-06-13T16:20:55Z</time>
      </trkpt>
      <trkpt lat="43.65171" lon="1.38262">
        <ele>148</ele>
        <time>2023-06-13T16:20:56Z</time>
      </trkpt>
      <trkpt lat="43.65169" lon="1.38255">
        <ele>148</ele>
        <time>2023-06-13T16:20:57Z</time>
      </trkpt>
      <trkpt lat="43.65169" lon="1.38251">
        <ele>148</ele>
        <time>2023-06-13T16:20:58Z</time>
      </trkpt>
      <trkpt lat="43.65169" lon="1.38251">
        <ele>148</ele>
        <time>2023-06-13T16:20:59Z</time>
      </trkpt>
      <trkpt lat="43.65167" lon="1.38244">
        <ele>148</ele>
        <time>2023-06-13T16:21:00Z</time>
      </trkpt>
      <trkpt lat="43.65167" lon="1.38244">
        <ele>149</ele>
        <time>2023-06-13T16:21:01Z</time>
      </trkpt>
      <trkpt lat="43.65166" lon="1.38236">
        <ele>149</ele>
        <time>2023-06-13T16:21:02Z</time>
      </trkpt>
      <trkpt lat="43.65166" lon="1.38236">
        <ele>149</ele>
        <time>2023-06-13T16:21:03Z</time>
      </trkpt>
      <trkpt lat="43.65165" lon="1.38232">
        <ele>149</ele>
        <time>2023-06-13T16:21:04Z</time>
      </trkpt>
      <trkpt lat="43.65165" lon="1.38228">
        <ele>148</ele>
        <time>2023-06-13T16:21:05Z</time>
      </trkpt>
      <trkpt lat="43.65165" lon="1.38224">
        <ele>148</ele>
        <time>2023-06-13T16:21:06Z</time>
      </trkpt>
      <trkpt lat="43.65165" lon="1.38217">
        <ele>148</ele>
        <time>2023-06-13T16:21:07Z</time>
      </trkpt>
      <trkpt lat="43.65165" lon="1.38213">
        <ele>148</ele>
        <time>2023-06-13T16:21:08Z</time>
      </trkpt>
      <trkpt lat="43.65165" lon="1.38213">
        <ele>148</ele>
        <time>2023-06-13T16:21:09Z</time>
      </trkpt>
      <trkpt lat="43.65165" lon="1.38209">
        <ele>148</ele>
        <time>2023-06-13T16:21:10Z</time>
      </trkpt>
      <trkpt lat="43.65166" lon="1.38201">
        <ele>148</ele>
        <time>2023-06-13T16:21:11Z</time>
      </trkpt>
      <trkpt lat="43.65167" lon="1.38197">
        <ele>148</ele>
        <time>2023-06-13T16:21:12Z</time>
      </trkpt>
      <trkpt lat="43.65169" lon="1.38194">
        <ele>148</ele>
        <time>2023-06-13T16:21:13Z</time>
      </trkpt>
      <trkpt lat="43.65171" lon="1.38191">
        <ele>149</ele>
        <time>2023-06-13T16:21:14Z</time>
      </trkpt>
      <trkpt lat="43.65171" lon="1.38191">
        <ele>149</ele>
        <time>2023-06-13T16:21:15Z</time>
      </trkpt>
      <trkpt lat="43.65173" lon="1.38188">
        <ele>149</ele>
        <time>2023-06-13T16:21:16Z</time>
      </trkpt>
      <trkpt lat="43.65175" lon="1.38186">
        <ele>149</ele>
        <time>2023-06-13T16:21:17Z</time>
      </trkpt>
      <trkpt lat="43.6518" lon="1.38181">
        <ele>149</ele>
        <time>2023-06-13T16:21:18Z</time>
      </trkpt>
      <trkpt lat="43.65182" lon="1.38179">
        <ele>149</ele>
        <time>2023-06-13T16:21:19Z</time>
      </trkpt>
      <trkpt lat="43.65185" lon="1.38176">
        <ele>149</ele>
        <time>2023-06-13T16:21:20Z</time>
      </trkpt>
      <trkpt lat="43.65187" lon="1.38174">
        <ele>149</ele>
        <time>2023-06-13T16:21:21Z</time>
      </trkpt>
      <trkpt lat="43.65189" lon="1.38172">
        <ele>149</ele>
        <time>2023-06-13T16:21:22Z</time>
      </trkpt>
      <trkpt lat="43.65189" lon="1.38172">
        <ele>149</ele>
        <time>2023-06-13T16:21:23Z</time>
      </trkpt>
      <trkpt lat="43.65192" lon="1.3817">
        <ele>149</ele>
        <time>2023-06-13T16:21:24Z</time>
      </trkpt>
      <trkpt lat="43.65194" lon="1.38168">
        <ele>149</ele>
        <time>2023-06-13T16:21:25Z</time>
      </trkpt>
      <trkpt lat="43.65199" lon="1.38163">
        <ele>149</ele>
        <time>2023-06-13T16:21:26Z</time>
      </trkpt>
      <trkpt lat="43.65201" lon="1.3816">
        <ele>149</ele>
        <time>2023-06-13T16:21:28Z</time>
      </trkpt>
      <trkpt lat="43.65205" lon="1.38156">
        <ele>149</ele>
        <time>2023-06-13T16:21:29Z</time>
      </trkpt>
      <trkpt lat="43.65205" lon="1.38156">
        <ele>149</ele>
        <time>2023-06-13T16:21:30Z</time>
      </trkpt>
      <trkpt lat="43.6521" lon="1.38152">
        <ele>150</ele>
        <time>2023-06-13T16:21:31Z</time>
      </trkpt>
      <trkpt lat="43.65213" lon="1.3815">
        <ele>150</ele>
        <time>2023-06-13T16:21:32Z</time>
      </trkpt>
      <trkpt lat="43.65216" lon="1.38148">
        <ele>149</ele>
        <time>2023-06-13T16:21:33Z</time>
      </trkpt>
      <trkpt lat="43.65216" lon="1.38148">
        <ele>149</ele>
        <time>2023-06-13T16:21:34Z</time>
      </trkpt>
      <trkpt lat="43.65219" lon="1.38146">
        <ele>149</ele>
        <time>2023-06-13T16:21:35Z</time>
      </trkpt>
      <trkpt lat="43.65221" lon="1.38145">
        <ele>149</ele>
        <time>2023-06-13T16:21:36Z</time>
      </trkpt>
      <trkpt lat="43.65224" lon="1.38143">
        <ele>149</ele>
        <time>2023-06-13T16:21:37Z</time>
      </trkpt>
      <trkpt lat="43.65229" lon="1.38138">
        <ele>149</ele>
        <time>2023-06-13T16:21:38Z</time>
      </trkpt>
      <trkpt lat="43.65232" lon="1.38136">
        <ele>149</ele>
        <time>2023-06-13T16:21:39Z</time>
      </trkpt>
      <trkpt lat="43.65232" lon="1.38136">
        <ele>149</ele>
        <time>2023-06-13T16:21:40Z</time>
      </trkpt>
      <trkpt lat="43.65234" lon="1.38134">
        <ele>149</ele>
        <time>2023-06-13T16:21:41Z</time>
      </trkpt>
      <trkpt lat="43.65236" lon="1.38131">
        <ele>149</ele>
        <time>2023-06-13T16:21:42Z</time>
      </trkpt>
      <trkpt lat="43.65241" lon="1.38127">
        <ele>149</ele>
        <time>2023-06-13T16:21:43Z</time>
      </trkpt>
      <trkpt lat="43.65244" lon="1.38125">
        <ele>149</ele>
        <time>2023-06-13T16:21:45Z</time>
      </trkpt>
      <trkpt lat="43.65246" lon="1.38118">
        <ele>149</ele>
        <time>2023-06-13T16:21:46Z</time>
      </trkpt>
      <trkpt lat="43.65246" lon="1.38118">
        <ele>150</ele>
        <time>2023-06-13T16:21:47Z</time>
      </trkpt>
      <trkpt lat="43.65244" lon="1.38111">
        <ele>150</ele>
        <time>2023-06-13T16:21:48Z</time>
      </trkpt>
      <trkpt lat="43.65243" lon="1.38107">
        <ele>150</ele>
        <time>2023-06-13T16:21:49Z</time>
      </trkpt>
      <trkpt lat="43.65241" lon="1.38103">
        <ele>150</ele>
        <time>2023-06-13T16:21:50Z</time>
      </trkpt>
      <trkpt lat="43.6524" lon="1.381">
        <ele>150</ele>
        <time>2023-06-13T16:21:51Z</time>
      </trkpt>
      <trkpt lat="43.6524" lon="1.381">
        <ele>150</ele>
        <time>2023-06-13T16:21:52Z</time>
      </trkpt>
      <trkpt lat="43.65238" lon="1.38093">
        <ele>150</ele>
        <time>2023-06-13T16:21:53Z</time>
      </trkpt>
      <trkpt lat="43.65238" lon="1.38093">
        <ele>150</ele>
        <time>2023-06-13T16:21:54Z</time>
      </trkpt>
      <trkpt lat="43.65235" lon="1.38086">
        <ele>150</ele>
        <time>2023-06-13T16:21:55Z</time>
      </trkpt>
      <trkpt lat="43.65235" lon="1.38086">
        <ele>150</ele>
        <time>2023-06-13T16:21:56Z</time>
      </trkpt>
      <trkpt lat="43.65234" lon="1.38082">
        <ele>150</ele>
        <time>2023-06-13T16:21:57Z</time>
      </trkpt>
      <trkpt lat="43.65232" lon="1.38075">
        <ele>150</ele>
        <time>2023-06-13T16:21:58Z</time>
      </trkpt>
      <trkpt lat="43.65232" lon="1.38075">
        <ele>150</ele>
        <time>2023-06-13T16:21:59Z</time>
      </trkpt>
      <trkpt lat="43.6523" lon="1.38067">
        <ele>150</ele>
        <time>2023-06-13T16:22:00Z</time>
      </trkpt>
      <trkpt lat="43.65227" lon="1.3806">
        <ele>150</ele>
        <time>2023-06-13T16:22:02Z</time>
      </trkpt>
      <trkpt lat="43.65227" lon="1.3806">
        <ele>150</ele>
        <time>2023-06-13T16:22:03Z</time>
      </trkpt>
      <trkpt lat="43.65225" lon="1.38053">
        <ele>150</ele>
        <time>2023-06-13T16:22:04Z</time>
      </trkpt>
      <trkpt lat="43.65224" lon="1.3805">
        <ele>150</ele>
        <time>2023-06-13T16:22:05Z</time>
      </trkpt>
      <trkpt lat="43.65224" lon="1.3805">
        <ele>150</ele>
        <time>2023-06-13T16:22:06Z</time>
      </trkpt>
      <trkpt lat="43.65223" lon="1.38046">
        <ele>150</ele>
        <time>2023-06-13T16:22:07Z</time>
      </trkpt>
      <trkpt lat="43.65222" lon="1.38043">
        <ele>150</ele>
        <time>2023-06-13T16:22:08Z</time>
      </trkpt>
      <trkpt lat="43.65221" lon="1.3804">
        <ele>150</ele>
        <time>2023-06-13T16:22:09Z</time>
      </trkpt>
      <trkpt lat="43.6522" lon="1.38038">
        <ele>150</ele>
        <time>2023-06-13T16:22:10Z</time>
      </trkpt>
      <trkpt lat="43.65218" lon="1.38035">
        <ele>150</ele>
        <time>2023-06-13T16:22:11Z</time>
      </trkpt>
      <trkpt lat="43.65218" lon="1.38035">
        <ele>150</ele>
        <time>2023-06-13T16:22:12Z</time>
      </trkpt>
      <trkpt lat="43.65218" lon="1.38035">
        <ele>150</ele>
        <time>2023-06-13T16:22:13Z</time>
      </trkpt>
      <trkpt lat="43.65216" lon="1.38031">
        <ele>150</ele>
        <time>2023-06-13T16:22:14Z</time>
      </trkpt>
      <trkpt lat="43.65214" lon="1.38029">
        <ele>150</ele>
        <time>2023-06-13T16:22:15Z</time>
      </trkpt>
      <trkpt lat="43.6521" lon="1.3803">
        <ele>150</ele>
        <time>2023-06-13T16:22:16Z</time>
      </trkpt>
      <trkpt lat="43.65207" lon="1.38032">
        <ele>150</ele>
        <time>2023-06-13T16:22:17Z</time>
      </trkpt>
      <trkpt lat="43.65201" lon="1.38035">
        <ele>150</ele>
        <time>2023-06-13T16:22:18Z</time>
      </trkpt>
      <trkpt lat="43.65198" lon="1.38038">
        <ele>150</ele>
        <time>2023-06-13T16:22:19Z</time>
      </trkpt>
      <trkpt lat="43.65196" lon="1.3804">
        <ele>150</ele>
        <time>2023-06-13T16:22:20Z</time>
      </trkpt>
      <trkpt lat="43.65193" lon="1.38042">
        <ele>150</ele>
        <time>2023-06-13T16:22:21Z</time>
      </trkpt>
      <trkpt lat="43.6519" lon="1.38044">
        <ele>150</ele>
        <time>2023-06-13T16:22:22Z</time>
      </trkpt>
      <trkpt lat="43.6519" lon="1.38044">
        <ele>150</ele>
        <time>2023-06-13T16:22:23Z</time>
      </trkpt>
      <trkpt lat="43.65185" lon="1.38049">
        <ele>150</ele>
        <time>2023-06-13T16:22:24Z</time>
      </trkpt>
      <trkpt lat="43.65185" lon="1.38049">
        <ele>149</ele>
        <time>2023-06-13T16:22:25Z</time>
      </trkpt>
      <trkpt lat="43.65183" lon="1.38051">
        <ele>149</ele>
        <time>2023-06-13T16:22:26Z</time>
      </trkpt>
      <trkpt lat="43.6518" lon="1.38053">
        <ele>149</ele>
        <time>2023-06-13T16:22:27Z</time>
      </trkpt>
      <trkpt lat="43.65175" lon="1.38057">
        <ele>149</ele>
        <time>2023-06-13T16:22:28Z</time>
      </trkpt>
      <trkpt lat="43.65175" lon="1.38057">
        <ele>149</ele>
        <time>2023-06-13T16:22:29Z</time>
      </trkpt>
      <trkpt lat="43.65172" lon="1.38059">
        <ele>149</ele>
        <time>2023-06-13T16:22:30Z</time>
      </trkpt>
      <trkpt lat="43.65167" lon="1.38063">
        <ele>149</ele>
        <time>2023-06-13T16:22:31Z</time>
      </trkpt>
      <trkpt lat="43.65167" lon="1.38063">
        <ele>149</ele>
        <time>2023-06-13T16:22:32Z</time>
      </trkpt>
      <trkpt lat="43.65162" lon="1.38067">
        <ele>149</ele>
        <time>2023-06-13T16:22:33Z</time>
      </trkpt>
      <trkpt lat="43.65162" lon="1.38067">
        <ele>149</ele>
        <time>2023-06-13T16:22:34Z</time>
      </trkpt>
      <trkpt lat="43.6516" lon="1.38068">
        <ele>149</ele>
        <time>2023-06-13T16:22:35Z</time>
      </trkpt>
      <trkpt lat="43.65157" lon="1.3807">
        <ele>149</ele>
        <time>2023-06-13T16:22:36Z</time>
      </trkpt>
      <trkpt lat="43.65154" lon="1.38072">
        <ele>149</ele>
        <time>2023-06-13T16:22:37Z</time>
      </trkpt>
      <trkpt lat="43.65149" lon="1.38076">
        <ele>149</ele>
        <time>2023-06-13T16:22:38Z</time>
      </trkpt>
      <trkpt lat="43.65147" lon="1.38078">
        <ele>149</ele>
        <time>2023-06-13T16:22:39Z</time>
      </trkpt>
      <trkpt lat="43.65147" lon="1.38078">
        <ele>149</ele>
        <time>2023-06-13T16:22:40Z</time>
      </trkpt>
      <trkpt lat="43.65141" lon="1.38081">
        <ele>150</ele>
        <time>2023-06-13T16:22:41Z</time>
      </trkpt>
      <trkpt lat="43.65141" lon="1.38081">
        <ele>150</ele>
        <time>2023-06-13T16:22:42Z</time>
      </trkpt>
      <trkpt lat="43.65139" lon="1.38084">
        <ele>150</ele>
        <time>2023-06-13T16:22:43Z</time>
      </trkpt>
      <trkpt lat="43.65136" lon="1.38085">
        <ele>150</ele>
        <time>2023-06-13T16:22:44Z</time>
      </trkpt>
      <trkpt lat="43.65131" lon="1.38088">
        <ele>150</ele>
        <time>2023-06-13T16:22:45Z</time>
      </trkpt>
      <trkpt lat="43.65129" lon="1.3809">
        <ele>150</ele>
        <time>2023-06-13T16:22:46Z</time>
      </trkpt>
      <trkpt lat="43.65129" lon="1.3809">
        <ele>150</ele>
        <time>2023-06-13T16:22:47Z</time>
      </trkpt>
      <trkpt lat="43.65126" lon="1.38092">
        <ele>150</ele>
        <time>2023-06-13T16:22:48Z</time>
      </trkpt>
      <trkpt lat="43.65123" lon="1.38094">
        <ele>150</ele>
        <time>2023-06-13T16:22:49Z</time>
      </trkpt>
      <trkpt lat="43.65121" lon="1.38095">
        <ele>149</ele>
        <time>2023-06-13T16:22:50Z</time>
      </trkpt>
      <trkpt lat="43.65118" lon="1.38097">
        <ele>149</ele>
        <time>2023-06-13T16:22:51Z</time>
      </trkpt>
      <trkpt lat="43.65113" lon="1.38101">
        <ele>149</ele>
        <time>2023-06-13T16:22:52Z</time>
      </trkpt>
      <trkpt lat="43.65113" lon="1.38101">
        <ele>149</ele>
        <time>2023-06-13T16:22:53Z</time>
      </trkpt>
      <trkpt lat="43.6511" lon="1.38103">
        <ele>149</ele>
        <time>2023-06-13T16:22:54Z</time>
      </trkpt>
      <trkpt lat="43.65105" lon="1.38107">
        <ele>149</ele>
        <time>2023-06-13T16:22:55Z</time>
      </trkpt>
      <trkpt lat="43.65103" lon="1.38108">
        <ele>149</ele>
        <time>2023-06-13T16:22:56Z</time>
      </trkpt>
      <trkpt lat="43.651" lon="1.3811">
        <ele>149</ele>
        <time>2023-06-13T16:22:57Z</time>
      </trkpt>
      <trkpt lat="43.651" lon="1.3811">
        <ele>149</ele>
        <time>2023-06-13T16:22:58Z</time>
      </trkpt>
      <trkpt lat="43.65098" lon="1.38112">
        <ele>149</ele>
        <time>2023-06-13T16:22:59Z</time>
      </trkpt>
      <trkpt lat="43.65095" lon="1.38114">
        <ele>149</ele>
        <time>2023-06-13T16:23:00Z</time>
      </trkpt>
      <trkpt lat="43.65092" lon="1.38116">
        <ele>149</ele>
        <time>2023-06-13T16:23:01Z</time>
      </trkpt>
      <trkpt lat="43.65087" lon="1.38119">
        <ele>149</ele>
        <time>2023-06-13T16:23:02Z</time>
      </trkpt>
      <trkpt lat="43.65085" lon="1.38121">
        <ele>149</ele>
        <time>2023-06-13T16:23:03Z</time>
      </trkpt>
      <trkpt lat="43.65082" lon="1.38124">
        <ele>149</ele>
        <time>2023-06-13T16:23:04Z</time>
      </trkpt>
      <trkpt lat="43.6508" lon="1.38126">
        <ele>149</ele>
        <time>2023-06-13T16:23:05Z</time>
      </trkpt>
      <trkpt lat="43.6508" lon="1.38126">
        <ele>149</ele>
        <time>2023-06-13T16:23:06Z</time>
      </trkpt>
      <trkpt lat="43.65077" lon="1.38128">
        <ele>149</ele>
        <time>2023-06-13T16:23:07Z</time>
      </trkpt>
      <trkpt lat="43.65073" lon="1.38128">
        <ele>149</ele>
        <time>2023-06-13T16:23:08Z</time>
      </trkpt>
      <trkpt lat="43.65068" lon="1.38126">
        <ele>149</ele>
        <time>2023-06-13T16:23:09Z</time>
      </trkpt>
      <trkpt lat="43.65066" lon="1.38124">
        <ele>149</ele>
        <time>2023-06-13T16:23:10Z</time>
      </trkpt>
      <trkpt lat="43.65066" lon="1.38124">
        <ele>149</ele>
        <time>2023-06-13T16:23:11Z</time>
      </trkpt>
      <trkpt lat="43.65062" lon="1.38115">
        <ele>149</ele>
        <time>2023-06-13T16:23:12Z</time>
      </trkpt>
      <trkpt lat="43.65061" lon="1.3811">
        <ele>149</ele>
        <time>2023-06-13T16:23:13Z</time>
      </trkpt>
      <trkpt lat="43.65061" lon="1.3811">
        <ele>149</ele>
        <time>2023-06-13T16:23:14Z</time>
      </trkpt>
      <trkpt lat="43.65059" lon="1.38106">
        <ele>148</ele>
        <time>2023-06-13T16:23:15Z</time>
      </trkpt>
      <trkpt lat="43.65058" lon="1.38102">
        <ele>149</ele>
        <time>2023-06-13T16:23:16Z</time>
      </trkpt>
      <trkpt lat="43.65057" lon="1.38098">
        <ele>149</ele>
        <time>2023-06-13T16:23:17Z</time>
      </trkpt>
      <trkpt lat="43.65055" lon="1.38094">
        <ele>148</ele>
        <time>2023-06-13T16:23:18Z</time>
      </trkpt>
      <trkpt lat="43.65053" lon="1.3809">
        <ele>148</ele>
        <time>2023-06-13T16:23:19Z</time>
      </trkpt>
      <trkpt lat="43.65051" lon="1.38086">
        <ele>148</ele>
        <time>2023-06-13T16:23:20Z</time>
      </trkpt>
      <trkpt lat="43.65049" lon="1.38082">
        <ele>148</ele>
        <time>2023-06-13T16:23:21Z</time>
      </trkpt>
      <trkpt lat="43.65046" lon="1.38074">
        <ele>148</ele>
        <time>2023-06-13T16:23:22Z</time>
      </trkpt>
      <trkpt lat="43.65046" lon="1.38074">
        <ele>148</ele>
        <time>2023-06-13T16:23:23Z</time>
      </trkpt>
      <trkpt lat="43.65043" lon="1.38067">
        <ele>148</ele>
        <time>2023-06-13T16:23:24Z</time>
      </trkpt>
      <trkpt lat="43.65043" lon="1.38067">
        <ele>148</ele>
        <time>2023-06-13T16:23:25Z</time>
      </trkpt>
      <trkpt lat="43.65039" lon="1.3806">
        <ele>148</ele>
        <time>2023-06-13T16:23:26Z</time>
      </trkpt>
      <trkpt lat="43.65038" lon="1.38057">
        <ele>147</ele>
        <time>2023-06-13T16:23:27Z</time>
      </trkpt>
      <trkpt lat="43.65036" lon="1.38054">
        <ele>147</ele>
        <time>2023-06-13T16:23:28Z</time>
      </trkpt>
      <trkpt lat="43.65036" lon="1.38054">
        <ele>147</ele>
        <time>2023-06-13T16:23:29Z</time>
      </trkpt>
      <trkpt lat="43.65034" lon="1.3805">
        <ele>147</ele>
        <time>2023-06-13T16:23:30Z</time>
      </trkpt>
      <trkpt lat="43.65031" lon="1.38046">
        <ele>147</ele>
        <time>2023-06-13T16:23:31Z</time>
      </trkpt>
      <trkpt lat="43.65029" lon="1.38043">
        <ele>147</ele>
        <time>2023-06-13T16:23:32Z</time>
      </trkpt>
      <trkpt lat="43.65027" lon="1.3804">
        <ele>147</ele>
        <time>2023-06-13T16:23:33Z</time>
      </trkpt>
      <trkpt lat="43.65025" lon="1.38037">
        <ele>147</ele>
        <time>2023-06-13T16:23:34Z</time>
      </trkpt>
      <trkpt lat="43.65024" lon="1.38033">
        <ele>147</ele>
        <time>2023-06-13T16:23:35Z</time>
      </trkpt>
      <trkpt lat="43.65019" lon="1.38027">
        <ele>147</ele>
        <time>2023-06-13T16:23:36Z</time>
      </trkpt>
      <trkpt lat="43.65019" lon="1.38027">
        <ele>148</ele>
        <time>2023-06-13T16:23:37Z</time>
      </trkpt>
      <trkpt lat="43.65016" lon="1.3802">
        <ele>148</ele>
        <time>2023-06-13T16:23:38Z</time>
      </trkpt>
      <trkpt lat="43.65014" lon="1.38017">
        <ele>148</ele>
        <time>2023-06-13T16:23:39Z</time>
      </trkpt>
      <trkpt lat="43.65014" lon="1.38017">
        <ele>148</ele>
        <time>2023-06-13T16:23:40Z</time>
      </trkpt>
      <trkpt lat="43.65011" lon="1.38011">
        <ele>148</ele>
        <time>2023-06-13T16:23:41Z</time>
      </trkpt>
      <trkpt lat="43.65011" lon="1.38011">
        <ele>148</ele>
        <time>2023-06-13T16:23:42Z</time>
      </trkpt>
      <trkpt lat="43.65007" lon="1.38005">
        <ele>148</ele>
        <time>2023-06-13T16:23:43Z</time>
      </trkpt>
      <trkpt lat="43.65007" lon="1.38005">
        <ele>148</ele>
        <time>2023-06-13T16:23:44Z</time>
      </trkpt>
      <trkpt lat="43.65006" lon="1.38004">
        <ele>147</ele>
        <time>2023-06-13T16:23:45Z</time>
      </trkpt>
      <trkpt lat="43.65005" lon="1.38002">
        <ele>147</ele>
        <time>2023-06-13T16:23:46Z</time>
      </trkpt>
      <trkpt lat="43.65004" lon="1.38001">
        <ele>147</ele>
        <time>2023-06-13T16:23:47Z</time>
      </trkpt>
      <trkpt lat="43.65003" lon="1.37999">
        <ele>148</ele>
        <time>2023-06-13T16:23:48Z</time>
      </trkpt>
      <trkpt lat="43.64997" lon="1.3799">
        <ele>148</ele>
        <time>2023-06-13T16:23:49Z</time>
      </trkpt>
      <trkpt lat="43.64995" lon="1.37987">
        <ele>148</ele>
        <time>2023-06-13T16:23:50Z</time>
      </trkpt>
      <trkpt lat="43.64993" lon="1.37984">
        <ele>148</ele>
        <time>2023-06-13T16:23:51Z</time>
      </trkpt>
      <trkpt lat="43.64991" lon="1.37981">
        <ele>148</ele>
        <time>2023-06-13T16:23:52Z</time>
      </trkpt>
      <trkpt lat="43.64989" lon="1.37978">
        <ele>148</ele>
        <time>2023-06-13T16:23:53Z</time>
      </trkpt>
      <trkpt lat="43.64987" lon="1.37975">
        <ele>147</ele>
        <time>2023-06-13T16:23:54Z</time>
      </trkpt>
      <trkpt lat="43.64985" lon="1.37971">
        <ele>147</ele>
        <time>2023-06-13T16:23:55Z</time>
      </trkpt>
      <trkpt lat="43.64983" lon="1.37968">
        <ele>147</ele>
        <time>2023-06-13T16:23:56Z</time>
      </trkpt>
      <trkpt lat="43.64979" lon="1.37962">
        <ele>147</ele>
        <time>2023-06-13T16:23:57Z</time>
      </trkpt>
      <trkpt lat="43.64979" lon="1.37962">
        <ele>147</ele>
        <time>2023-06-13T16:23:58Z</time>
      </trkpt>
      <trkpt lat="43.64978" lon="1.37959">
        <ele>147</ele>
        <time>2023-06-13T16:23:59Z</time>
      </trkpt>
      <trkpt lat="43.64974" lon="1.37952">
        <ele>147</ele>
        <time>2023-06-13T16:24:00Z</time>
      </trkpt>
      <trkpt lat="43.64974" lon="1.37952">
        <ele>147</ele>
        <time>2023-06-13T16:24:01Z</time>
      </trkpt>
      <trkpt lat="43.64972" lon="1.37949">
        <ele>148</ele>
        <time>2023-06-13T16:24:02Z</time>
      </trkpt>
      <trkpt lat="43.6497" lon="1.37946">
        <ele>148</ele>
        <time>2023-06-13T16:24:03Z</time>
      </trkpt>
      <trkpt lat="43.64968" lon="1.37943">
        <ele>148</ele>
        <time>2023-06-13T16:24:04Z</time>
      </trkpt>
      <trkpt lat="43.64967" lon="1.3794">
        <ele>148</ele>
        <time>2023-06-13T16:24:05Z</time>
      </trkpt>
      <trkpt lat="43.64965" lon="1.37938">
        <ele>148</ele>
        <time>2023-06-13T16:24:06Z</time>
      </trkpt>
      <trkpt lat="43.64963" lon="1.37935">
        <ele>148</ele>
        <time>2023-06-13T16:24:07Z</time>
      </trkpt>
      <trkpt lat="43.64961" lon="1.37932">
        <ele>148</ele>
        <time>2023-06-13T16:24:08Z</time>
      </trkpt>
      <trkpt lat="43.64959" lon="1.37929">
        <ele>148</ele>
        <time>2023-06-13T16:24:09Z</time>
      </trkpt>
      <trkpt lat="43.64958" lon="1.37925">
        <ele>149</ele>
        <time>2023-06-13T16:24:10Z</time>
      </trkpt>
      <trkpt lat="43.64956" lon="1.3792">
        <ele>149</ele>
        <time>2023-06-13T16:24:11Z</time>
      </trkpt>
      <trkpt lat="43.64955" lon="1.37916">
        <ele>149</ele>
        <time>2023-06-13T16:24:12Z</time>
      </trkpt>
      <trkpt lat="43.64955" lon="1.37916">
        <ele>149</ele>
        <time>2023-06-13T16:24:13Z</time>
      </trkpt>
      <trkpt lat="43.64954" lon="1.37912">
        <ele>149</ele>
        <time>2023-06-13T16:24:14Z</time>
      </trkpt>
      <trkpt lat="43.64953" lon="1.37907">
        <ele>149</ele>
        <time>2023-06-13T16:24:15Z</time>
      </trkpt>
      <trkpt lat="43.64951" lon="1.37903">
        <ele>149</ele>
        <time>2023-06-13T16:24:16Z</time>
      </trkpt>
      <trkpt lat="43.64948" lon="1.37895">
        <ele>149</ele>
        <time>2023-06-13T16:24:17Z</time>
      </trkpt>
      <trkpt lat="43.64947" lon="1.37891">
        <ele>149</ele>
        <time>2023-06-13T16:24:18Z</time>
      </trkpt>
      <trkpt lat="43.64946" lon="1.37886">
        <ele>149</ele>
        <time>2023-06-13T16:24:19Z</time>
      </trkpt>
      <trkpt lat="43.64945" lon="1.37882">
        <ele>149</ele>
        <time>2023-06-13T16:24:20Z</time>
      </trkpt>
      <trkpt lat="43.64945" lon="1.37882">
        <ele>149</ele>
        <time>2023-06-13T16:24:21Z</time>
      </trkpt>
      <trkpt lat="43.64944" lon="1.37879">
        <ele>149</ele>
        <time>2023-06-13T16:24:22Z</time>
      </trkpt>
      <trkpt lat="43.64942" lon="1.37877">
        <ele>149</ele>
        <time>2023-06-13T16:24:23Z</time>
      </trkpt>
      <trkpt lat="43.6494" lon="1.37875">
        <ele>149</ele>
        <time>2023-06-13T16:24:24Z</time>
      </trkpt>
      <trkpt lat="43.64937" lon="1.37869">
        <ele>149</ele>
        <time>2023-06-13T16:24:25Z</time>
      </trkpt>
      <trkpt lat="43.64935" lon="1.37865">
        <ele>149</ele>
        <time>2023-06-13T16:24:26Z</time>
      </trkpt>
      <trkpt lat="43.64934" lon="1.3786">
        <ele>149</ele>
        <time>2023-06-13T16:24:27Z</time>
      </trkpt>
      <trkpt lat="43.64934" lon="1.3786">
        <ele>149</ele>
        <time>2023-06-13T16:24:28Z</time>
      </trkpt>
      <trkpt lat="43.64932" lon="1.37852">
        <ele>149</ele>
        <time>2023-06-13T16:24:29Z</time>
      </trkpt>
      <trkpt lat="43.64931" lon="1.37848">
        <ele>149</ele>
        <time>2023-06-13T16:24:30Z</time>
      </trkpt>
      <trkpt lat="43.64931" lon="1.37848">
        <ele>149</ele>
        <time>2023-06-13T16:24:31Z</time>
      </trkpt>
      <trkpt lat="43.64928" lon="1.3784">
        <ele>149</ele>
        <time>2023-06-13T16:24:32Z</time>
      </trkpt>
      <trkpt lat="43.64928" lon="1.3784">
        <ele>149</ele>
        <time>2023-06-13T16:24:33Z</time>
      </trkpt>
      <trkpt lat="43.64927" lon="1.37836">
        <ele>150</ele>
        <time>2023-06-13T16:24:34Z</time>
      </trkpt>
      <trkpt lat="43.64926" lon="1.37832">
        <ele>150</ele>
        <time>2023-06-13T16:24:35Z</time>
      </trkpt>
      <trkpt lat="43.64925" lon="1.37828">
        <ele>150</ele>
        <time>2023-06-13T16:24:36Z</time>
      </trkpt>
      <trkpt lat="43.64925" lon="1.37824">
        <ele>149</ele>
        <time>2023-06-13T16:24:37Z</time>
      </trkpt>
      <trkpt lat="43.64923" lon="1.3782">
        <ele>149</ele>
        <time>2023-06-13T16:24:38Z</time>
      </trkpt>
      <trkpt lat="43.64922" lon="1.37816">
        <ele>149</ele>
        <time>2023-06-13T16:24:39Z</time>
      </trkpt>
      <trkpt lat="43.64921" lon="1.3781">
        <ele>149</ele>
        <time>2023-06-13T16:24:40Z</time>
      </trkpt>
      <trkpt lat="43.64919" lon="1.37805">
        <ele>149</ele>
        <time>2023-06-13T16:24:41Z</time>
      </trkpt>
      <trkpt lat="43.64918" lon="1.37801">
        <ele>149</ele>
        <time>2023-06-13T16:24:42Z</time>
      </trkpt>
      <trkpt lat="43.64918" lon="1.37801">
        <ele>149</ele>
        <time>2023-06-13T16:24:43Z</time>
      </trkpt>
      <trkpt lat="43.64918" lon="1.37797">
        <ele>149</ele>
        <time>2023-06-13T16:24:44Z</time>
      </trkpt>
      <trkpt lat="43.64917" lon="1.37793">
        <ele>149</ele>
        <time>2023-06-13T16:24:45Z</time>
      </trkpt>
      <trkpt lat="43.64916" lon="1.37789">
        <ele>149</ele>
        <time>2023-06-13T16:24:46Z</time>
      </trkpt>
      <trkpt lat="43.64912" lon="1.37784">
        <ele>150</ele>
        <time>2023-06-13T16:24:48Z</time>
      </trkpt>
      <trkpt lat="43.6491" lon="1.37783">
        <ele>150</ele>
        <time>2023-06-13T16:24:49Z</time>
      </trkpt>
      <trkpt lat="43.64907" lon="1.37781">
        <ele>150</ele>
        <time>2023-06-13T16:24:50Z</time>
      </trkpt>
      <trkpt lat="43.64904" lon="1.3778">
        <ele>150</ele>
        <time>2023-06-13T16:24:51Z</time>
      </trkpt>
      <trkpt lat="43.64901" lon="1.37773">
        <ele>150</ele>
        <time>2023-06-13T16:24:52Z</time>
      </trkpt>
      <trkpt lat="43.64901" lon="1.37773">
        <ele>150</ele>
        <time>2023-06-13T16:24:53Z</time>
      </trkpt>
      <trkpt lat="43.64899" lon="1.37765">
        <ele>150</ele>
        <time>2023-06-13T16:24:54Z</time>
      </trkpt>
      <trkpt lat="43.64899" lon="1.37765">
        <ele>150</ele>
        <time>2023-06-13T16:24:55Z</time>
      </trkpt>
      <trkpt lat="43.64898" lon="1.37761">
        <ele>149</ele>
        <time>2023-06-13T16:24:56Z</time>
      </trkpt>
      <trkpt lat="43.64897" lon="1.37757">
        <ele>149</ele>
        <time>2023-06-13T16:24:57Z</time>
      </trkpt>
      <trkpt lat="43.64897" lon="1.37753">
        <ele>150</ele>
        <time>2023-06-13T16:24:58Z</time>
      </trkpt>
      <trkpt lat="43.64896" lon="1.37749">
        <ele>150</ele>
        <time>2023-06-13T16:24:59Z</time>
      </trkpt>
      <trkpt lat="43.64895" lon="1.37745">
        <ele>150</ele>
        <time>2023-06-13T16:25:00Z</time>
      </trkpt>
      <trkpt lat="43.64893" lon="1.37737">
        <ele>150</ele>
        <time>2023-06-13T16:25:01Z</time>
      </trkpt>
      <trkpt lat="43.64893" lon="1.37737">
        <ele>150</ele>
        <time>2023-06-13T16:25:02Z</time>
      </trkpt>
      <trkpt lat="43.64892" lon="1.37733">
        <ele>150</ele>
        <time>2023-06-13T16:25:03Z</time>
      </trkpt>
      <trkpt lat="43.64892" lon="1.37725">
        <ele>150</ele>
        <time>2023-06-13T16:25:04Z</time>
      </trkpt>
      <trkpt lat="43.64892" lon="1.37725">
        <ele>150</ele>
        <time>2023-06-13T16:25:05Z</time>
      </trkpt>
      <trkpt lat="43.64891" lon="1.37722">
        <ele>150</ele>
        <time>2023-06-13T16:25:06Z</time>
      </trkpt>
      <trkpt lat="43.6489" lon="1.37714">
        <ele>150</ele>
        <time>2023-06-13T16:25:07Z</time>
      </trkpt>
      <trkpt lat="43.64889" lon="1.37711">
        <ele>150</ele>
        <time>2023-06-13T16:25:08Z</time>
      </trkpt>
      <trkpt lat="43.64889" lon="1.37711">
        <ele>150</ele>
        <time>2023-06-13T16:25:09Z</time>
      </trkpt>
      <trkpt lat="43.64887" lon="1.37703">
        <ele>150</ele>
        <time>2023-06-13T16:25:10Z</time>
      </trkpt>
      <trkpt lat="43.64887" lon="1.37703">
        <ele>151</ele>
        <time>2023-06-13T16:25:11Z</time>
      </trkpt>
      <trkpt lat="43.64885" lon="1.37699">
        <ele>151</ele>
        <time>2023-06-13T16:25:12Z</time>
      </trkpt>
      <trkpt lat="43.64883" lon="1.37691">
        <ele>151</ele>
        <time>2023-06-13T16:25:13Z</time>
      </trkpt>
      <trkpt lat="43.64883" lon="1.37691">
        <ele>151</ele>
        <time>2023-06-13T16:25:14Z</time>
      </trkpt>
      <trkpt lat="43.64881" lon="1.37683">
        <ele>151</ele>
        <time>2023-06-13T16:25:15Z</time>
      </trkpt>
      <trkpt lat="43.64881" lon="1.37683">
        <ele>151</ele>
        <time>2023-06-13T16:25:16Z</time>
      </trkpt>
      <trkpt lat="43.64879" lon="1.37676">
        <ele>151</ele>
        <time>2023-06-13T16:25:17Z</time>
      </trkpt>
      <trkpt lat="43.64879" lon="1.37676">
        <ele>151</ele>
        <time>2023-06-13T16:25:18Z</time>
      </trkpt>
      <trkpt lat="43.64878" lon="1.37672">
        <ele>151</ele>
        <time>2023-06-13T16:25:19Z</time>
      </trkpt>
      <trkpt lat="43.64876" lon="1.37664">
        <ele>151</ele>
        <time>2023-06-13T16:25:20Z</time>
      </trkpt>
      <trkpt lat="43.64876" lon="1.37664">
        <ele>151</ele>
        <time>2023-06-13T16:25:21Z</time>
      </trkpt>
      <trkpt lat="43.64875" lon="1.37661">
        <ele>151</ele>
        <time>2023-06-13T16:25:22Z</time>
      </trkpt>
      <trkpt lat="43.64873" lon="1.37657">
        <ele>151</ele>
        <time>2023-06-13T16:25:23Z</time>
      </trkpt>
      <trkpt lat="43.64871" lon="1.37654">
        <ele>151</ele>
        <time>2023-06-13T16:25:24Z</time>
      </trkpt>
      <trkpt lat="43.64866" lon="1.37649">
        <ele>151</ele>
        <time>2023-06-13T16:25:25Z</time>
      </trkpt>
      <trkpt lat="43.64863" lon="1.37648">
        <ele>151</ele>
        <time>2023-06-13T16:25:26Z</time>
      </trkpt>
      <trkpt lat="43.64863" lon="1.37648">
        <ele>151</ele>
        <time>2023-06-13T16:25:27Z</time>
      </trkpt>
      <trkpt lat="43.6486" lon="1.37646">
        <ele>151</ele>
        <time>2023-06-13T16:25:28Z</time>
      </trkpt>
      <trkpt lat="43.64857" lon="1.37645">
        <ele>151</ele>
        <time>2023-06-13T16:25:29Z</time>
      </trkpt>
      <trkpt lat="43.64852" lon="1.37641">
        <ele>151</ele>
        <time>2023-06-13T16:25:30Z</time>
      </trkpt>
      <trkpt lat="43.64852" lon="1.37641">
        <ele>151</ele>
        <time>2023-06-13T16:25:31Z</time>
      </trkpt>
      <trkpt lat="43.64847" lon="1.37635">
        <ele>151</ele>
        <time>2023-06-13T16:25:32Z</time>
      </trkpt>
      <trkpt lat="43.64847" lon="1.37635">
        <ele>151</ele>
        <time>2023-06-13T16:25:33Z</time>
      </trkpt>
      <trkpt lat="43.64844" lon="1.37633">
        <ele>151</ele>
        <time>2023-06-13T16:25:34Z</time>
      </trkpt>
      <trkpt lat="43.64837" lon="1.37629">
        <ele>151</ele>
        <time>2023-06-13T16:25:35Z</time>
      </trkpt>
      <trkpt lat="43.64837" lon="1.37629">
        <ele>151</ele>
        <time>2023-06-13T16:25:36Z</time>
      </trkpt>
      <trkpt lat="43.64831" lon="1.37627">
        <ele>151</ele>
        <time>2023-06-13T16:25:37Z</time>
      </trkpt>
      <trkpt lat="43.64831" lon="1.37627">
        <ele>151</ele>
        <time>2023-06-13T16:25:38Z</time>
      </trkpt>
      <trkpt lat="43.64827" lon="1.37624">
        <ele>151</ele>
        <time>2023-06-13T16:25:39Z</time>
      </trkpt>
      <trkpt lat="43.64825" lon="1.37623">
        <ele>152</ele>
        <time>2023-06-13T16:25:40Z</time>
      </trkpt>
      <trkpt lat="43.64825" lon="1.37623">
        <ele>152</ele>
        <time>2023-06-13T16:25:41Z</time>
      </trkpt>
      <trkpt lat="43.6482" lon="1.37619">
        <ele>152</ele>
        <time>2023-06-13T16:25:42Z</time>
      </trkpt>
      <trkpt lat="43.6482" lon="1.37619">
        <ele>151</ele>
        <time>2023-06-13T16:25:43Z</time>
      </trkpt>
      <trkpt lat="43.64817" lon="1.37617">
        <ele>151</ele>
        <time>2023-06-13T16:25:44Z</time>
      </trkpt>
      <trkpt lat="43.64814" lon="1.37616">
        <ele>151</ele>
        <time>2023-06-13T16:25:45Z</time>
      </trkpt>
      <trkpt lat="43.64811" lon="1.37614">
        <ele>151</ele>
        <time>2023-06-13T16:25:46Z</time>
      </trkpt>
      <trkpt lat="43.64809" lon="1.37613">
        <ele>151</ele>
        <time>2023-06-13T16:25:47Z</time>
      </trkpt>
      <trkpt lat="43.64807" lon="1.37611">
        <ele>151</ele>
        <time>2023-06-13T16:25:48Z</time>
      </trkpt>
      <trkpt lat="43.64804" lon="1.37609">
        <ele>151</ele>
        <time>2023-06-13T16:25:49Z</time>
      </trkpt>
      <trkpt lat="43.64802" lon="1.37609">
        <ele>151</ele>
        <time>2023-06-13T16:25:50Z</time>
      </trkpt>
    </trkseg>
  </trk>
</gpx>